GEFSCGP_500_meanwind_000.txt.gz
Wind_Speed
27 28 25 25 30 32 36 36 38 40 42 40 42 47 49 44 42 40 37 32 30 22 25 25 24 25 23 19 19 17 19 20 20 22 22 22 25 26 26 27 28 31 31 33
23 24 26 30 33 34 35 36 38 39 40 42 46 48 47 43 42 42 40 33 32 26 26 28 29 31 29 27 25 24 24 24 25 27 28 28 29 31 30 31 32 35 36 36
17 19 24 28 32 34 35 37 37 37 40 43 47 49 45 44 41 40 40 36 31 29 29 30 30 32 35 30 29 30 30 28 30 30 31 32 33 37 37 36 37 39 41 41
15 16 20 25 29 31 33 36 38 39 40 42 46 47 43 47 42 39 39 38 33 31 32 31 32 34 33 32 33 34 32 31 32 33 34 36 38 40 42 42 42 44 47 46
18 19 22 24 26 31 32 34 36 37 38 41 46 48 42 43 42 37 36 37 37 35 37 35 33 31 33 36 37 36 36 34 33 35 38 39 40 42 45 45 48 53 55 52
21 21 22 24 26 28 29 29 32 34 36 41 40 42 39 30 34 33 33 33 37 38 39 35 35 35 37 37 39 39 39 36 35 37 38 40 43 45 49 49 52 57 53 50
24 24 23 24 26 26 27 27 28 30 32 33 32 37 35 30 32 32 31 30 31 33 36 39 40 41 40 40 42 43 40 38 35 37 38 42 44 50 56 54 48 44 43 42
28 25 24 22 23 25 29 30 29 27 24 21 28 32 29 30 29 27 25 24 22 23 25 30 34 39 41 44 44 42 38 36 37 41 41 40 44 46 44 45 42 39 39 40
28 24 23 22 23 26 26 27 25 29 28 27 28 27 29 26 25 21 20 19 18 20 22 23 28 34 36 38 38 39 40 41 44 44 41 41 43 43 42 43 40 39 41 43
30 28 23 23 26 28 28 24 24 25 26 26 23 20 17 19 22 18 18 21 21 20 22 25 27 29 31 33 34 38 40 39 42 44 44 42 41 39 38 40 45 42 41 45
32 30 25 26 27 29 29 30 29 27 26 23 21 20 23 27 25 20 18 19 22 24 28 30 30 30 31 30 32 36 37 39 44 44 42 39 36 33 39 42 39 38 41 47
34 33 29 26 29 28 31 31 29 27 23 24 24 23 28 31 29 25 20 20 24 28 30 29 27 28 31 34 36 37 36 38 41 36 36 40 40 41 44 41 37 39 44 45
34 34 30 25 28 28 31 35 35 33 30 28 26 25 30 30 28 25 24 26 29 31 31 32 32 31 33 35 35 36 37 40 44 44 43 43 42 42 41 40 40 43 44 45
36 36 34 28 27 29 32 33 36 38 35 32 29 29 33 34 33 32 32 32 32 34 36 39 40 37 35 34 34 37 42 47 49 49 46 43 40 40 40 42 44 44 45 47
38 38 38 37 35 35 37 36 37 38 38 38 33 37 38 38 36 37 37 37 36 35 36 38 41 39 39 42 44 46 50 50 51 49 44 42 40 39 41 42 43 45 45 45
38 40 40 38 38 38 37 36 37 37 35 36 34 36 37 35 33 33 34 36 37 37 39 41 43 46 48 50 53 54 51 50 51 47 43 43 43 42 42 42 43 43 44 44
39 41 40 39 40 39 40 39 40 39 38 39 39 39 41 38 38 38 39 40 41 43 46 48 50 52 53 53 53 46 47 48 47 44 42 45 47 43 41 40 41 43 44 45
38 39 40 39 40 40 42 40 41 43 45 47 47 48 47 47 46 46 47 48 49 50 52 51 52 51 50 49 40 44 47 44 45 43 44 49 44 40 41 40 41 44 45 47
36 36 38 38 38 38 40 39 40 42 47 48 52 56 56 56 55 53 53 53 51 50 48 47 49 49 51 41 44 48 37 44 45 42 46 41 39 41 41 41 42 44 47 49
33 34 34 35 36 38 39 38 39 40 43 43 45 48 51 52 52 50 49 47 46 45 45 46 48 46 41 41 43 37 43 48 43 39 37 36 38 41 41 42 44 46 49 48
29 30 31 32 34 36 37 38 38 39 40 40 41 43 45 45 46 45 45 44 43 44 44 44 43 38 42 43 43 50 51 48 42 37 36 36 38 39 41 43 45 47 48 47
25 26 27 28 30 33 33 33 33 33 32 32 33 34 34 35 36 37 38 39 38 39 38 37 34 31 42 45 45 46 41 36 33 33 35 35 37 39 42 44 45 46 47 48
22 24 27 30 32 34 35 35 33 30 28 27 26 25 24 24 26 29 31 32 31 30 30 30 29 34 38 38 39 36 33 31 30 30 32 35 37 40 42 43 45 47 48 47
26 27 30 32 33 36 37 37 36 33 29 27 25 22 20 20 20 22 22 22 23 23 24 26 29 35 37 33 30 27 28 27 26 29 33 36 39 40 42 44 46 46 43 38
27 27 30 32 34 37 39 40 38 34 30 26 23 21 18 16 15 14 15 17 17 18 21 24 27 30 28 25 23 23 23 23 26 31 34 37 38 40 42 43 42 38 32 27
24 24 24 25 27 28 32 34 31 26 20 17 18 18 16 12 6 6 7 7 10 13 18 21 18 16 17 17 17 18 20 24 28 31 34 36 39 41 41 38 33 28 22 22

GEFSCGP_500_meanwind_006.txt.gz
Wind_Speed
27 28 26 24 24 23 23 22 21 20 19 21 29 34 33 27 30 34 36 36 35 36 40 42 37 32 30 28 28 29 31 32 34 33 32 32 32 32 32 33 34 34 35 35
28 26 21 22 20 21 23 26 28 27 25 27 27 32 36 37 34 32 38 41 38 38 43 43 38 33 31 30 30 31 33 36 38 39 39 39 37 36 36 38 38 39 39 38
23 18 19 22 23 23 25 27 28 30 30 32 35 37 40 43 38 38 41 45 46 41 45 46 42 35 33 33 34 33 35 39 41 42 44 44 43 41 40 41 42 43 43 42
19 19 18 20 22 23 24 24 26 28 31 33 33 37 38 37 34 33 35 39 42 36 39 46 42 36 35 35 35 35 38 40 43 45 46 47 47 46 45 46 46 46 45 45
18 17 19 19 18 18 18 19 22 24 28 33 35 39 38 32 32 32 32 35 38 34 35 43 41 36 35 34 33 36 41 44 46 47 47 48 49 49 49 48 46 46 47 49
20 17 18 18 17 18 17 19 21 24 26 30 28 30 33 28 29 29 26 31 35 32 34 35 33 33 33 33 34 37 42 45 47 47 47 48 49 49 48 47 47 49 51 51
22 21 21 22 21 19 19 18 19 20 21 21 17 21 23 20 21 23 24 31 33 34 35 32 31 32 34 34 36 39 42 44 44 46 48 48 48 49 49 50 50 53 55 54
23 24 23 25 25 22 22 21 19 17 18 17 15 16 18 19 20 24 29 35 37 33 33 33 32 31 31 33 36 38 40 42 44 46 47 47 48 49 49 51 52 53 55 55
21 19 20 23 25 25 22 23 20 19 19 22 23 23 20 20 26 29 30 31 28 26 27 27 27 26 27 30 32 34 37 39 40 41 42 44 46 47 48 50 51 51 52 53
30 28 19 17 22 26 24 22 20 23 24 24 20 17 17 19 23 26 30 29 19 18 21 24 25 26 27 30 31 33 34 35 35 36 38 41 43 45 48 48 48 50 52 54
37 36 29 21 23 21 21 21 22 25 24 23 22 18 21 23 25 27 33 35 19 18 21 24 27 29 32 34 35 35 34 34 36 37 38 40 43 44 45 47 50 53 55 56
37 36 36 33 28 22 23 25 25 28 28 26 25 21 24 28 28 32 37 38 33 28 24 24 28 31 34 36 37 37 36 38 39 40 42 43 44 44 47 50 53 55 55 55
37 39 38 35 31 29 27 28 28 28 29 28 24 21 28 30 31 33 37 38 34 26 21 24 29 33 36 38 38 38 37 38 39 41 42 43 45 48 50 52 53 53 53 54
35 37 36 31 24 25 29 32 31 29 30 29 26 27 34 36 38 40 41 41 32 20 22 28 33 37 40 40 39 38 39 42 44 46 47 47 48 51 53 51 51 51 52 55
37 38 37 36 32 28 28 33 33 30 29 29 28 27 31 35 40 40 38 35 26 22 25 30 34 39 41 40 39 41 45 48 51 51 50 48 50 55 53 51 49 49 51 53
36 38 38 38 36 36 32 30 29 26 24 27 29 28 37 43 45 46 43 36 33 32 31 33 36 39 41 43 45 47 51 53 53 52 50 49 54 58 55 50 48 51 53 54
33 33 33 35 36 37 40 36 34 36 35 35 36 41 46 47 47 47 47 47 45 42 40 41 43 45 47 49 51 53 55 54 52 51 50 51 56 60 56 51 50 52 53 53
34 33 34 34 37 40 36 34 39 43 45 45 46 46 45 43 43 44 47 49 49 48 47 48 50 51 52 54 54 54 52 50 49 50 50 54 58 58 54 49 49 49 48 48
35 35 36 37 38 40 33 37 41 44 47 47 45 44 43 43 44 45 46 48 50 50 50 50 50 50 50 50 49 48 47 47 48 49 52 57 56 54 51 47 46 44 45 47
32 34 35 35 37 38 36 40 41 41 44 43 41 40 39 40 43 44 44 46 48 50 50 50 48 47 45 45 45 45 45 46 46 48 53 56 54 51 46 43 42 43 46 48
25 27 29 30 32 32 37 40 41 42 44 42 39 36 37 39 41 41 41 42 42 44 45 44 43 42 42 42 41 42 42 43 44 47 51 52 52 49 43 40 42 44 47 48
28 27 25 25 27 31 36 38 41 42 41 39 37 35 35 36 37 37 36 36 36 37 38 37 36 35 34 35 35 37 38 41 44 47 48 47 45 43 43 43 45 46 48 49
24 24 25 26 27 29 33 37 38 36 36 34 34 34 35 35 35 34 33 32 32 31 30 29 28 28 29 30 32 34 37 40 43 43 42 40 39 40 42 44 45 46 47 45
23 24 25 26 28 31 35 35 33 33 34 34 35 36 37 36 35 32 30 29 27 26 25 25 25 25 26 28 32 35 37 37 37 37 37 37 38 40 42 43 44 43 39 32
23 24 24 26 28 32 34 34 34 35 36 37 37 37 36 35 32 29 27 25 23 22 21 20 21 23 26 29 30 31 30 31 32 34 37 38 39 39 39 39 37 32 24 19
24 24 24 26 28 30 31 32 32 31 32 32 33 33 33 31 28 25 23 20 19 18 18 19 20 22 23 23 23 25 27 30 33 35 36 37 36 36 34 30 24 19 19 21

GEFSCGP_500_meanwind_012.txt.gz
Wind_Speed
32 32 30 27 27 28 30 32 33 30 28 29 27 23 20 21 26 30 31 31 33 35 36 37 37 37 35 34 35 36 36 35 34 34 32 32 31 31 33 35 36 35 36 38
32 30 26 29 30 31 32 33 31 29 30 31 30 28 25 23 25 28 30 32 36 38 39 38 39 39 38 37 37 37 38 39 38 36 35 35 35 36 39 40 39 38 39 41
29 23 28 31 31 30 31 31 30 30 31 33 34 32 27 25 25 27 31 35 39 42 43 43 42 41 40 38 37 38 40 41 40 39 38 37 38 40 42 43 42 41 42 45
28 28 31 32 31 29 28 27 28 30 33 34 35 35 30 29 29 31 33 36 39 42 43 43 42 38 36 36 37 39 41 42 42 40 39 39 39 41 43 43 42 43 44 45
27 29 31 30 28 28 25 24 25 28 31 33 33 36 33 32 35 36 38 38 39 42 43 40 35 33 33 36 38 39 41 41 41 40 40 39 38 39 42 43 43 45 45 46
26 30 32 28 25 23 21 21 25 27 28 26 21 29 28 26 34 39 42 42 41 42 41 36 32 32 34 36 39 41 40 39 38 38 38 38 38 39 41 42 44 46 46 48
30 33 35 32 27 22 20 22 24 24 22 16 13 20 15 17 26 31 32 31 31 32 32 31 31 32 35 38 41 42 42 37 35 36 37 38 38 39 41 43 44 45 47 47
30 33 33 31 26 21 21 22 22 21 19 15 17 17 14 18 20 21 21 20 21 24 27 29 30 32 37 41 43 42 40 35 31 33 35 37 39 40 41 43 44 46 47 48
29 30 27 25 21 19 19 21 21 22 22 20 20 19 18 20 20 20 20 20 21 23 26 29 33 36 40 42 42 39 35 30 30 33 36 39 41 43 45 46 47 48 49 51
25 29 28 26 25 26 24 21 23 25 25 24 22 20 21 24 25 27 27 25 26 29 31 32 34 36 36 37 36 35 31 30 32 35 39 42 45 47 47 48 49 49 50 50
27 30 32 29 25 26 26 27 26 25 24 24 23 21 21 22 24 27 29 29 29 32 34 35 36 37 37 37 36 32 30 31 34 38 42 45 48 50 50 50 50 50 51 53
32 33 33 32 25 24 26 29 28 26 25 23 24 24 25 27 28 29 31 33 34 35 35 37 38 39 37 36 34 30 30 33 37 41 45 48 50 51 50 49 51 53 55 56
36 36 35 33 29 28 29 30 29 28 27 25 25 28 31 32 32 33 35 37 39 39 39 39 37 37 37 36 33 32 33 36 40 44 47 49 49 48 50 52 54 57 58 58
39 39 38 38 38 37 33 33 33 32 30 29 30 33 35 36 36 37 39 41 42 42 39 36 37 38 36 35 34 34 36 39 43 46 48 49 51 53 55 57 59 59 58 57
40 41 40 40 41 42 40 37 36 37 36 35 36 38 41 42 43 43 44 45 42 37 33 34 37 39 39 37 36 37 39 42 45 48 50 53 55 57 59 60 59 58 57 56
42 41 41 41 41 43 44 44 42 41 43 44 45 46 46 46 47 48 48 46 38 31 32 36 41 42 43 42 43 43 44 46 49 51 53 55 57 58 58 57 57 57 57 58
43 43 41 40 39 40 44 47 46 45 45 46 47 48 48 50 51 51 50 45 38 37 38 41 44 45 46 47 47 47 48 49 50 52 52 53 53 53 52 54 56 57 58 58
43 44 44 41 38 35 38 43 45 47 48 49 47 46 45 45 45 45 45 45 45 46 46 47 48 48 48 48 48 48 48 48 49 48 47 47 48 49 52 53 55 55 54 54
39 39 38 36 35 33 32 35 39 42 45 47 49 50 50 48 48 49 50 50 49 50 49 49 48 47 46 46 47 46 46 45 43 42 43 45 48 49 51 52 52 52 51 50
34 36 36 36 35 35 34 34 37 39 43 43 44 46 48 48 47 48 49 50 50 49 48 47 46 45 45 45 45 44 43 40 40 41 43 45 47 48 48 49 49 49 47 46
26 30 31 33 33 34 34 33 33 36 38 40 42 44 46 47 47 47 47 47 48 48 47 46 44 43 43 43 43 41 39 38 38 39 40 42 44 45 46 46 45 44 43 43
18 20 21 22 23 25 25 25 26 28 30 33 37 39 41 43 44 45 45 45 45 44 42 41 41 41 41 41 39 38 36 36 37 38 40 42 43 42 41 41 41 42 42 42
19 19 19 20 22 23 23 23 23 23 24 27 30 33 35 37 39 40 41 41 40 38 38 38 39 39 39 37 35 34 34 35 36 38 38 39 39 39 40 41 41 41 40 38
15 16 18 20 21 22 23 24 25 26 27 28 29 31 33 34 35 36 36 36 36 36 36 36 36 35 34 32 32 32 33 34 34 35 36 37 38 39 40 40 39 36 34 31
13 15 17 20 22 24 24 25 27 28 29 30 31 32 33 34 35 35 35 35 34 33 33 32 30 29 28 28 29 30 31 32 33 35 36 37 38 37 36 34 32 29 26 24
14 16 18 21 23 25 26 27 28 29 29 29 29 30 30 30 30 30 30 28 27 25 24 23 23 23 24 25 26 28 30 32 34 36 36 36 34 32 29 27 25 24 24 24

GEFSCGP_500_meanwind_018.txt.gz
Wind_Speed
38 37 37 35 35 36 39 40 40 39 41 42 41 37 34 35 34 35 35 35 35 34 30 27 25 23 22 23 26 28 30 32 32 31 31 32 32 30 30 31 31 32 34 34
37 37 34 34 36 37 38 39 38 38 41 45 45 43 39 38 38 37 36 36 35 35 34 31 29 26 25 25 27 29 31 33 33 33 34 34 34 31 30 29 30 30 32 33
35 33 33 34 35 36 37 36 35 37 41 44 45 45 43 40 39 38 36 35 35 34 34 33 31 28 27 26 27 30 33 35 35 36 36 36 37 35 32 30 26 27 29 29
34 32 32 33 34 34 33 31 33 36 39 41 43 44 42 40 39 38 37 36 35 34 34 33 32 30 29 28 30 33 36 38 37 38 37 38 39 36 33 28 25 24 25 26
31 30 30 32 32 32 27 28 31 34 37 39 41 42 40 39 38 37 37 37 36 35 34 34 33 32 32 33 34 37 40 40 39 40 39 39 38 35 32 26 22 21 23 26
31 30 32 32 30 30 27 30 33 34 36 37 36 39 39 36 36 36 37 38 37 36 35 34 34 35 35 37 39 42 41 40 40 40 39 38 37 33 29 24 23 24 26 30
29 31 34 34 33 33 32 33 34 34 36 35 32 36 37 34 34 35 35 36 36 36 35 34 35 36 38 40 41 40 39 39 39 40 40 39 36 32 30 27 26 28 31 34
27 29 32 32 33 33 33 34 35 35 34 31 31 33 32 30 30 32 32 32 32 32 33 34 34 35 36 37 36 35 36 37 38 38 37 36 35 33 31 30 30 32 35 39
24 25 27 28 28 31 32 33 32 33 32 30 31 31 30 27 26 28 29 29 29 29 29 30 30 30 31 31 32 33 34 35 36 36 37 38 38 34 33 33 34 37 40 44
22 22 24 25 29 32 33 32 32 32 31 30 31 28 26 25 25 26 27 28 28 28 28 28 29 29 30 30 31 33 35 36 38 38 38 39 39 38 38 38 40 43 46 49
19 21 24 27 31 34 35 35 34 33 31 29 28 27 25 26 27 28 28 28 28 28 28 29 29 30 32 33 35 36 38 40 41 41 40 39 38 38 40 41 43 47 50 52
20 20 24 29 31 34 36 37 35 34 32 30 29 28 27 27 28 28 28 28 27 27 27 29 30 32 34 36 38 40 42 43 43 43 42 40 39 41 43 44 46 49 52 54
23 23 24 28 31 33 35 36 36 35 34 33 32 32 30 30 30 30 29 29 28 28 29 30 32 34 36 39 41 43 44 45 44 43 41 40 41 43 45 47 49 51 54 56
28 29 28 30 32 33 34 36 36 36 36 36 36 37 36 36 35 34 33 32 32 31 31 33 35 37 39 41 43 44 44 44 42 41 41 43 45 46 48 49 51 53 56 58
33 33 33 33 35 36 35 36 36 37 38 38 38 39 41 42 40 38 37 36 35 35 36 37 39 41 42 44 45 46 45 43 43 44 45 47 48 49 50 51 53 54 57 59
36 37 37 37 38 40 40 39 40 40 39 40 42 43 44 43 43 41 40 39 38 39 39 41 42 43 44 44 46 46 47 47 47 47 46 47 48 49 50 51 53 54 56 57
34 36 38 39 40 41 43 43 43 43 42 42 42 43 45 43 42 41 40 38 38 38 38 39 41 43 44 46 48 49 49 48 48 47 46 47 47 48 49 51 52 53 54 54
29 32 35 37 39 40 39 38 38 39 39 39 40 39 39 38 37 37 37 37 38 40 42 44 46 47 49 50 50 50 49 49 48 47 46 46 46 47 49 50 50 51 52 52
23 26 29 31 33 36 35 33 32 32 32 32 34 34 34 34 34 35 36 38 40 43 45 46 48 49 50 50 50 50 50 48 47 45 45 45 46 47 48 48 48 49 49 50
19 20 23 25 27 28 28 28 27 28 29 29 30 32 33 35 35 36 37 39 41 42 44 45 47 48 49 49 49 48 47 45 43 43 43 44 45 46 46 46 47 47 48 48
16 16 18 20 22 23 24 24 24 25 27 29 31 32 34 35 36 37 39 40 41 42 43 44 45 46 46 46 45 44 43 42 42 42 43 43 43 44 44 45 45 46 46 47
14 14 14 15 16 16 18 20 22 23 24 26 28 30 32 34 35 36 37 37 38 39 40 41 41 41 41 41 41 41 41 41 41 41 41 41 41 42 42 43 44 44 45 45
13 13 13 14 14 14 15 17 19 20 22 24 26 28 29 30 31 32 33 33 34 36 37 37 38 39 39 39 39 39 38 38 38 38 38 38 39 40 41 42 43 43 42 41
12 12 13 13 14 15 16 17 18 20 22 23 25 26 27 29 30 30 31 32 33 34 35 36 36 36 36 35 34 33 34 34 34 35 36 37 38 40 40 40 40 39 36 34
13 12 13 13 14 16 17 18 20 21 23 24 26 27 28 29 30 31 31 31 32 32 31 31 30 28 27 27 27 28 30 31 33 35 36 37 38 38 37 35 33 31 29 27
14 14 15 15 16 17 18 20 21 23 24 25 26 27 27 27 27 27 26 26 25 24 23 21 20 20 21 23 24 26 29 31 33 34 35 34 33 32 30 28 27 26 25 25

GEFSCGP_500_meanwind_024.txt.gz
Wind_Speed
36 34 33 34 35 37 36 36 39 42 39 36 35 34 32 30 28 27 26 25 25 24 23 24 25 26 27 27 28 28 28 28 28 29 30 32 34 37 39 39 40 38 38 39
36 34 33 34 36 38 38 38 40 43 41 41 41 39 36 35 33 31 31 30 30 29 28 28 28 28 29 31 31 31 31 31 31 32 33 36 38 41 44 45 44 41 38 36
35 34 33 33 34 36 38 39 41 44 46 45 44 41 40 40 38 36 35 35 34 33 32 32 31 30 31 32 33 33 33 34 34 35 36 38 40 44 45 46 42 38 35 31
34 34 31 32 33 34 36 38 40 42 45 45 48 43 39 44 43 42 41 40 39 37 36 34 33 31 31 31 33 33 34 35 36 37 38 40 42 45 46 43 40 37 31 28
31 31 30 30 31 32 34 36 38 41 44 46 48 46 38 44 44 45 45 44 43 40 38 36 34 32 32 32 33 34 35 36 38 39 40 42 43 46 46 44 40 33 27 25
29 28 29 30 31 32 33 35 36 39 41 44 44 44 38 41 44 44 45 45 43 40 38 35 34 32 32 32 33 35 36 38 40 41 42 43 44 44 44 43 39 33 30 27
27 27 28 29 30 32 33 34 34 35 38 37 39 40 35 43 42 41 41 41 39 37 34 33 32 32 32 33 34 35 37 39 40 42 42 42 41 41 41 40 39 35 32 29
20 21 24 26 27 29 31 32 33 27 26 27 35 33 36 39 36 35 35 34 32 30 29 28 27 28 30 31 33 35 36 38 40 40 40 39 39 39 40 40 39 37 35 34
14 15 19 23 25 28 30 31 30 30 27 23 23 30 36 33 31 30 29 28 26 25 23 22 22 23 25 27 30 32 34 36 38 38 38 38 38 39 40 40 40 39 38 37
12 13 15 20 23 26 28 28 30 31 28 24 23 25 26 29 28 27 26 25 24 23 22 22 22 23 25 27 29 31 33 35 36 37 38 38 39 39 40 40 40 39 38 38
11 12 13 16 19 21 25 28 30 29 26 23 20 20 26 27 26 25 24 23 23 24 24 25 26 27 28 30 31 33 34 36 37 37 38 39 40 40 40 40 41 41 41 42
11 11 13 15 18 20 23 26 28 29 28 27 23 24 26 25 24 23 23 23 24 24 25 27 28 30 31 33 34 35 36 37 38 38 39 40 41 42 42 43 44 45 45 46
12 12 12 14 18 21 24 26 29 30 29 27 24 28 28 27 26 25 25 26 26 27 27 28 30 31 33 34 35 36 37 38 39 39 40 42 43 44 45 47 48 48 49 49
15 16 17 18 19 22 23 26 28 29 28 28 28 32 31 30 30 30 30 30 31 31 31 32 33 35 36 38 39 40 41 41 42 43 44 45 45 47 49 50 51 52 51 51
16 19 21 24 25 25 26 27 28 31 32 32 33 34 35 34 34 34 34 35 36 36 37 38 39 40 41 43 43 44 44 45 45 45 46 46 48 50 51 53 53 52 52 53
15 19 21 24 26 28 29 30 31 32 33 35 36 37 37 37 37 37 38 39 40 41 41 42 44 45 46 46 46 46 46 45 45 46 47 48 50 51 52 52 52 52 52 53
14 16 18 21 24 26 29 32 32 34 34 35 37 38 38 38 39 39 40 41 43 43 44 44 45 45 45 44 43 42 42 43 44 46 48 50 51 51 51 51 52 53 53 53
13 14 16 18 19 23 29 29 31 33 35 36 37 37 38 38 39 39 39 39 40 40 40 39 39 40 40 40 40 41 42 43 45 47 49 50 50 51 51 51 52 52 52 52
14 14 14 15 17 20 24 25 28 30 33 33 35 35 35 36 37 37 37 37 38 36 36 36 37 38 37 38 39 40 42 44 46 48 49 49 49 50 50 50 50 51 51 51
14 13 12 13 14 18 19 19 21 24 27 28 29 30 30 30 32 32 33 33 33 32 32 34 35 37 39 40 41 42 44 45 46 46 47 47 48 48 49 49 50 50 49 49
13 12 11 11 13 15 14 15 17 20 22 23 24 25 26 28 28 28 28 29 31 32 33 35 36 38 39 40 41 42 42 43 44 45 46 47 47 48 48 47 47 46 46 46
13 12 11 11 12 13 12 13 16 19 20 21 22 22 23 24 25 27 28 29 30 31 32 33 35 36 37 38 39 41 42 43 43 44 44 44 43 43 43 43 43 43 43 44
13 11 11 11 11 11 11 12 14 16 18 20 21 22 23 24 25 26 27 29 30 31 32 33 34 35 36 38 39 39 39 40 40 40 39 39 39 39 40 40 41 41 42 42
13 12 11 11 11 11 11 12 13 15 17 19 20 21 22 24 25 26 27 28 29 30 31 32 33 34 34 35 35 35 35 35 35 35 36 37 37 38 38 38 38 38 38 37
13 12 11 11 12 12 13 13 14 15 16 18 19 21 22 24 25 25 26 26 26 27 27 28 29 29 29 29 30 30 30 31 32 34 34 35 36 35 35 35 34 33 32 31
13 12 11 11 11 12 13 13 14 15 16 17 19 20 21 21 21 21 21 21 21 21 22 22 23 23 24 25 25 27 28 30 31 32 33 33 32 31 30 29 28 27 25 24

GEFSCGP_500_meanwind_030.txt.gz
Wind_Speed
36 37 37 36 33 29 23 18 18 18 19 21 20 22 21 19 22 22 22 21 22 20 21 23 22 23 21 19 19 20 24 26 27 29 30 31 32 32 34 35 36 36 37 37
34 36 36 35 33 31 29 26 22 18 19 23 23 25 25 22 20 23 24 24 24 24 24 25 24 25 24 22 22 24 27 29 31 32 32 33 33 33 34 35 36 37 38 37
32 31 34 34 33 32 32 29 25 20 20 27 29 29 30 28 25 26 28 27 25 27 27 27 27 27 27 27 27 28 29 32 33 34 34 34 34 34 35 37 38 38 38 38
29 27 28 32 33 33 34 32 30 27 25 28 32 31 29 29 30 30 30 30 32 31 29 29 30 30 31 31 32 32 32 34 35 35 35 35 35 36 37 38 39 39 39 39
26 28 28 30 32 33 33 31 31 33 32 31 30 30 26 25 29 31 33 35 35 32 31 32 34 34 34 35 35 35 35 36 36 36 36 35 36 37 38 39 40 40 40 39
21 24 27 27 29 31 30 27 26 30 33 37 35 32 27 24 27 31 37 39 37 35 34 34 35 36 37 38 38 38 37 36 36 36 36 36 37 38 40 41 40 41 41 38
21 21 24 27 27 28 29 27 26 28 33 35 31 32 31 30 33 36 40 42 40 38 36 35 36 38 38 38 38 38 37 37 37 37 37 38 39 40 41 42 41 41 40 39
14 18 21 25 28 26 28 28 27 21 16 17 20 24 27 34 37 38 40 42 43 43 41 40 39 38 37 36 36 36 36 37 38 38 39 40 41 42 42 42 42 42 41 40
13 12 16 20 23 25 24 26 26 24 21 18 14 22 29 33 36 38 41 44 46 46 45 43 40 37 35 34 34 34 35 36 37 38 39 40 41 42 42 43 43 43 42 42
14 13 11 14 17 22 24 21 22 27 26 21 13 19 30 32 32 33 35 40 43 44 43 41 37 34 33 32 32 33 34 36 37 38 39 40 42 42 43 44 44 44 44 44
14 14 13 13 13 15 20 23 23 23 25 23 18 21 26 29 32 31 31 31 33 35 36 35 33 32 31 32 32 33 34 35 36 38 39 40 42 43 44 45 46 47 47 47
16 17 15 15 14 13 17 20 22 24 24 25 23 25 30 31 30 29 30 30 29 29 30 30 31 31 31 32 33 34 35 36 37 38 40 42 43 45 46 48 49 50 51 51
12 14 14 13 15 18 18 18 21 23 25 26 25 28 32 32 32 32 31 30 29 28 29 29 30 31 32 34 35 36 37 38 39 41 42 44 46 47 49 51 52 53 53 53
11 14 16 16 16 21 24 24 23 23 26 26 27 31 33 32 34 34 33 31 30 30 30 31 32 33 34 35 37 38 39 41 42 44 45 47 49 50 52 53 54 54 54 54
9 12 17 18 17 16 17 21 24 26 27 27 29 34 38 37 36 36 35 33 32 32 33 34 36 37 38 39 40 41 42 44 45 47 49 51 52 53 54 55 55 55 55 55
7 10 13 15 15 17 18 19 20 21 24 28 31 35 38 40 39 38 36 33 32 33 35 37 39 41 42 43 44 45 47 48 49 50 51 52 53 53 53 53 53 53 53 54
6 8 10 13 14 15 20 24 24 26 27 28 31 32 34 34 37 36 33 30 32 34 36 38 40 41 42 44 46 47 49 50 51 51 51 51 51 50 50 50 50 51 53 54
8 8 9 10 13 16 23 24 26 27 30 31 33 36 38 39 37 36 36 37 38 37 38 39 40 40 41 41 42 42 43 45 45 45 45 45 46 46 46 47 48 50 51 52
12 11 10 10 11 16 21 22 24 26 29 30 32 35 38 40 42 41 40 40 39 38 38 38 38 38 38 38 38 38 39 40 41 40 40 42 44 45 45 46 47 49 50 50
13 13 12 12 13 18 21 21 21 23 27 27 29 30 32 34 36 36 35 35 34 34 35 36 37 37 37 38 39 40 40 40 40 40 42 43 44 45 45 46 47 48 48 49
15 15 15 15 15 18 18 20 19 21 23 23 24 25 26 27 29 29 30 30 31 31 31 32 32 33 34 36 37 38 38 39 40 41 42 43 44 44 45 45 46 46 46 46
15 15 16 16 17 17 17 17 18 19 20 21 22 22 23 24 24 25 25 26 27 28 30 31 31 32 34 35 36 37 38 39 40 41 42 42 42 42 43 43 43 44 44 44
16 16 17 17 17 17 16 16 16 17 18 19 20 20 20 21 21 22 23 24 26 27 29 30 31 33 34 34 35 36 37 38 39 39 39 40 40 40 41 41 41 41 42 42
18 16 17 18 18 17 16 15 15 16 17 17 18 19 18 19 20 20 22 23 25 26 27 28 29 30 31 32 33 34 34 35 36 37 37 38 38 39 39 39 39 39 39 38
19 18 18 18 17 16 15 14 15 15 16 16 17 18 18 19 20 20 22 23 23 24 25 25 26 27 28 29 30 32 33 34 35 36 37 37 37 37 36 36 35 34 33 31
18 18 17 17 16 16 14 14 14 14 15 15 16 17 17 18 19 20 21 21 21 21 21 22 23 25 27 28 30 31 33 34 34 35 34 34 33 32 31 29 28 27 25 23

GEFSCGP_500_meanwind_036.txt.gz
Wind_Speed
27 30 31 32 33 33 32 29 26 23 22 21 19 19 22 27 29 27 27 27 25 25 24 24 23 21 19 18 17 15 15 15 15 17 19 20 21 22 22 21 22 22 21 21
26 27 28 31 32 33 32 30 26 23 23 22 21 21 23 26 26 25 25 26 27 26 25 25 24 23 21 20 17 17 15 17 19 21 24 25 26 27 26 26 26 26 25 24
24 24 27 30 31 32 33 31 27 24 24 23 23 25 27 28 27 27 26 27 28 28 28 26 24 25 23 21 22 22 20 21 23 25 26 29 30 31 31 31 30 30 28 27
23 24 27 29 30 30 31 31 29 27 26 24 25 27 29 29 28 29 29 28 28 28 29 29 29 27 26 26 25 24 23 25 26 28 30 32 33 34 34 34 33 31 30 29
22 23 25 28 29 30 29 30 30 29 28 27 27 29 30 31 31 31 31 30 30 30 30 30 30 30 29 29 28 28 28 30 30 32 34 35 36 36 36 36 34 32 31 31
22 23 24 24 26 28 29 31 32 31 30 29 29 30 31 32 33 34 33 32 32 32 32 33 33 33 33 32 32 32 34 35 36 37 37 36 37 37 36 36 36 35 34 33
21 23 23 23 24 26 28 31 33 33 32 31 29 31 32 32 33 35 36 36 36 35 35 35 35 35 35 35 36 37 38 39 40 40 40 39 39 38 38 37 36 35 33 31
19 20 21 22 22 23 25 29 32 33 34 33 30 32 33 31 31 33 36 38 39 38 37 37 37 37 38 39 40 41 42 42 43 43 42 41 39 38 37 37 34 33 33 34
17 16 17 17 18 19 21 24 28 31 34 34 34 36 35 33 32 34 36 38 39 39 38 38 38 39 41 43 44 44 45 46 45 45 43 41 39 38 36 35 35 35 35 36
15 16 16 16 17 18 19 21 24 28 31 33 34 35 37 35 34 35 36 37 39 39 39 39 40 41 42 43 45 46 47 47 46 45 44 41 40 38 38 37 37 37 37 38
14 16 17 17 17 17 18 22 25 27 29 30 32 34 37 36 33 32 33 35 38 40 40 40 41 41 42 43 45 46 47 47 46 45 43 42 41 40 39 39 40 40 40 41
12 16 17 19 18 18 20 23 25 27 29 30 33 37 38 36 34 31 31 32 36 39 40 41 42 43 43 44 45 45 45 45 44 43 43 42 42 43 43 43 43 43 44 45
9 13 17 20 20 21 22 23 26 28 29 30 33 37 38 38 35 33 32 31 33 36 39 42 43 45 45 46 45 43 42 42 42 43 43 44 45 46 46 47 47 48 49 50
9 11 14 18 20 22 24 25 26 28 29 31 34 38 39 39 38 37 36 35 34 35 35 39 41 43 45 45 45 44 43 43 43 44 45 46 47 48 49 50 51 52 53 54
6 9 12 14 17 21 24 26 25 28 29 31 34 37 40 40 39 38 37 35 35 36 37 37 39 41 44 44 43 43 42 43 44 46 47 48 50 51 52 53 54 55 56 57
4 6 8 11 14 16 18 21 23 24 28 30 33 36 39 40 40 40 39 37 35 34 35 37 37 37 39 41 41 41 41 42 43 45 46 47 49 50 52 53 55 56 56 57
2 4 6 9 11 12 14 16 18 20 23 26 30 33 36 38 37 37 35 34 34 33 32 34 35 37 37 37 37 38 40 42 43 44 45 45 46 48 49 50 52 53 54 54
5 4 5 8 10 12 11 12 15 18 20 22 25 27 30 32 33 32 32 32 32 30 29 29 29 30 32 34 37 39 41 41 42 43 45 46 46 47 47 47 48 48 49 48
7 7 7 8 9 10 12 14 15 17 19 20 22 23 25 27 29 29 28 28 28 28 27 27 28 29 30 32 34 36 38 40 41 42 44 45 46 46 47 47 46 46 46 46
10 9 9 9 10 10 11 14 15 16 18 18 19 19 19 20 21 23 23 23 24 24 25 25 27 27 28 29 31 34 36 39 40 41 42 43 43 43 43 43 43 44 44 45
13 12 12 11 11 11 11 13 15 16 16 17 17 17 17 17 17 17 18 19 20 21 22 23 24 26 28 29 30 32 33 35 36 38 39 39 40 40 40 41 42 42 43 43
14 13 13 13 12 11 12 12 13 14 14 15 14 14 14 14 15 15 16 17 18 18 20 21 23 25 26 28 29 30 32 33 34 35 36 37 37 38 39 39 40 40 41 41
15 15 14 13 12 11 12 12 12 12 12 12 11 11 12 12 13 14 15 16 17 18 19 21 22 23 24 25 27 28 29 30 31 32 34 35 36 36 37 37 38 38 37 37
17 17 16 14 12 11 11 11 11 11 10 10 10 10 10 11 11 12 13 14 16 17 18 20 21 21 22 24 25 26 27 28 29 31 32 33 33 33 34 33 33 33 33 33
20 20 18 16 14 12 11 11 11 10 9 8 8 9 9 9 10 11 12 14 15 16 17 18 19 20 21 22 23 24 25 27 28 29 29 29 29 30 29 29 28 28 27 26
20 20 19 17 15 14 13 11 10 9 8 8 8 8 8 9 10 11 12 13 14 15 16 17 18 18 19 19 20 22 23 24 25 25 25 25 24 23 22 22 22 20 19 18

GEFSCGP_500_meanwind_042.txt.gz
Wind_Speed
21 24 25 26 28 30 32 31 30 29 29 29 29 31 34 36 37 38 37 34 30 27 25 22 20 18 17 17 16 16 18 19 20 20 19 19 20 21 21 22 22 22 23 23
21 21 23 26 28 29 30 30 29 29 29 29 30 30 33 36 36 35 35 34 31 28 26 25 22 20 19 16 15 14 15 18 21 21 21 23 23 23 23 23 24 25 25 26
21 20 23 25 28 29 29 29 28 28 29 28 27 28 31 34 35 34 34 34 32 30 27 25 24 22 19 17 16 16 16 18 21 22 23 24 25 26 25 24 25 26 27 28
20 21 22 24 26 28 28 28 28 28 30 29 27 26 28 30 32 32 32 33 33 31 28 27 25 24 21 19 19 19 19 19 21 23 25 26 26 26 27 28 27 28 29 30
20 22 23 23 24 26 26 28 28 29 29 29 28 26 26 27 29 30 30 30 31 31 29 27 27 25 23 23 23 23 23 24 25 27 29 29 29 30 31 30 30 29 29 29
20 22 22 22 24 26 27 29 29 30 30 29 28 28 28 28 28 28 29 29 30 31 30 29 28 27 27 26 26 25 26 26 28 30 31 32 32 33 33 33 32 31 30 30
17 20 21 22 24 25 27 28 29 30 30 30 29 29 30 30 30 30 30 30 31 32 32 31 31 31 31 30 30 29 29 30 31 34 34 34 36 37 36 36 34 33 32 32
13 17 19 20 21 23 26 27 28 29 30 30 30 31 31 31 32 32 32 32 33 33 33 33 32 32 32 31 32 32 32 34 35 37 38 39 40 40 39 39 38 35 35 35
12 16 18 20 21 22 24 26 27 28 29 30 32 32 33 33 34 34 34 35 35 35 35 35 35 35 34 35 36 37 37 38 40 41 41 41 41 40 40 40 39 37 36 35
13 15 18 19 21 22 23 25 27 28 28 29 32 33 33 34 34 36 37 37 38 39 39 39 39 39 39 40 41 42 42 42 43 44 44 45 45 44 44 42 40 39 38 37
12 15 17 19 21 21 22 23 25 27 28 29 31 33 34 35 36 37 37 38 39 40 41 41 41 42 43 43 44 45 45 46 46 45 45 46 46 45 44 42 41 41 41 40
10 13 15 18 19 20 21 22 23 25 26 28 30 32 34 36 37 38 38 39 41 42 43 43 44 44 44 44 45 46 47 48 48 48 47 46 45 45 45 45 44 44 43 43
8 11 13 15 17 18 20 21 22 23 25 27 29 32 32 34 36 37 38 40 41 42 44 44 45 45 45 45 46 46 47 47 48 47 46 47 47 46 46 46 45 45 46 46
5 9 10 13 15 16 18 19 21 22 25 26 29 31 32 33 35 36 38 40 41 42 43 43 44 44 45 43 43 43 44 45 46 47 47 47 47 47 46 46 46 47 49 50
0 4 8 10 12 15 17 19 20 23 25 27 29 30 32 34 36 37 38 39 40 40 41 42 43 42 41 40 41 40 41 42 43 43 44 45 46 46 46 46 47 48 49 50
4 2 3 7 10 13 16 18 21 23 26 28 30 32 32 33 34 35 37 38 38 39 39 40 40 39 38 36 37 38 38 37 37 38 38 39 41 43 45 46 47 47 48 50
6 5 4 4 7 10 12 14 17 20 23 26 28 29 30 31 32 33 34 35 35 35 36 36 34 33 34 33 32 32 33 32 33 34 35 36 38 40 41 44 45 46 48 49
7 7 6 6 8 9 11 13 15 18 20 22 24 25 26 27 27 28 29 30 31 31 31 32 31 30 30 30 29 29 29 30 31 33 34 36 38 40 42 44 46 48 50 51
8 8 7 8 8 10 11 13 14 16 18 19 20 22 23 24 24 24 24 24 24 25 26 27 27 27 27 26 27 28 29 31 32 33 34 36 38 40 42 43 46 48 49 51
9 9 9 9 10 11 11 13 14 15 16 16 17 18 18 19 20 20 20 20 20 21 22 22 22 23 23 23 25 27 28 30 32 33 34 36 37 39 40 42 44 45 47 48
12 12 12 12 13 13 13 14 14 14 14 14 14 14 13 14 15 16 16 16 16 17 17 17 18 19 21 22 24 25 27 29 30 32 33 35 36 38 39 41 43 44 45 46
14 14 14 14 14 14 15 14 14 13 13 12 12 12 11 11 12 13 13 14 14 14 15 15 16 18 19 20 22 23 25 26 27 29 30 32 34 36 38 40 41 42 43 43
14 15 15 15 15 15 14 13 13 12 12 11 10 10 10 10 11 11 11 12 12 13 13 14 15 17 18 19 20 21 22 23 24 26 28 30 32 34 35 36 37 37 37 37
15 16 17 17 16 16 15 14 13 12 11 10 9 8 8 9 9 9 10 10 11 12 12 13 14 15 16 17 18 19 19 21 23 24 26 27 29 30 32 32 32 32 31 31
17 17 17 17 17 16 15 14 12 11 10 9 8 7 7 7 8 8 9 10 10 11 12 13 13 14 15 15 16 16 17 19 21 22 23 25 26 28 28 27 27 26 25 24
18 18 18 18 17 16 14 13 11 9 8 8 7 7 7 7 7 7 8 9 10 11 12 12 13 13 13 14 14 15 16 18 19 20 21 23 24 25 25 24 23 22 20 19

GEFSCGP_500_meanwind_048.txt.gz
Wind_Speed
14 16 19 22 23 25 26 26 26 29 30 29 27 26 27 29 29 31 33 35 34 32 30 28 27 26 25 24 23 23 24 24 23 21 21 21 22 23 24 25 25 27 29 31
14 15 18 21 23 24 24 24 25 27 28 28 27 25 26 28 29 31 33 35 35 34 32 30 30 28 27 27 25 25 25 26 25 25 25 26 26 26 27 28 28 30 32 34
14 16 17 19 22 23 23 24 25 27 28 27 25 24 26 28 29 30 32 34 34 34 33 32 31 31 29 29 27 26 27 27 27 28 29 28 28 28 29 30 31 33 34 35
14 16 17 18 21 22 22 23 25 26 26 25 25 21 26 27 29 30 31 32 32 33 33 34 33 33 32 31 29 29 29 29 29 31 31 30 30 31 32 33 33 34 35 35
13 15 16 17 18 21 22 24 24 25 26 26 26 23 24 26 28 29 30 31 31 32 34 35 35 34 34 34 33 31 32 32 32 33 33 33 33 33 34 35 35 35 35 36
12 14 15 16 17 20 22 23 23 24 24 24 26 24 24 25 25 26 28 29 30 31 33 35 36 36 35 34 33 34 35 33 33 34 35 36 37 36 36 35 36 36 36 36
8 10 13 15 16 18 21 21 19 20 21 21 26 25 26 25 23 23 24 26 27 28 30 32 34 35 36 35 34 34 34 34 34 35 36 38 38 37 36 37 37 37 38 39
5 6 11 13 15 17 19 21 17 14 17 20 25 26 27 25 23 23 23 24 25 26 26 28 31 33 34 35 36 35 35 35 35 36 37 38 38 39 40 39 39 38 39 40
6 6 10 11 14 17 19 19 20 19 17 17 23 26 26 25 24 23 24 24 25 25 26 27 29 31 33 35 36 37 37 38 39 40 41 41 41 43 43 42 42 42 42 43
6 7 8 10 12 15 18 19 21 18 14 16 21 25 26 26 25 25 25 26 26 27 28 29 31 32 34 36 37 38 39 41 42 43 43 42 43 44 44 45 45 44 46 46
4 7 8 10 12 13 15 17 18 17 16 14 16 22 25 26 25 25 27 28 28 29 30 31 32 34 36 37 38 39 41 42 43 44 44 45 46 46 47 46 47 48 48 49
3 6 8 9 11 13 15 16 17 15 17 18 15 20 22 24 25 27 28 29 30 32 32 34 34 35 37 38 38 40 41 42 44 45 46 47 47 47 48 48 49 49 49 49
3 5 5 6 9 11 13 15 16 17 17 17 17 22 23 24 26 27 29 31 32 34 35 36 37 39 40 41 41 43 44 45 46 46 46 46 46 47 48 49 50 49 50 50
2 5 7 8 9 11 12 14 15 16 15 17 20 24 24 25 27 28 30 31 32 34 36 37 38 39 40 41 42 43 44 45 45 45 44 45 45 46 46 47 48 49 49 50
2 3 5 6 8 10 12 14 15 17 19 21 23 24 25 26 27 28 29 31 32 33 34 35 36 38 39 40 40 41 41 42 42 42 42 42 42 42 43 44 45 45 46 48
4 2 2 4 7 9 11 14 16 18 20 22 24 25 26 26 27 28 29 30 31 32 33 33 34 35 35 36 36 37 37 38 38 39 40 41 41 42 42 42 42 42 44 46
6 4 2 2 5 7 10 12 15 17 19 21 23 24 25 25 26 27 28 28 28 29 29 30 30 31 32 32 33 33 34 34 35 36 37 38 38 39 40 39 40 42 43 45
8 6 4 3 4 7 8 11 13 16 18 20 21 22 23 23 24 25 26 26 26 26 26 27 28 28 29 30 30 31 32 32 33 34 35 36 36 37 38 39 40 42 43 45
9 8 6 6 6 7 9 11 13 15 17 18 19 20 21 22 23 24 24 24 23 23 24 25 26 26 26 27 27 28 29 30 31 32 33 34 35 37 38 39 39 41 42 44
9 9 8 7 8 9 10 11 13 14 15 15 16 17 17 18 19 19 19 20 21 20 20 21 22 22 22 23 25 26 27 27 28 29 29 30 31 33 34 35 36 38 40 42
10 10 9 9 9 9 11 11 12 12 13 13 14 14 14 14 14 15 15 16 16 16 17 18 19 19 20 21 22 23 23 24 25 25 26 27 28 30 31 33 34 36 38 39
11 11 11 11 11 11 12 11 11 12 12 11 11 10 11 11 11 12 12 12 13 14 15 15 16 17 18 19 19 20 21 22 22 23 24 24 26 27 28 29 31 32 34 35
12 12 12 12 12 12 12 11 11 10 10 9 8 8 7 8 9 9 10 10 10 11 12 13 14 16 17 17 18 18 19 19 20 20 20 22 23 24 25 27 28 29 31 31
12 13 13 13 14 14 13 12 11 10 8 7 7 7 6 6 6 6 7 8 9 10 11 12 13 14 15 15 16 16 17 17 18 18 18 19 21 22 23 25 26 26 26 26
12 13 14 15 15 14 13 12 11 9 8 7 7 6 6 6 6 6 6 7 8 9 10 11 12 12 13 14 14 14 14 14 15 16 17 18 19 20 21 22 22 22 21 20
12 13 15 15 16 15 14 13 11 9 8 7 7 6 6 6 6 6 6 7 8 9 10 11 11 12 12 13 13 13 13 13 14 14 15 16 17 18 19 19 18 18 17 16

GEFSCGP_500_meanwind_054.txt.gz
Wind_Speed
11 10 10 9 11 14 13 13 13 13 18 19 20 22 24 23 25 26 26 26 29 31 33 34 33 29 26 23 20 19 20 20 20 20 21 21 22 23 24 25 25 25 26 26
6 7 9 11 14 17 16 15 15 16 17 18 19 22 24 24 25 27 28 27 31 33 36 35 32 29 29 26 23 21 21 21 21 21 23 25 26 27 27 28 29 29 29 29
8 9 11 13 15 18 19 18 16 14 14 17 20 22 24 26 27 28 29 29 33 34 33 34 31 30 27 26 24 23 23 23 23 23 23 26 28 29 29 30 31 32 33 33
11 12 13 13 15 16 15 15 16 15 15 15 17 20 24 26 29 30 31 32 31 31 32 29 28 30 28 27 26 24 24 25 26 25 26 27 28 30 31 33 35 36 34 34
9 11 13 13 12 13 13 13 15 16 17 18 18 19 21 24 27 29 30 30 30 30 29 29 29 30 30 29 28 27 27 28 28 29 29 31 32 33 34 35 36 37 37 37
10 11 12 11 12 13 14 14 15 15 17 19 19 20 23 24 25 28 29 28 28 27 28 28 28 30 30 30 31 30 30 31 31 31 32 34 35 37 37 37 38 38 38 36
8 10 10 11 13 13 14 15 12 11 14 16 16 21 28 27 23 24 27 27 27 27 27 27 29 30 31 32 32 32 33 34 34 35 36 36 38 39 40 39 38 37 37 35
12 10 10 9 10 11 13 16 16 13 13 13 16 25 29 29 24 22 23 25 26 27 27 28 29 30 31 33 34 36 37 37 37 37 39 39 39 40 41 41 40 39 39 40
9 7 10 11 10 11 12 16 16 16 15 16 21 28 29 28 25 23 23 23 24 26 27 28 30 31 33 34 36 38 39 38 38 39 39 39 40 42 43 43 42 42 42 42
7 6 8 9 10 13 13 14 14 16 14 16 22 26 26 25 25 25 25 26 27 27 27 28 29 30 32 34 35 37 38 38 39 40 40 40 41 42 42 42 42 43 43 45
4 7 9 9 11 11 15 17 17 16 15 14 16 20 26 26 25 25 26 27 28 28 27 27 28 29 31 33 34 35 36 38 39 40 41 41 42 44 44 44 45 46 47 47
4 4 8 10 11 12 13 15 18 19 17 14 15 19 17 18 19 20 23 25 27 29 29 29 30 30 31 33 34 35 37 38 39 41 42 42 43 44 45 45 46 48 48 49
2 4 5 8 11 12 11 13 17 21 20 18 18 22 19 15 14 15 18 21 24 27 29 30 31 32 34 35 36 36 37 38 40 41 42 44 44 45 45 46 48 48 49 50
1 1 4 8 10 11 10 10 13 17 21 22 23 25 24 20 17 17 18 21 24 26 28 30 32 33 34 35 36 37 38 39 41 42 43 44 44 45 47 48 49 49 49 50
1 2 3 2 4 5 6 9 13 16 21 23 24 24 23 22 19 19 20 22 24 26 28 30 32 33 34 35 36 37 38 39 40 41 43 44 45 46 46 47 48 48 48 49
3 4 4 3 1 1 6 10 14 17 20 23 24 26 26 26 24 23 23 24 25 27 29 30 31 32 33 34 36 37 37 38 39 40 41 42 43 43 44 45 46 46 47 48
5 5 4 3 1 4 8 10 12 15 18 21 24 25 27 27 26 26 25 25 26 27 28 29 30 31 32 33 33 34 35 37 37 38 38 39 40 40 41 41 43 44 45 46
7 6 5 3 3 6 8 10 13 15 17 21 23 26 27 27 27 27 27 26 26 26 27 28 29 30 30 30 32 33 34 34 34 35 35 36 36 37 38 39 40 41 42 43
7 7 6 6 7 9 11 12 15 17 18 20 21 23 24 25 26 26 25 25 25 26 26 26 26 26 26 27 27 29 29 30 31 31 32 33 33 34 34 35 36 37 38 39
8 7 7 7 9 10 12 14 16 18 17 18 19 20 21 22 21 21 21 21 22 22 23 23 23 23 24 24 25 25 26 26 27 27 28 28 29 30 31 32 33 34 34 36
8 8 8 10 11 12 14 16 17 17 17 18 18 17 17 17 17 17 17 17 18 18 19 19 19 20 21 21 22 22 23 23 24 24 24 25 25 26 27 28 29 30 31 31
7 8 9 11 12 14 16 16 16 16 17 16 15 14 14 13 13 13 13 13 14 14 15 15 16 16 17 18 19 19 19 20 20 21 22 22 23 23 23 24 25 26 27 28
7 9 10 12 13 14 15 15 15 15 14 14 12 11 11 10 10 11 11 11 12 12 13 13 13 14 15 15 16 17 17 18 18 18 19 19 19 20 21 22 23 23 24 24
6 9 10 12 14 15 15 15 15 14 14 13 12 10 10 9 9 9 9 9 9 10 11 12 12 13 14 15 15 15 15 15 15 15 16 16 17 18 19 19 20 20 19 19
7 9 11 13 15 16 16 16 16 15 14 13 12 11 10 9 8 8 8 8 9 10 11 12 12 13 13 13 14 14 14 14 14 14 14 15 16 16 16 17 16 15 15 15
7 9 12 14 16 17 17 17 17 16 14 13 12 11 10 9 8 8 8 8 9 9 10 11 12 12 12 12 12 12 13 13 13 13 13 14 14 14 14 13 12 12 12 12

GEFSCGP_500_meanwind_060.txt.gz
Wind_Speed
13 13 13 12 12 14 14 15 15 15 14 14 16 18 22 26 30 33 35 36 35 32 31 31 30 29 28 27 27 26 23 21 20 20 20 20 19 20 20 19 19 19 20 21
12 12 12 13 12 14 15 14 13 15 14 13 15 18 20 24 27 29 31 33 34 33 32 32 32 31 31 32 31 27 25 24 23 22 22 22 21 20 20 20 20 21 22 23
11 11 11 12 12 13 15 13 12 14 15 14 16 18 18 22 24 26 28 30 31 31 31 32 32 31 32 33 31 30 27 25 24 25 24 22 21 20 21 21 22 23 24 25
10 10 10 10 11 12 13 13 13 14 16 17 17 17 18 20 21 23 25 27 28 28 30 31 32 32 31 31 31 30 29 28 27 26 25 25 24 24 24 24 25 25 26 26
10 11 11 11 10 12 12 15 15 16 16 18 19 19 19 20 21 22 23 24 26 27 28 30 31 32 32 33 34 32 30 29 27 26 27 27 27 26 25 26 27 26 26 26
11 11 12 11 11 12 12 15 17 18 18 17 18 21 20 19 20 21 24 25 27 27 29 30 32 33 33 33 31 30 29 28 27 27 28 28 28 27 27 27 27 26 27 28
13 12 11 11 12 13 13 14 16 17 18 17 18 20 21 22 20 21 23 25 26 28 29 30 31 32 32 32 29 27 28 28 27 27 28 28 29 29 28 28 28 27 28 29
13 9 9 11 13 14 14 14 14 16 17 18 20 22 22 22 22 23 23 24 25 26 28 28 29 30 29 29 29 28 27 27 28 29 29 29 30 31 30 29 28 29 29 30
11 8 7 10 13 13 14 13 14 16 17 17 19 21 21 22 23 24 25 24 24 26 26 27 28 28 28 28 28 28 29 29 30 31 31 30 31 31 32 31 31 31 32 32
9 6 5 9 11 12 13 13 14 16 17 16 17 20 22 21 21 24 24 25 25 25 25 25 26 27 27 27 28 28 29 30 30 30 30 31 31 31 32 32 32 33 34 34
6 4 4 9 11 12 14 14 14 14 14 15 16 16 18 20 21 22 22 22 25 26 25 25 25 25 26 27 28 29 30 31 31 32 32 33 33 33 33 33 34 35 36 37
5 3 3 7 10 12 13 13 14 15 15 16 17 16 13 14 14 15 18 20 22 24 25 26 27 27 27 28 29 29 30 31 32 32 33 33 33 34 34 35 36 37 38 39
5 2 3 8 10 12 14 13 13 13 14 16 17 17 16 15 15 15 15 16 18 20 22 25 26 27 28 29 29 30 31 31 32 33 34 34 35 35 36 37 38 39 40 41
5 1 3 6 8 11 13 12 12 12 15 17 18 19 19 19 18 18 17 17 18 20 22 23 24 26 28 28 29 30 31 32 33 33 34 35 36 37 37 38 39 40 41 42
5 2 1 5 7 9 10 9 10 12 14 16 17 18 19 19 19 19 18 17 16 18 22 22 23 25 27 28 30 31 31 32 33 33 34 35 35 36 37 38 39 41 41 42
5 3 1 4 6 6 7 7 9 12 14 15 17 18 19 20 20 20 19 19 18 19 21 22 23 25 27 28 28 29 30 31 31 32 32 33 34 35 36 37 38 39 40 40
4 3 2 1 2 4 4 5 7 10 12 14 16 17 18 19 19 18 19 19 19 20 21 22 23 25 26 27 28 28 29 29 29 30 31 32 33 34 35 35 36 36 37 37
4 3 3 4 4 3 3 5 6 9 11 14 15 16 17 17 18 18 18 19 19 19 20 21 22 23 24 26 26 27 27 27 28 28 29 29 30 30 31 32 33 33 33 34
4 5 5 5 6 5 7 9 10 11 13 15 16 17 18 17 17 16 15 16 16 17 17 18 20 21 22 23 24 24 24 25 25 25 26 26 27 28 29 29 29 29 30 31
6 6 7 8 9 9 11 12 13 14 14 16 16 17 16 16 15 14 13 13 14 14 15 16 17 19 20 21 22 22 22 23 23 24 24 24 24 24 24 25 25 26 27 28
6 7 9 10 11 12 13 14 15 16 16 16 16 15 14 13 12 11 11 12 13 14 14 14 15 16 16 17 18 19 20 20 21 21 21 21 21 21 22 22 23 23 24 25
6 7 9 11 12 13 14 15 15 16 15 15 14 12 12 11 11 11 10 10 11 12 13 13 13 14 14 15 16 17 17 18 18 18 19 19 19 20 20 21 21 20 20 20
5 7 8 11 12 13 14 15 15 15 14 14 13 12 11 10 10 9 9 9 9 10 10 11 12 12 13 14 15 15 15 16 16 17 17 17 18 18 17 17 17 16 15 15
4 6 9 11 12 13 15 16 16 16 15 13 13 12 11 10 10 9 8 8 8 8 8 9 10 11 12 13 14 14 15 15 15 15 15 15 15 14 13 13 13 12 12 11
5 6 9 10 12 14 16 17 17 17 16 14 13 12 11 10 9 8 8 7 7 7 7 8 9 10 11 11 12 12 13 14 14 14 14 13 12 11 11 11 11 10 10 9
4 6 8 11 13 15 17 18 18 17 17 15 14 12 11 11 10 9 8 8 8 8 8 8 8 9 10 10 11 11 11 12 12 11 11 10 10 10 9 9 9 8 8 8

GEFSCGP_500_meanwind_066.txt.gz
Wind_Speed
19 18 18 19 19 20 21 19 18 18 20 22 23 23 23 24 28 31 32 33 33 33 31 29 26 25 24 24 24 23 23 24 22 22 23 23 25 26 26 25 25 25 25 25
16 16 17 17 18 18 19 19 18 18 20 22 21 21 21 22 25 27 30 32 32 33 32 32 31 29 27 25 25 25 26 26 24 23 23 25 26 28 28 27 27 27 27 28
14 15 16 16 17 18 18 18 18 18 20 21 20 20 20 20 22 23 26 29 31 32 33 33 32 31 29 28 27 26 27 28 26 26 27 28 29 29 29 29 29 28 29 30
13 14 15 16 17 18 17 17 18 18 19 20 20 19 17 18 19 21 23 25 28 30 32 33 32 31 30 30 29 28 28 29 28 29 30 31 31 30 31 32 32 31 30 30
12 14 15 16 16 17 16 17 18 18 19 20 19 18 16 17 18 19 21 23 25 26 29 30 30 29 29 29 29 28 28 28 29 30 31 31 30 30 32 31 32 32 32 31
13 14 16 16 16 17 17 17 18 18 18 18 17 17 16 16 17 18 19 21 22 23 25 26 27 28 28 28 29 28 28 28 29 29 30 30 30 30 31 32 33 32 33 32
14 15 17 16 15 16 17 17 17 17 17 17 17 18 17 16 15 17 18 19 20 21 23 25 26 27 26 26 28 28 28 28 29 29 27 27 26 27 28 28 30 31 31 31
15 14 15 15 14 15 15 16 16 16 15 15 16 17 17 17 16 17 18 19 20 21 22 24 25 26 27 27 27 28 28 28 28 28 27 25 24 24 25 25 25 26 26 27
16 13 13 12 12 13 13 14 14 15 15 16 16 16 17 16 17 17 18 19 20 21 21 23 24 25 26 26 27 26 27 27 27 26 24 24 23 23 23 23 24 24 24 24
14 12 10 9 10 11 12 12 12 13 14 15 16 15 15 16 16 17 18 19 19 20 21 22 24 25 26 25 25 25 26 26 25 25 25 25 24 23 24 23 23 23 23 23
12 10 8 8 8 9 11 12 12 12 13 14 14 14 14 15 16 16 17 18 18 18 19 22 23 24 25 25 25 24 25 25 25 25 25 25 25 24 24 24 24 24 25 24
10 9 7 6 6 8 9 12 13 12 11 12 13 13 14 15 14 14 14 15 16 17 18 20 21 22 23 24 24 25 25 25 25 25 25 25 25 25 25 25 25 25 25 26
9 7 5 5 5 6 8 10 11 11 12 13 13 13 13 14 13 13 13 12 14 15 17 18 19 21 23 24 25 26 26 26 26 26 26 25 25 25 25 25 26 26 27 28
7 6 5 4 5 6 7 9 10 11 13 13 13 13 13 13 14 14 15 14 14 14 17 18 20 21 23 24 25 25 25 25 25 26 26 25 25 26 26 26 27 28 29 30
6 5 4 4 5 6 7 8 10 11 12 13 13 13 13 13 14 15 15 16 16 16 17 18 20 22 23 24 25 25 26 26 26 26 26 26 26 26 27 27 27 28 29 30
5 4 4 4 5 6 7 8 9 10 11 12 12 13 12 13 14 15 15 16 17 17 18 19 19 21 22 23 24 25 26 26 27 26 26 26 26 26 26 26 26 27 28 29
3 3 4 4 5 6 7 8 9 10 11 12 13 13 13 13 13 14 15 15 16 16 17 18 18 19 20 21 23 24 25 25 25 25 26 25 25 25 26 26 26 27 28 28
2 2 3 4 5 6 7 9 9 10 11 12 12 13 14 14 14 14 14 14 14 15 17 17 18 19 19 20 21 22 23 23 23 24 24 24 24 24 25 25 25 26 26 26
3 2 3 4 6 6 8 8 9 10 11 11 12 12 12 13 13 12 12 12 13 14 15 16 17 17 18 19 19 20 20 20 21 21 21 21 22 22 22 23 23 23 23 23
2 2 3 5 6 7 8 9 10 11 11 11 11 11 11 11 10 10 10 11 11 12 13 14 15 15 16 16 17 18 18 18 18 18 19 19 19 20 20 20 21 20 20 21
2 2 3 5 7 8 10 11 12 12 12 12 11 11 10 9 9 9 9 10 11 12 12 12 13 13 13 14 15 16 16 16 16 16 16 17 17 18 18 19 19 19 18 18
1 1 3 6 8 9 11 12 13 13 13 12 11 10 9 9 9 9 9 9 10 11 12 13 13 13 13 13 14 14 15 15 16 16 16 17 17 17 17 17 17 16 16 16
2 2 4 7 9 10 12 13 14 14 13 12 11 10 9 9 9 9 8 9 9 10 11 11 12 12 12 13 14 14 14 14 15 15 16 16 16 16 15 15 14 14 13 13
3 4 5 7 9 11 13 14 14 14 14 13 12 11 10 10 10 9 9 9 9 10 10 11 11 11 12 12 13 13 13 13 14 14 14 14 14 14 13 13 12 12 11 11
3 4 6 8 10 12 13 14 14 14 14 13 12 11 11 10 10 10 9 9 9 9 9 10 10 11 11 11 11 11 12 12 12 12 13 12 12 12 11 10 10 10 9 9
4 4 6 8 10 12 13 14 15 15 15 14 13 12 11 11 11 10 10 9 8 8 9 9 9 9 10 10 10 11 11 11 11 12 12 11 11 11 10 9 9 8 7 7

GEFSCGP_500_meanwind_072.txt.gz
Wind_Speed
17 17 17 18 18 18 18 18 17 19 21 21 21 20 20 19 21 23 24 26 27 29 30 31 32 33 33 31 28 27 28 25 24 24 25 25 27 27 27 27 28 29 29 29
16 16 17 18 18 17 17 16 16 18 19 19 19 19 18 18 19 20 23 25 26 29 31 33 34 36 35 32 29 27 26 24 23 23 23 24 24 25 27 28 29 30 31 32
15 16 18 18 18 17 16 16 16 17 17 17 17 17 17 17 18 19 21 23 25 28 31 34 35 35 35 34 31 29 27 25 24 24 23 24 24 25 26 26 28 31 33 33
15 16 17 17 17 17 15 16 16 16 15 14 16 14 17 17 17 18 20 21 24 26 30 33 35 35 35 34 33 30 28 27 26 25 25 26 25 25 26 28 28 29 31 32
14 16 17 16 16 17 15 16 16 15 15 15 15 15 16 16 16 17 19 20 22 24 26 31 34 35 35 34 33 31 31 30 28 28 28 28 27 27 27 28 28 29 30 32
14 16 17 16 17 17 15 15 14 14 13 15 14 15 15 16 15 16 17 19 21 22 24 27 31 33 34 34 33 33 32 32 31 30 29 28 29 28 27 27 26 27 30 32
14 16 17 16 16 16 13 12 11 12 12 13 14 14 15 14 14 15 16 17 19 21 23 25 28 32 34 34 34 34 33 33 32 31 30 29 29 27 27 27 25 27 29 31
12 13 16 15 14 12 11 9 10 11 12 12 14 15 15 13 13 14 15 16 17 18 21 23 25 27 31 32 32 32 32 33 32 31 30 29 28 27 26 25 25 24 24 26
12 12 14 13 11 10 9 9 10 11 11 13 14 15 14 12 13 13 14 16 16 18 19 21 23 25 27 29 31 31 31 31 30 29 29 28 27 26 25 24 23 23 22 24
12 12 12 11 9 8 7 8 9 9 10 11 13 13 12 11 11 10 11 13 15 17 20 20 22 24 25 27 29 30 30 30 29 29 28 27 26 25 23 22 20 21 21 22
11 11 10 10 8 7 7 8 8 8 10 11 12 12 11 10 10 10 11 12 14 17 19 20 22 24 25 27 28 29 30 30 29 28 27 27 25 25 23 22 21 20 20 21
10 9 9 9 8 7 7 8 9 10 11 11 12 13 12 11 10 11 11 12 12 14 16 18 21 23 24 26 28 28 28 29 28 28 28 27 26 25 24 23 23 22 22 22
8 8 7 8 9 8 8 8 8 9 11 11 13 13 11 12 12 12 12 12 12 13 15 17 19 20 22 23 25 27 28 28 28 28 27 27 26 25 24 24 24 24 24 24
7 7 7 7 8 9 8 8 9 10 11 12 12 13 12 13 13 14 14 14 14 15 15 16 18 20 21 22 24 25 26 27 27 27 27 27 26 26 25 26 26 26 25 25
7 7 7 7 7 8 8 9 9 9 10 11 12 13 13 13 13 14 14 14 14 15 15 16 18 20 21 22 24 25 26 26 27 27 27 27 26 26 26 26 26 26 25 25
7 7 7 7 7 8 8 9 9 10 10 11 12 13 13 13 14 14 14 14 15 16 17 17 18 20 22 22 23 24 25 25 26 26 26 26 26 25 25 25 26 25 25 24
6 6 6 7 7 8 9 9 10 11 11 12 13 13 13 14 14 14 14 15 15 16 17 18 18 19 19 21 22 22 22 23 24 24 24 24 24 24 25 24 24 24 24 24
6 5 5 6 7 8 9 10 10 11 12 13 13 13 14 14 14 14 14 14 15 16 17 18 18 18 18 20 21 21 22 22 23 22 23 22 22 22 22 23 23 23 24 23
6 5 5 6 7 8 10 10 11 12 12 13 13 13 13 13 13 13 13 13 14 15 15 16 16 16 16 17 17 17 18 19 19 19 20 20 20 21 21 21 21 22 22 22
6 6 5 6 7 9 10 11 11 12 12 12 12 12 11 11 11 11 12 13 14 14 15 15 15 15 15 16 16 16 17 18 18 18 18 19 19 19 20 20 20 20 21 21
7 6 5 6 7 8 10 11 11 11 11 12 11 11 10 10 10 11 11 12 12 12 13 14 15 14 14 14 15 16 17 17 17 17 17 17 18 18 18 19 19 19 19 19
6 5 5 5 6 8 9 10 11 11 11 11 10 10 10 9 9 10 9 10 10 11 11 12 12 12 12 12 13 14 14 14 15 15 16 16 17 17 17 18 18 18 18 18
7 5 4 4 6 7 8 9 10 11 11 11 10 10 9 9 8 8 8 8 9 9 10 10 11 12 12 12 13 12 12 13 13 14 14 14 14 15 16 16 16 16 16 16
7 5 3 4 5 6 8 9 10 11 11 10 10 9 9 8 8 7 7 7 7 8 9 9 10 10 11 11 12 12 12 12 12 13 13 13 13 13 13 13 14 14 13 13
7 5 3 2 4 5 7 9 10 11 11 11 10 9 8 7 7 7 6 5 6 6 7 8 9 9 10 10 10 10 10 11 11 11 11 12 12 12 12 12 12 12 12 11
8 5 2 1 3 5 7 9 10 11 11 11 11 10 9 8 8 7 6 5 5 4 4 5 5 6 6 7 8 8 9 9 10 10 10 10 10 10 10 10 11 11 11 11

GEFSCGP_500_meanwind_078.txt.gz
Wind_Speed
7 6 6 6 9 12 15 16 17 17 19 23 23 21 23 24 27 29 29 28 27 29 30 30 32 35 35 35 35 35 33 32 31 31 30 29 27 28 30 30 29 28 28 29
4 5 6 9 14 15 14 14 14 16 19 22 21 22 23 24 27 26 27 26 28 28 29 29 32 33 34 34 35 35 34 33 32 31 30 27 28 28 26 26 27 27 27 28
4 4 10 14 15 14 13 14 15 17 17 20 22 23 22 23 24 23 25 25 25 28 29 30 32 32 32 34 34 35 34 34 33 32 31 28 25 23 23 23 24 24 26 26
6 9 13 15 13 13 14 15 17 18 19 19 22 25 24 25 24 22 23 24 24 26 28 30 31 31 31 33 34 34 34 34 32 31 29 28 25 24 23 23 22 24 25 24
7 10 13 14 13 15 16 15 18 19 20 20 20 25 23 25 24 21 20 20 20 23 26 27 29 31 33 33 34 34 34 34 31 30 29 28 27 24 23 21 21 22 23 24
6 9 12 14 14 16 15 15 15 15 18 20 19 23 25 26 22 19 18 17 19 22 24 26 28 29 31 32 33 33 35 35 31 30 30 29 28 25 23 22 21 22 23 23
6 9 12 15 16 15 15 15 15 17 18 19 19 21 21 21 19 20 17 16 18 20 22 24 27 29 30 31 31 32 34 34 32 30 30 29 28 26 24 22 22 22 22 22
9 12 12 13 15 15 14 14 16 18 19 20 17 19 18 17 16 18 18 18 19 19 21 23 24 26 28 29 29 31 32 32 31 30 28 28 28 26 24 23 21 21 22 23
11 12 11 12 14 14 11 11 14 17 17 20 19 17 18 16 16 16 17 18 19 19 20 21 22 24 25 26 26 28 29 29 29 29 28 28 27 25 23 23 22 22 23 24
12 12 10 11 12 11 11 11 12 14 17 19 20 19 16 16 15 15 16 17 18 19 20 20 21 22 23 24 23 25 26 27 27 27 27 27 26 24 24 24 24 23 24 24
13 13 10 10 9 10 11 11 12 13 16 19 22 22 20 17 13 13 14 16 16 17 19 20 21 21 21 21 22 23 24 25 25 26 26 26 25 24 24 25 25 24 24 24
14 12 10 9 9 9 10 11 12 14 16 18 21 22 20 18 13 14 15 16 15 16 18 18 19 20 21 21 22 23 24 25 25 25 25 25 25 25 25 25 25 24 24 24
14 12 10 10 10 9 9 10 13 14 16 17 20 20 20 20 17 15 16 16 16 16 18 18 18 19 21 23 23 24 25 25 25 25 26 26 26 25 25 25 25 25 25 24
13 12 11 10 10 8 8 10 13 15 17 19 19 20 20 20 18 17 17 16 16 16 17 18 18 19 20 21 23 23 24 25 26 26 26 26 27 27 27 26 26 26 26 25
12 11 11 9 8 8 10 11 13 15 17 18 19 19 20 20 19 18 17 17 17 17 17 17 18 19 20 21 22 22 22 23 25 26 26 26 26 27 27 27 26 27 27 27
11 10 9 8 8 9 10 11 14 16 17 18 19 20 20 21 20 19 18 18 18 18 18 18 19 20 21 21 22 22 22 23 24 24 25 26 26 26 25 25 26 26 26 27
10 10 9 8 8 8 10 12 14 17 19 19 19 20 20 20 20 19 19 20 19 19 19 20 20 20 21 22 22 22 23 23 23 23 24 24 25 26 25 25 24 25 25 25
11 11 10 9 8 9 10 11 14 17 19 20 19 20 20 20 20 20 20 20 20 20 20 20 21 21 21 21 21 21 21 21 22 23 24 23 24 24 24 24 25 24 24 24
12 11 10 9 8 9 10 11 15 18 19 19 19 20 20 20 21 21 20 19 19 19 19 19 20 19 18 18 18 19 20 20 20 21 21 22 22 22 22 23 24 23 23 23
11 10 10 10 9 11 11 12 15 18 19 19 20 20 20 20 21 19 19 19 19 19 18 18 17 17 17 16 16 16 17 17 18 18 19 19 20 20 20 20 20 21 21 21
10 10 9 10 12 12 12 15 17 19 20 21 20 20 20 20 19 19 19 18 18 18 18 17 16 15 16 15 15 14 14 15 15 16 16 16 17 17 17 18 19 19 19 19
10 10 10 12 13 13 14 16 17 19 19 20 20 20 19 19 19 18 18 17 17 17 17 15 15 14 14 14 14 14 14 14 14 14 14 15 15 15 16 17 17 17 17 18
11 11 11 12 12 12 13 15 16 18 19 20 19 18 18 18 17 17 16 16 15 14 13 13 12 12 12 12 12 12 13 13 13 13 13 14 14 14 14 15 15 15 15 15
12 12 11 12 11 11 13 14 16 17 19 19 18 17 17 17 16 15 15 14 12 11 11 10 10 10 9 9 10 10 10 11 12 12 12 12 12 12 12 12 13 13 13 13
11 10 9 10 10 10 11 13 15 16 18 18 17 16 16 16 15 14 13 12 10 9 9 9 8 7 7 8 8 8 9 10 10 10 10 11 11 11 11 11 11 11 11 11
10 9 7 7 8 9 11 13 14 16 17 17 16 16 15 14 13 13 11 10 8 8 8 7 8 7 7 7 8 7 7 8 8 9 9 9 9 9 9 9 9 9 9 9

GEFSCGP_500_meanwind_084.txt.gz
Wind_Speed
13 12 11 10 10 11 11 11 11 9 11 14 15 17 19 21 24 25 26 27 27 30 30 30 30 31 32 33 32 31 31 31 30 30 31 32 30 29 27 28 29 30 31 32
13 13 12 11 10 11 11 11 10 10 12 15 17 19 21 23 26 26 26 27 28 28 29 31 31 31 32 31 31 32 30 29 30 30 30 30 30 29 29 29 29 28 27 28
14 14 14 11 9 8 10 11 12 14 15 17 21 23 24 25 26 26 27 27 28 27 26 28 30 31 30 30 30 30 29 28 28 29 29 29 29 29 29 27 27 27 27 27
16 15 13 10 8 8 10 11 13 15 17 18 21 24 24 24 26 27 26 26 25 25 25 26 28 28 29 29 28 27 27 26 27 29 30 30 29 29 27 26 26 26 24 26
15 15 13 11 9 8 10 11 13 15 16 18 20 23 23 24 24 24 24 23 22 22 23 24 25 26 26 26 25 26 26 26 26 28 28 28 29 28 27 26 25 23 23 24
14 14 11 9 8 9 10 12 13 14 15 16 17 20 21 21 22 23 21 21 22 23 22 22 23 23 24 24 25 25 25 26 26 27 27 28 28 27 26 25 24 24 23 22
13 11 9 8 8 10 12 13 13 12 13 14 15 18 18 18 19 19 20 20 21 21 20 20 21 21 21 21 22 23 24 25 25 26 26 27 28 26 25 25 24 23 22 21
12 10 9 8 9 9 11 12 12 13 14 14 15 18 17 17 18 18 17 17 18 17 19 20 20 20 20 20 20 21 22 23 24 24 25 26 26 25 24 24 23 22 21 21
11 9 8 8 10 11 11 11 11 14 15 15 16 17 18 17 17 17 17 16 15 16 17 17 18 19 19 19 19 19 21 22 22 21 22 23 23 23 22 22 22 22 22 21
11 9 9 9 10 12 12 11 12 13 15 16 16 17 18 17 17 16 15 13 13 14 14 15 16 17 17 17 17 18 18 19 20 20 20 20 20 20 21 21 21 22 21 19
11 10 10 10 10 11 13 13 13 14 15 16 17 17 17 17 17 15 13 11 13 13 14 15 15 15 15 15 15 16 17 17 17 18 18 18 18 19 19 20 20 19 19 18
13 12 11 11 11 12 13 14 15 15 15 16 18 18 18 16 16 15 14 14 13 14 14 13 14 14 13 14 15 16 16 16 16 17 17 18 18 19 19 19 19 18 18 18
15 13 11 11 12 12 13 14 15 15 15 16 17 18 18 17 16 16 15 15 14 15 14 14 13 13 13 13 14 15 16 16 16 17 18 18 19 19 19 19 19 19 18 18
15 13 11 11 12 13 14 14 15 14 14 15 16 17 18 18 17 17 16 15 14 15 15 14 14 14 14 14 13 14 15 16 16 17 18 18 18 19 19 20 20 20 20 20
13 12 12 12 12 13 14 15 14 14 14 15 16 17 18 18 18 18 17 17 16 16 16 16 16 15 15 15 15 15 15 16 16 16 16 18 19 20 21 21 20 20 21 22
14 14 13 12 12 13 13 13 14 14 15 15 16 17 18 18 19 19 18 18 17 17 17 17 16 16 16 16 16 17 17 17 17 17 18 18 18 19 19 20 20 20 20 21
15 14 13 12 12 12 13 13 14 14 14 16 17 17 18 19 20 19 19 19 18 18 18 17 17 17 17 17 17 17 17 17 18 18 18 18 19 18 18 18 20 21 20 20
15 14 13 13 13 13 12 13 13 13 14 16 16 18 19 20 20 20 20 19 19 19 18 18 18 17 18 17 17 17 17 17 17 18 18 18 19 19 19 19 19 19 19 19
16 14 13 13 13 13 12 12 13 14 15 16 16 18 19 20 20 20 20 20 20 19 18 18 18 17 17 16 16 16 17 17 17 17 17 17 18 17 17 18 19 19 19 19
17 16 15 14 14 14 13 13 14 16 16 17 17 18 20 20 20 20 20 20 19 19 18 17 16 16 16 15 14 15 15 15 15 15 15 16 16 16 16 16 17 17 17 17
18 16 15 13 13 13 12 12 13 15 16 17 18 18 20 20 20 20 20 19 18 17 16 15 14 13 12 12 11 11 11 11 12 12 13 14 14 14 14 14 14 15 16 16
17 14 12 11 11 10 10 10 12 14 16 17 18 19 19 19 20 19 18 17 16 15 13 13 11 10 10 9 9 9 9 9 9 10 10 10 11 11 11 11 12 13 14 15
17 14 11 10 9 8 8 9 11 13 14 16 18 18 18 18 18 17 16 15 14 13 11 10 8 7 7 7 7 7 8 8 9 8 9 9 10 10 11 11 12 12 12 12
14 13 11 8 6 5 6 7 9 12 14 16 16 16 17 17 16 15 14 13 12 11 9 7 6 5 5 5 6 6 6 6 7 8 8 9 9 9 9 10 10 10 9 10
13 10 9 8 5 4 5 7 10 12 14 15 15 16 16 15 15 14 13 12 11 9 7 6 5 5 4 4 4 5 5 6 6 6 7 8 8 8 8 8 8 7 7 7
12 10 7 5 2 2 4 7 10 11 13 14 15 16 16 15 14 13 12 11 9 8 6 5 4 4 3 2 2 2 2 3 4 5 5 6 6 6 6 6 6 6 6 6

GEFSCGP_500_meanwind_090.txt.gz
Wind_Speed
12 13 14 14 14 14 15 15 16 16 17 17 17 17 18 18 19 20 20 20 21 22 23 24 25 26 27 28 29 29 30 30 30 31 31 32 32 33 33 32 32 32 32 32
13 14 14 14 14 15 15 15 15 16 16 17 17 18 18 19 20 21 22 22 23 24 25 25 24 25 25 25 26 27 28 29 30 29 30 31 31 31 31 32 32 32 32 31
14 14 14 14 15 15 15 14 15 15 16 17 18 18 18 19 21 21 22 22 23 23 25 25 25 25 25 25 25 26 27 27 28 28 28 29 30 31 29 31 32 31 32 31
15 14 14 14 15 14 14 14 14 15 16 16 17 17 17 18 19 20 20 21 22 23 24 24 24 24 24 24 24 24 24 25 26 26 26 26 27 28 30 29 29 28 27 27
15 15 14 14 13 13 13 13 13 13 13 14 15 17 16 18 19 19 20 21 23 22 22 23 23 23 22 22 21 21 21 22 23 24 25 25 26 26 27 28 28 27 26 26
16 14 13 13 13 13 13 13 13 12 12 13 14 15 14 16 17 18 20 21 21 21 21 21 21 21 21 20 20 20 20 21 22 22 22 23 24 25 26 26 27 27 26 26
15 14 13 13 13 13 13 12 12 12 12 12 13 14 14 15 16 17 19 19 19 18 19 19 19 19 19 18 19 20 20 20 20 20 20 20 21 22 24 25 26 26 26 26
15 15 14 13 13 13 13 12 12 12 12 12 12 13 13 14 15 16 17 17 16 17 17 17 17 17 17 17 18 19 19 20 20 19 19 19 20 20 22 23 24 24 24 24
14 15 14 14 13 13 12 11 12 13 12 12 11 11 12 14 15 16 16 16 15 16 16 17 17 17 16 17 17 18 18 19 20 20 19 19 19 20 21 22 23 23 23 23
15 15 15 14 13 12 11 11 11 12 13 12 11 12 13 13 14 16 15 15 16 16 16 16 16 16 16 16 17 17 17 18 19 19 19 19 19 20 20 21 22 22 22 23
14 15 15 14 13 12 12 12 12 13 14 15 14 12 14 15 16 16 16 15 16 16 16 15 15 16 16 16 16 17 17 17 18 19 19 20 20 19 20 21 21 21 22 23
15 15 16 16 14 13 13 13 14 14 15 15 16 14 15 17 18 18 17 17 18 18 17 17 17 18 17 17 17 17 18 18 18 19 20 20 20 20 20 20 20 21 21 21
16 16 16 15 15 14 14 14 14 14 15 15 15 15 17 18 19 19 19 19 19 19 19 18 19 18 18 18 19 19 18 18 18 19 20 20 20 20 20 21 21 21 21 22
17 17 17 17 16 15 14 14 14 14 15 16 15 16 18 19 20 19 20 20 20 20 20 19 20 20 20 20 20 19 19 18 18 19 20 20 21 21 21 21 22 22 23 23
18 18 17 17 17 16 15 14 15 15 16 17 16 18 19 20 20 20 21 21 22 21 21 21 21 21 21 21 20 20 19 19 19 19 20 20 21 21 21 22 22 22 22 23
18 18 18 17 16 16 15 15 15 15 17 17 17 19 20 20 21 22 22 23 23 23 23 23 23 23 22 22 22 21 20 20 20 20 20 21 21 21 22 23 22 22 22 22
20 19 18 17 17 16 14 14 15 16 17 18 19 19 21 22 22 23 24 24 25 25 25 24 23 23 22 22 21 21 21 21 21 21 21 21 21 21 21 21 21 21 21 20
20 20 19 17 17 16 14 14 15 15 16 18 19 21 22 22 23 24 25 25 25 25 24 24 23 23 22 21 21 21 21 21 21 20 20 20 20 20 21 21 21 20 19 20
18 19 19 18 17 15 15 16 17 17 17 19 20 21 21 22 24 25 25 25 25 24 24 23 22 22 21 21 21 20 20 20 19 18 18 18 19 20 19 19 19 19 20 20
17 18 18 18 17 16 15 16 17 18 18 19 19 20 21 23 24 24 24 24 24 23 22 22 21 21 20 19 19 18 18 18 17 17 17 17 17 18 17 17 17 17 17 17
16 16 16 16 16 16 16 16 16 17 17 17 18 19 21 22 23 24 23 23 22 21 21 20 20 19 18 17 16 16 16 15 15 15 14 14 15 16 16 16 16 15 15 15
14 14 14 15 16 16 15 16 16 16 15 16 17 19 20 21 22 22 21 21 20 20 19 18 17 16 15 15 14 13 12 12 12 12 12 12 12 12 13 13 13 14 14 13
14 14 14 14 15 15 15 15 14 14 14 15 17 18 19 20 20 20 19 19 19 18 17 16 14 13 13 12 11 10 10 9 9 9 9 10 9 9 10 10 11 11 12 13
12 12 12 12 12 13 14 13 12 13 13 14 15 16 17 18 18 17 17 17 16 15 14 13 11 11 10 9 8 8 7 7 7 7 7 8 8 8 8 9 10 9 10 10
11 11 10 10 10 10 10 9 10 11 11 12 14 15 16 16 15 15 15 15 14 13 11 10 9 8 7 6 5 5 5 5 5 5 6 6 6 7 7 7 8 8 7 8
12 10 9 8 8 8 7 8 8 9 10 11 11 13 14 15 14 14 14 13 12 11 9 7 6 5 4 3 3 3 3 3 4 4 5 5 6 7 6 6 6 6 6 6

GEFSCGP_500_meanwind_096.txt.gz
Wind_Speed
9 10 10 12 13 13 12 12 12 13 12 13 14 15 16 17 18 19 20 21 21 22 23 24 25 26 26 27 27 28 28 28 29 30 31 32 32 33 32 32 32 31 32 33
10 10 10 10 10 11 10 9 10 11 12 12 13 14 15 16 17 18 18 19 21 22 23 23 24 25 26 26 27 28 29 28 29 30 31 33 33 34 34 33 33 32 32 32
11 10 9 9 9 10 10 9 10 11 11 11 12 13 15 16 17 18 19 20 20 21 22 23 24 25 25 26 27 27 28 27 28 29 30 31 31 32 32 33 33 32 32 32
10 9 8 8 9 9 9 10 9 9 8 11 10 10 15 15 16 18 18 19 20 20 21 21 22 23 24 25 26 26 26 27 28 28 29 30 30 31 32 32 32 32 31 31
9 9 9 9 8 8 9 8 8 8 8 9 10 8 13 13 14 16 17 17 18 19 20 20 21 22 22 23 24 24 25 26 27 27 27 28 29 30 31 31 31 31 31 31
9 9 8 8 8 8 7 6 6 7 7 8 9 8 10 11 12 13 14 15 16 18 19 19 19 20 20 21 22 23 24 24 25 25 26 27 27 28 29 30 30 30 31 31
8 9 8 7 7 7 7 6 5 6 7 8 10 8 9 11 11 13 14 15 15 17 17 18 19 19 19 19 20 21 22 22 23 23 24 25 25 25 26 27 27 28 29 31
9 9 9 8 8 8 7 7 7 7 7 9 11 9 10 10 11 13 14 14 15 16 17 17 16 17 17 18 19 20 21 21 22 22 22 23 24 24 23 24 25 26 27 28
11 12 10 9 8 8 8 8 9 8 8 9 10 11 11 11 12 13 14 14 15 16 16 15 15 16 17 17 18 19 20 20 20 21 21 22 22 23 22 22 23 24 25 27
11 11 11 10 9 9 9 9 9 7 8 8 9 11 11 12 13 14 14 15 16 16 16 16 16 16 17 18 18 19 19 19 18 19 20 20 21 22 22 22 23 24 24 25
11 12 12 12 11 11 11 10 9 9 10 9 9 11 13 14 14 15 15 16 17 17 17 17 17 17 17 18 19 19 19 19 19 20 20 21 21 21 22 22 23 24 24 25
13 13 13 14 13 12 12 11 11 11 12 11 11 13 14 15 16 16 17 18 18 18 18 18 18 18 18 18 19 20 20 21 21 21 21 21 21 22 22 22 22 22 23 24
14 13 13 13 14 14 13 13 13 13 13 13 12 14 16 17 17 17 18 19 19 19 20 20 20 20 20 21 21 22 22 22 22 22 22 22 22 22 22 22 22 22 23 23
15 15 14 15 15 15 15 15 14 14 13 14 14 16 19 18 18 19 20 20 21 21 21 22 22 22 23 23 23 23 23 23 23 23 23 23 23 23 23 23 23 23 23 23
15 16 16 16 16 16 15 16 16 16 16 16 16 18 19 20 20 21 21 21 22 22 23 23 23 23 24 24 24 24 24 24 24 24 23 23 23 24 23 23 24 24 24 23
15 16 16 16 16 15 15 16 17 17 17 17 18 19 20 21 21 22 22 22 23 23 24 25 25 25 25 25 25 24 24 25 25 25 24 23 23 24 24 24 24 23 23 23
14 15 15 15 15 15 15 15 16 17 18 18 19 19 20 21 22 23 23 24 24 25 26 27 27 26 26 25 25 24 24 24 24 24 24 24 23 23 23 23 22 22 22 22
13 14 14 13 13 15 15 15 16 18 18 18 19 20 21 22 23 23 24 25 25 26 26 26 26 25 25 24 23 23 23 22 22 22 23 23 22 22 21 21 21 21 20 20
12 12 13 13 14 14 16 16 16 16 18 19 20 21 22 22 23 23 24 25 25 26 26 25 25 24 23 22 22 21 21 20 20 20 20 20 20 19 19 19 19 19 18 17
11 11 12 12 13 15 16 15 15 16 19 19 20 20 21 21 21 22 23 24 24 24 24 24 24 22 21 21 20 19 19 19 18 17 16 16 16 16 16 16 16 16 16 15
10 11 11 11 12 14 14 13 14 16 18 18 18 19 19 19 21 22 23 23 23 23 22 22 21 20 19 19 18 17 17 15 14 14 14 13 12 12 12 12 13 13 13 13
10 10 10 11 12 13 12 13 14 15 16 16 17 18 18 19 20 21 22 22 21 21 20 19 18 18 17 17 16 14 13 11 10 10 10 9 10 10 10 9 10 10 11 11
9 9 9 10 11 11 11 12 12 12 14 15 15 16 17 19 20 20 20 20 20 19 18 17 17 16 15 14 13 10 9 8 7 7 7 7 8 8 8 8 8 9 9 10
7 7 8 8 9 9 10 10 10 11 12 12 13 14 16 18 18 18 19 19 18 17 16 15 14 13 12 11 9 7 6 5 4 4 5 6 6 6 6 6 7 8 7 7
5 6 7 7 7 8 9 9 9 9 10 11 12 14 16 17 17 17 18 17 16 15 14 13 12 11 9 7 6 4 3 2 3 3 4 4 5 7 6 6 6 6 6 6
5 5 6 6 6 7 8 8 8 8 9 10 12 13 15 16 16 16 16 16 15 13 12 10 9 7 6 4 2 1 0 1 2 3 3 3 5 6 6 6 6 6 5 5

GEFSCGP_500_meanwind_102.txt.gz
Wind_Speed
9 11 9 8 9 9 8 10 12 13 12 10 12 16 18 15 16 18 18 19 20 22 22 23 24 24 24 25 26 26 27 28 29 29 30 30 30 30 31 31 31 32 32 33
9 8 7 9 11 10 11 10 12 13 13 11 14 17 19 17 18 19 18 19 20 21 20 21 23 23 24 25 26 27 28 28 29 30 31 31 31 31 31 31 32 32 32 32
6 6 10 13 13 13 13 15 14 14 13 11 13 18 20 19 18 18 18 19 19 20 21 22 23 23 23 24 26 27 28 28 29 30 31 31 32 33 33 32 32 33 33 34
5 7 10 11 11 12 12 13 13 12 10 11 14 18 21 19 17 16 17 17 18 20 21 21 22 23 23 24 25 26 26 27 28 29 30 31 32 33 33 33 33 33 34 33
5 8 9 10 10 12 14 12 11 11 13 14 15 17 19 19 17 15 15 16 17 19 20 20 21 22 23 24 24 24 25 25 26 28 29 29 30 31 32 31 32 32 32 33
8 9 10 10 11 12 11 9 9 12 15 17 16 16 21 20 16 15 14 15 17 18 19 19 20 22 23 23 24 23 24 25 26 27 27 28 29 30 30 30 31 32 32 33
7 8 9 10 10 10 10 9 10 12 14 16 15 17 21 18 16 18 16 17 17 18 19 20 20 21 21 22 22 22 23 24 24 26 26 26 27 27 28 28 29 30 31 32
8 10 9 8 9 9 10 10 11 13 12 12 13 15 16 15 16 17 17 18 18 18 19 20 20 20 20 21 21 21 21 22 23 24 25 26 26 26 26 27 27 28 28 29
10 10 10 9 9 11 9 10 12 12 11 12 12 13 16 16 15 17 18 18 18 19 19 19 20 21 21 21 22 21 22 22 22 22 22 22 23 24 25 25 25 25 26 26
12 10 9 10 9 9 10 11 10 11 11 12 11 13 17 15 15 15 16 18 18 19 20 20 20 21 22 22 21 21 22 21 21 21 21 21 22 22 22 23 24 25 25 26
15 14 12 11 11 11 12 12 12 12 12 13 15 19 18 16 16 16 18 18 20 20 21 21 22 22 23 22 22 22 22 21 21 21 21 22 22 22 22 23 23 23 24 23
15 15 14 13 13 14 14 14 14 15 15 16 17 21 22 21 18 16 18 20 22 22 23 23 24 24 24 23 23 22 22 22 22 22 22 23 23 23 23 23 23 23 23 22
14 14 15 15 16 16 16 15 15 16 16 17 18 22 22 21 20 18 19 21 23 24 24 25 25 25 25 24 24 23 23 23 23 23 23 24 24 23 23 23 23 23 23 22
15 15 15 15 15 15 14 14 14 15 16 17 18 22 23 22 21 21 21 22 24 25 26 26 26 26 26 25 25 25 25 24 24 25 24 24 24 24 23 23 23 23 23 23
14 15 16 16 15 16 15 14 15 16 17 18 21 24 26 25 24 25 25 25 25 26 26 26 26 26 26 26 26 26 26 26 26 26 25 25 24 24 24 24 23 23 23 24
13 14 15 15 14 15 15 16 17 18 18 21 23 24 26 27 27 27 28 28 26 27 27 27 26 27 27 27 26 26 26 26 26 26 25 25 24 24 24 24 24 23 23 23
12 13 14 13 14 15 16 16 18 19 20 22 22 24 27 28 28 28 28 27 26 27 26 26 26 26 27 26 27 27 27 26 26 25 24 24 23 23 23 23 23 23 23 23
11 12 12 13 14 16 15 16 18 19 21 22 21 23 24 26 26 26 26 25 26 26 26 26 26 26 26 26 26 26 26 25 24 23 22 21 21 21 21 21 21 21 22 21
10 11 12 12 13 15 15 18 18 19 20 20 22 23 23 24 25 25 25 26 27 27 26 26 26 26 26 25 25 24 24 23 22 21 20 20 19 19 19 18 18 18 17 17
9 10 11 11 13 15 16 17 16 18 21 21 22 23 23 23 24 24 25 26 25 25 24 24 24 24 24 24 23 23 22 20 20 19 18 18 17 17 16 16 15 15 14 14
10 10 11 11 13 15 16 16 16 17 19 20 21 21 22 23 23 24 24 24 24 23 23 22 22 22 22 21 21 20 19 18 17 16 16 15 14 13 13 12 12 11 11 10
10 10 11 12 13 15 15 15 16 17 18 19 20 20 20 21 22 22 22 23 23 23 21 20 20 20 19 19 18 17 16 15 14 13 12 12 11 10 10 9 8 7 8 9
10 10 10 11 12 13 14 14 14 15 16 17 18 18 19 20 21 21 22 22 22 21 19 19 19 18 17 16 15 14 13 12 11 10 10 9 9 8 8 7 6 6 7 7
9 9 10 10 10 11 11 12 13 13 14 14 15 17 18 19 20 21 20 20 19 18 17 16 16 15 14 13 12 11 11 9 8 7 7 6 5 5 5 5 5 5 5 5
6 7 8 9 9 9 9 10 11 12 13 13 14 16 17 18 19 19 18 18 17 16 14 14 13 12 11 10 9 8 7 6 5 4 3 3 3 3 3 3 3 3 3 3
4 6 6 7 7 7 8 9 10 11 11 12 14 15 16 18 18 17 16 15 14 14 13 12 11 10 8 7 7 6 5 3 2 1 1 1 2 2 2 2 2 2 3 2

GEFSCGP_500_meanwind_108.txt.gz
Wind_Speed
12 13 13 13 14 13 14 14 13 11 10 11 12 14 14 14 14 14 14 14 12 10 9 11 12 13 15 16 16 16 16 16 18 19 19 21 23 24 24 25 26 26 26 26
13 13 13 14 14 13 12 11 11 11 12 13 15 16 16 17 17 16 14 13 11 10 10 11 12 13 15 17 18 17 17 18 18 19 21 22 24 25 26 26 27 27 27 27
14 13 13 13 12 11 10 10 10 10 11 15 16 16 18 18 17 16 15 14 11 11 11 13 13 13 15 17 18 18 18 19 19 20 21 22 23 24 25 26 27 28 28 28
12 12 11 12 11 11 10 10 10 11 11 14 16 17 17 18 19 16 14 13 13 12 12 12 12 13 15 16 17 18 19 19 20 20 22 22 23 24 26 26 27 28 28 29
11 11 11 11 11 11 11 11 11 12 12 13 16 18 19 19 18 16 15 14 13 11 12 13 13 14 15 16 17 18 18 19 20 21 22 23 24 25 26 26 27 27 28 28
11 12 12 11 12 13 13 14 13 14 14 15 17 19 20 20 19 17 16 14 12 11 12 13 14 15 16 16 17 18 18 19 19 20 21 22 23 24 24 25 25 26 26 27
12 12 11 11 12 13 14 15 15 16 16 16 17 19 19 19 18 18 17 14 12 12 12 13 14 16 16 17 17 18 18 19 19 20 20 21 21 22 23 24 24 25 25 25
11 10 10 11 11 12 14 14 15 16 16 16 18 18 17 16 16 16 16 16 14 13 13 14 15 16 16 17 17 18 19 19 20 20 21 21 21 22 22 22 23 23 24 24
11 11 11 11 11 12 13 14 15 15 16 15 16 16 15 15 15 14 14 15 14 13 13 14 15 16 17 18 18 19 20 21 21 21 21 21 21 21 21 21 22 22 22 23
11 11 12 13 13 13 14 15 16 16 16 15 15 15 14 16 16 15 14 14 15 15 15 15 16 17 19 20 20 21 21 21 21 21 21 21 21 21 21 21 21 21 22 22
11 12 13 14 14 14 15 16 17 17 17 17 17 16 16 16 15 13 13 13 14 14 16 17 18 20 21 21 22 22 22 22 22 22 22 22 22 22 22 22 22 22 22 22
12 12 12 14 14 15 16 18 18 18 18 17 17 17 16 17 17 16 16 15 15 16 17 18 20 21 22 23 23 23 23 23 23 23 23 23 23 23 23 22 22 22 22 22
12 13 13 13 15 15 16 17 18 18 19 19 19 20 19 19 18 19 18 16 16 17 18 20 22 23 23 24 24 24 24 24 24 24 24 24 24 24 23 23 22 22 22 22
12 13 13 13 14 16 17 17 19 19 19 19 20 21 20 20 21 21 22 20 20 20 21 23 23 23 24 24 25 25 25 25 25 25 25 25 24 24 24 23 23 23 23 23
10 11 12 13 15 16 17 18 19 19 19 20 21 22 22 22 22 23 22 21 22 23 23 23 24 24 25 25 25 25 25 25 25 25 25 25 25 25 25 24 24 24 23 24
10 10 11 12 14 15 16 18 19 18 19 20 21 21 21 22 23 23 24 23 24 24 24 25 25 25 26 25 25 26 26 25 25 25 25 25 24 24 24 24 24 23 23 23
11 11 11 12 13 14 15 16 16 17 18 19 19 20 22 23 23 24 23 24 25 24 25 25 25 25 26 25 25 25 25 25 24 23 23 23 23 23 23 23 22 22 21 21
10 11 11 12 13 13 14 15 15 15 16 17 18 20 21 22 22 22 24 25 25 24 24 24 23 23 23 23 23 23 23 23 22 22 21 22 22 22 21 21 21 20 19 19
10 10 10 10 12 12 12 13 14 14 14 16 18 19 20 21 22 23 24 24 24 24 23 23 22 22 22 22 22 22 22 21 21 20 20 20 20 19 19 19 18 17 16 16
8 9 10 10 10 10 10 11 13 14 15 16 16 18 19 20 21 22 22 23 22 21 21 21 21 21 21 21 21 21 20 20 20 19 19 18 17 17 16 15 14 14 14 13
7 8 8 9 9 9 10 10 11 12 13 14 15 16 17 19 20 21 21 21 20 20 20 20 19 19 19 19 19 19 18 17 17 16 16 16 15 14 14 12 11 11 11 10
5 6 7 7 8 8 9 9 10 11 12 13 14 15 17 19 19 20 20 20 20 19 19 18 18 17 17 17 16 16 15 14 14 14 13 13 11 10 10 9 8 8 8 8
3 3 4 5 5 7 7 7 8 9 11 13 14 16 17 18 19 19 18 18 18 18 17 17 16 15 14 13 13 13 12 11 10 10 9 8 7 7 6 5 5 5 4 4
4 4 4 4 4 5 6 7 8 10 12 13 14 16 17 18 17 17 16 16 16 16 15 15 14 13 11 11 11 9 8 7 6 5 4 4 4 3 3 2 2 2 2 2
6 5 4 4 4 5 6 6 8 10 11 13 14 16 16 16 15 15 15 15 15 14 13 12 11 10 9 8 7 6 6 5 4 4 3 2 2 1 0 0 1 2 2 2
6 6 6 5 5 6 6 7 8 10 12 14 15 15 15 15 14 14 14 14 13 12 11 10 9 8 8 7 6 6 5 5 4 4 3 2 2 3 3 4 4 4 4 5

GEFSCGP_500_meanwind_114.txt.gz
Wind_Speed
11 12 13 14 16 17 18 21 22 22 21 21 20 18 17 16 14 13 12 12 12 12 12 12 11 11 10 9 8 9 10 11 12 13 14 16 18 20 21 22 23 24 24 25
11 12 14 15 16 16 17 18 21 22 21 20 19 17 17 16 15 14 13 12 13 13 13 13 12 11 10 10 10 10 10 11 12 14 15 17 19 20 21 22 23 24 26 26
11 12 14 14 15 16 16 17 18 20 19 18 18 18 16 15 14 14 13 13 13 12 12 13 13 12 12 12 12 11 11 12 13 15 15 17 18 19 21 23 24 25 25 26
11 12 14 14 15 15 16 16 16 16 16 16 16 15 13 13 14 14 14 14 14 13 13 14 13 13 13 13 13 13 13 13 14 15 15 17 18 20 21 23 23 24 25 25
11 12 13 13 14 14 15 16 15 15 14 14 14 14 11 11 12 12 13 13 14 15 15 15 14 14 14 14 14 14 14 14 14 15 16 17 18 20 21 23 24 24 25 26
11 12 13 13 14 14 14 15 15 15 15 14 14 14 12 11 11 12 13 13 13 15 15 15 15 15 15 15 16 16 16 16 16 16 17 18 18 19 20 22 23 24 25 26
12 12 12 12 13 14 14 14 15 15 16 16 15 15 13 12 13 13 14 14 14 14 14 15 16 16 17 17 17 17 17 17 18 18 19 19 20 21 21 22 23 23 24 26
12 13 12 12 13 13 14 14 14 15 15 15 16 16 14 14 15 14 14 13 14 14 14 16 17 17 18 18 18 18 18 19 19 20 20 20 21 22 22 22 23 24 24 25
11 13 13 13 13 13 13 14 14 15 15 16 16 15 15 15 15 16 15 15 15 16 17 18 18 19 19 19 20 20 21 21 21 21 22 22 22 22 23 23 24 24 24 24
11 12 13 13 13 13 14 15 15 16 16 16 16 15 15 15 15 16 16 16 16 18 19 20 19 19 19 20 21 22 22 23 23 23 23 23 23 24 24 24 24 24 24 24
11 11 13 14 14 14 14 15 15 15 16 17 16 15 15 16 16 16 16 16 17 19 20 21 20 20 20 21 23 24 24 24 25 25 25 25 25 25 25 25 25 25 25 25
10 11 12 13 14 14 14 15 15 16 16 17 17 16 16 17 16 16 17 17 18 18 20 21 21 21 22 22 24 25 25 26 26 26 26 26 26 26 26 26 26 25 25 25
10 11 12 12 13 13 14 14 15 15 15 16 16 16 16 17 16 16 17 18 18 17 18 20 21 22 23 23 25 26 26 26 27 27 27 26 26 26 26 26 26 25 25 24
9 10 11 12 13 12 13 14 14 15 15 15 16 16 16 17 17 18 18 18 18 19 20 21 21 22 23 25 26 27 26 27 27 26 26 26 27 27 26 26 25 25 25 25
9 9 10 11 11 12 12 13 13 14 14 15 16 16 15 16 17 18 19 20 21 21 22 23 23 23 24 25 26 26 26 26 26 26 25 25 25 25 25 25 25 25 25 25
9 9 10 10 11 11 11 12 12 13 14 15 16 16 17 18 19 19 20 21 21 22 23 24 23 23 24 24 25 26 26 26 25 24 25 25 25 25 24 24 25 25 24 25
9 9 9 9 10 10 11 11 12 13 14 15 16 17 17 18 18 19 20 21 22 23 24 23 23 23 23 24 24 24 24 24 23 23 23 23 24 24 23 23 23 23 23 23
9 9 9 9 9 9 10 11 12 13 13 15 16 17 17 17 17 19 20 21 22 22 22 21 23 23 22 23 23 22 22 22 21 22 22 22 22 22 22 22 22 21 21 20
8 8 8 9 9 9 9 10 11 11 12 13 14 15 16 16 18 19 20 20 20 20 20 21 21 21 21 21 21 21 21 22 22 21 22 22 22 21 21 20 19 19 18 18
7 7 7 8 8 8 8 9 10 10 11 12 13 14 15 16 18 18 19 18 19 19 19 19 20 19 19 20 20 20 20 20 19 19 19 19 19 19 18 18 17 17 17 16
3 4 4 5 6 6 6 7 8 9 10 11 13 14 15 16 16 17 18 18 19 19 18 18 18 18 18 18 18 18 18 17 17 17 17 16 16 15 15 15 15 14 13 13
2 2 2 3 3 4 5 6 7 8 10 11 12 13 14 15 17 18 18 19 18 18 18 17 16 16 16 15 15 15 15 14 14 14 13 13 13 12 12 11 10 10 9 9
3 3 3 2 3 3 4 5 6 8 10 12 13 14 16 17 17 18 18 17 17 17 16 15 15 14 13 13 13 13 12 11 11 10 9 10 9 9 8 7 7 7 6 6
4 4 4 3 4 4 5 6 7 9 10 12 13 15 16 17 17 17 17 16 15 15 14 13 12 11 11 11 10 10 9 9 8 8 7 7 6 6 5 4 4 4 3 3
5 5 5 5 5 5 6 7 8 10 11 13 14 16 17 17 17 16 15 14 14 13 12 11 10 9 9 8 8 7 7 7 6 5 5 4 4 3 3 2 1 1 0 1
6 5 5 5 6 6 6 7 9 10 12 13 14 15 16 16 16 15 15 14 13 13 11 10 9 8 7 6 6 5 5 4 3 3 2 3 2 3 3 3 3 3 3 3

GEFSCGP_500_meanwind_120.txt.gz
Wind_Speed
8 9 10 13 14 16 16 16 16 18 17 16 17 16 16 16 16 16 16 16 15 15 15 15 16 17 17 17 18 18 19 18 18 18 19 21 22 23 25 25 25 26 27 28
8 9 11 11 12 13 14 15 15 17 16 16 16 16 16 16 16 16 15 15 15 15 15 15 16 16 17 17 16 16 17 17 17 18 19 21 22 23 24 25 26 26 26 26
8 9 9 10 11 11 13 14 15 15 15 15 15 15 15 15 15 15 15 15 15 15 16 16 16 16 16 16 16 15 16 16 17 17 19 21 22 22 23 25 25 26 27 27
9 9 9 10 11 11 12 13 14 14 13 14 14 15 16 15 15 14 15 15 16 17 17 17 17 17 17 16 16 16 16 16 17 17 17 19 20 21 22 23 24 25 26 26
9 9 10 10 12 12 12 12 12 13 13 14 14 14 16 15 15 15 14 15 16 17 18 18 18 18 18 18 18 18 17 17 18 17 17 19 20 21 21 22 24 24 25 26
9 9 10 11 11 13 12 12 12 12 12 13 14 14 15 14 13 14 14 15 15 16 16 17 18 18 19 19 19 19 18 19 19 18 18 19 21 22 22 23 24 25 26 27
8 10 10 11 11 12 12 11 11 12 12 13 15 14 15 15 15 15 15 16 17 16 17 18 18 19 19 19 19 19 19 20 20 20 20 20 21 22 23 24 25 25 26 27
9 10 11 12 12 12 12 12 12 13 13 14 16 15 16 16 16 16 16 16 17 18 18 19 19 19 19 20 20 21 21 21 21 21 21 22 22 23 24 25 26 26 26 26
11 13 12 11 12 13 14 14 14 13 12 13 14 15 15 15 16 17 17 17 19 19 19 20 20 20 20 21 22 22 22 22 23 23 23 23 23 24 25 26 26 26 26 27
13 13 13 13 13 14 14 15 15 14 14 13 13 14 16 16 17 17 18 19 20 21 21 20 21 22 22 23 24 24 24 24 25 25 25 25 26 26 27 27 28 28 28 28
13 13 13 13 13 14 14 15 15 15 14 13 13 16 16 16 17 18 18 19 21 21 21 22 23 23 23 24 25 25 26 27 26 26 26 27 28 28 28 28 29 29 29 29
12 12 12 13 12 13 14 14 15 15 15 15 14 17 16 17 17 18 19 19 20 21 22 23 24 24 25 26 26 26 26 26 26 26 27 28 28 28 28 28 29 29 29 30
11 11 11 11 12 12 13 14 14 14 14 15 14 16 16 16 17 18 18 19 20 20 21 23 23 24 24 25 25 25 25 26 27 27 27 27 27 28 28 28 29 29 29 29
11 10 11 12 13 13 13 13 13 13 13 14 15 17 17 17 18 18 18 19 19 20 21 22 23 25 25 25 25 25 26 26 27 27 27 27 28 28 28 28 28 28 29 29
10 10 10 11 12 12 11 12 12 13 13 14 15 16 16 16 17 17 18 19 20 21 22 22 23 24 24 25 25 25 26 26 26 26 26 27 27 28 27 27 27 28 28 28
9 9 9 9 9 10 10 10 12 13 13 14 15 15 15 16 16 18 19 20 20 21 22 23 23 24 24 24 24 24 24 25 25 26 27 27 27 27 27 26 26 26 26 27
8 8 7 8 8 7 8 9 10 11 11 12 13 13 14 15 16 17 19 20 20 21 21 22 22 23 23 23 23 24 24 25 25 25 26 26 25 25 25 24 25 25 25 26
6 6 6 7 7 7 7 8 8 8 9 10 11 12 14 15 16 17 18 19 19 19 20 21 21 21 22 22 22 22 23 24 24 25 25 24 24 23 23 23 23 22 23 23
5 5 5 5 5 6 5 5 6 7 8 8 10 11 13 14 15 16 17 17 18 19 19 20 20 20 20 21 21 21 21 22 22 23 22 22 22 22 22 22 22 21 21 21
3 3 3 3 3 4 4 4 5 6 8 9 11 11 12 14 15 16 16 16 17 18 18 18 19 18 18 18 17 17 18 19 20 20 20 20 20 20 20 20 19 18 18 18
2 2 2 3 3 3 3 4 5 6 8 9 10 12 13 14 14 15 15 16 16 17 17 16 16 16 16 16 16 16 16 16 16 17 17 17 17 17 17 16 15 14 14 14
2 2 2 1 1 2 3 4 4 6 8 9 10 11 12 13 14 14 14 15 15 16 15 15 14 13 13 13 13 14 14 14 14 14 13 12 13 13 12 12 11 11 10 11
3 2 2 1 1 2 3 4 5 6 7 8 10 11 13 13 14 14 13 14 14 14 13 13 11 11 11 10 10 11 11 11 11 10 10 10 10 9 9 8 8 7 7 7
3 3 2 2 2 3 4 5 6 7 8 9 11 12 13 14 14 14 13 14 14 13 12 11 9 9 8 9 9 9 8 8 7 7 7 7 7 6 6 6 5 5 4 4
3 3 3 3 4 4 5 6 7 8 9 10 12 13 13 14 15 14 14 14 14 13 12 10 9 8 8 8 7 7 7 6 6 6 6 5 4 4 4 3 3 2 2 2
3 3 3 4 4 5 5 6 7 8 10 11 12 13 13 14 14 14 14 14 14 13 12 10 9 8 8 7 6 6 6 6 5 5 4 4 4 4 3 2 2 2 2 1

GEFSCGP_500_meanwind_126.txt.gz
Wind_Speed
8 8 8 8 9 11 11 12 15 15 17 15 18 19 19 17 16 16 18 19 19 18 18 19 20 20 20 20 20 21 21 22 23 24 24 25 25 25 25 25 25 25 25 24
6 7 8 9 11 12 12 13 15 16 17 16 17 17 17 16 16 16 18 18 18 17 18 20 19 19 20 20 20 21 22 23 24 24 25 25 24 25 24 23 23 23 23 23
7 8 10 11 11 12 12 14 15 15 16 15 16 17 17 16 17 17 18 19 19 18 19 20 20 20 21 21 21 22 23 24 24 25 25 24 24 23 22 22 22 22 22 22
8 9 10 12 12 13 14 14 15 15 17 19 19 19 19 18 17 18 19 19 19 19 19 20 21 21 22 22 22 22 23 23 24 24 23 23 22 21 21 21 22 22 22 22
8 9 11 12 12 12 12 14 14 15 17 19 19 19 20 19 21 20 19 19 19 20 19 20 21 21 22 22 22 22 22 23 23 23 22 21 21 21 20 21 21 21 21 21
9 9 11 11 11 12 12 13 14 16 19 20 20 20 21 21 20 19 19 19 18 20 21 21 21 21 21 22 22 23 23 23 23 22 22 21 21 21 21 21 21 20 21 21
11 11 11 11 11 12 13 13 14 16 19 19 19 21 22 22 21 19 19 18 18 21 22 22 22 22 23 24 24 24 24 24 24 24 23 24 23 22 21 20 20 21 21 22
11 11 12 12 12 12 14 14 15 16 17 16 18 21 21 18 18 19 18 19 20 21 22 23 24 24 24 25 26 26 25 25 25 25 25 24 24 23 22 21 22 22 22 23
10 10 10 11 12 12 13 14 16 17 17 16 18 18 18 17 17 17 18 20 21 22 24 25 25 25 26 26 27 27 27 27 27 26 26 25 25 25 25 24 25 25 24 25
10 11 12 12 11 13 13 14 16 16 16 16 16 18 18 18 17 18 19 21 22 24 25 26 26 27 28 28 28 28 28 28 28 27 27 27 27 27 27 26 26 26 26 27
12 11 11 13 13 14 15 14 16 16 15 16 17 19 18 18 18 19 19 22 24 25 27 26 28 28 28 28 28 28 28 28 28 28 28 28 28 27 27 27 27 27 27 28
14 12 12 13 14 13 14 14 16 17 18 18 20 21 20 20 21 21 22 24 26 26 27 28 27 27 28 28 27 28 28 28 28 28 28 28 28 28 28 27 27 27 27 28
14 13 12 12 14 15 15 15 16 18 19 18 18 20 21 20 21 22 23 24 24 26 26 27 27 27 27 27 27 27 27 27 28 28 29 29 28 28 28 28 28 28 28 28
13 13 13 12 13 13 13 13 15 17 18 18 20 21 22 22 22 23 23 23 24 25 27 27 27 27 27 27 27 27 26 26 26 26 26 26 27 27 27 27 27 27 28 28
12 11 11 11 11 11 11 12 14 16 17 18 19 21 21 21 22 23 23 24 25 26 27 27 27 27 27 27 27 27 25 25 25 25 26 26 26 27 26 26 26 26 27 28
10 9 9 9 8 9 11 12 13 15 16 17 19 20 20 20 21 22 23 24 24 25 25 25 26 26 26 26 26 26 26 26 26 25 25 25 26 26 26 25 25 26 26 26
8 8 8 7 8 9 9 11 12 14 14 16 17 18 19 20 21 22 22 22 23 23 23 23 24 23 24 24 24 24 24 24 24 23 23 24 24 24 24 24 25 25 25 25
7 7 6 6 7 8 9 10 11 12 14 15 16 16 18 19 21 21 21 22 22 22 22 22 22 22 22 23 23 23 24 24 23 23 24 24 24 24 23 23 24 23 22 22
5 5 5 5 6 8 10 10 11 12 12 13 14 15 17 19 20 20 21 21 21 21 21 21 21 21 21 21 21 21 21 21 21 22 22 22 23 22 22 22 22 22 21 21
4 4 4 5 6 8 9 9 9 11 12 13 14 14 16 17 18 19 19 20 20 20 20 20 20 19 19 20 20 20 20 20 20 20 20 20 21 20 20 20 20 19 18 18
4 5 5 6 7 8 7 7 8 10 11 12 13 14 15 16 17 18 18 18 19 19 18 18 17 17 17 18 17 17 17 18 18 17 17 16 16 15 16 17 17 17 16 16
4 5 5 6 6 6 7 7 8 9 10 11 12 13 14 15 16 16 17 17 17 17 16 16 16 16 16 15 15 15 15 15 15 15 14 14 13 14 14 14 14 14 14 13
5 5 5 6 6 6 6 6 7 8 9 10 11 12 13 14 14 15 17 17 17 16 15 15 15 14 14 13 12 12 11 11 11 11 11 12 12 12 12 11 11 10 11 10
4 4 4 4 4 5 5 6 6 7 8 10 11 12 13 14 14 15 16 16 16 16 15 15 14 12 11 10 9 9 9 9 9 9 10 10 10 9 9 9 8 8 8 8
4 3 2 3 3 4 4 5 6 7 8 9 10 11 12 13 14 16 16 16 16 16 14 13 12 11 10 9 8 8 8 8 9 9 9 8 8 8 8 8 7 6 5 5
3 2 2 2 3 3 4 5 6 7 8 9 10 11 12 13 14 15 16 16 16 16 14 13 12 11 9 9 8 8 7 8 8 8 7 6 7 7 6 6 5 4 4 3

GEFSCGP_500_meanwind_132.txt.gz
Wind_Speed
12 12 11 11 12 13 13 14 14 15 17 17 18 18 19 18 19 17 16 16 16 18 18 16 16 17 18 18 18 18 19 19 20 21 22 22 22 22 22 22 22 22 23 23
12 10 10 11 11 12 13 14 13 13 14 16 15 16 17 17 18 19 19 17 16 15 16 17 17 17 18 19 19 19 19 20 21 21 22 23 24 24 24 23 23 23 22 22
10 10 11 11 11 12 12 14 13 13 14 16 15 15 17 18 18 19 18 17 16 15 14 15 16 17 18 19 19 20 21 21 21 22 22 23 24 24 24 24 24 24 23 22
10 10 11 11 11 12 12 13 13 13 14 15 15 16 17 20 21 21 20 18 17 16 14 15 16 16 18 19 20 20 21 21 21 21 22 22 23 23 23 23 23 21 21 21
9 10 11 12 12 12 13 12 13 14 14 16 16 17 17 19 20 20 20 18 17 16 15 16 16 17 18 19 20 21 21 22 22 22 23 23 22 23 23 22 21 21 21 20
8 10 11 12 12 13 12 12 14 15 15 17 17 19 19 20 19 21 21 19 18 18 17 17 18 19 19 20 20 21 22 23 23 23 23 23 23 23 22 21 21 21 21 21
8 10 11 12 13 14 14 14 14 14 15 17 17 20 20 19 19 19 20 20 20 18 17 17 17 19 20 21 22 23 23 24 24 24 24 24 24 23 22 21 20 21 22 22
7 9 11 13 14 15 14 15 16 16 17 17 18 20 20 19 20 21 20 20 21 20 19 19 19 20 21 22 23 23 23 24 25 25 25 25 25 24 23 22 22 22 22 21
8 9 12 14 15 15 13 15 17 18 18 18 18 19 20 20 20 20 21 21 21 22 22 21 20 20 22 22 23 23 23 24 24 26 26 26 26 25 24 23 23 22 22 22
9 8 11 13 14 15 15 16 17 18 19 19 19 19 19 19 19 20 20 19 18 19 20 20 21 21 22 22 23 23 23 24 24 25 26 26 26 26 25 25 24 23 23 23
10 10 10 12 13 14 14 15 16 16 16 16 17 17 18 18 18 19 19 19 19 19 19 19 20 22 23 23 23 23 23 24 25 25 26 26 26 26 25 25 25 24 24 23
12 12 12 12 12 13 14 14 14 15 16 16 17 17 17 17 17 17 16 17 18 19 20 21 21 21 22 22 23 23 24 24 24 24 24 26 26 25 25 25 24 24 24 24
12 12 12 12 13 12 13 13 13 15 16 16 16 17 17 18 18 18 18 17 18 19 20 21 22 22 22 23 24 24 24 24 24 24 24 25 24 24 25 24 24 24 24 24
11 12 12 12 11 10 11 12 13 14 15 15 15 16 16 16 17 17 17 18 20 21 21 20 21 22 22 23 24 25 24 24 24 24 24 23 23 22 23 24 23 23 23 24
9 10 10 10 10 10 11 10 11 12 12 13 14 15 16 17 18 18 19 20 20 21 21 21 20 21 22 22 23 23 23 23 23 22 21 21 21 22 22 23 23 23 23 23
8 8 9 9 10 10 8 7 9 10 11 12 13 14 16 17 18 19 20 21 20 20 20 21 20 21 21 22 22 22 22 22 21 20 20 21 21 22 22 23 24 23 23 22
7 7 7 8 9 9 8 8 9 9 11 12 14 14 16 18 19 20 20 20 20 19 19 20 20 20 20 20 21 21 21 21 21 21 21 21 21 21 22 22 22 22 22 22
6 6 6 6 7 8 8 8 8 9 10 12 13 14 15 16 17 19 19 19 19 18 17 18 19 18 19 19 19 19 19 19 20 20 20 20 21 21 20 20 20 20 20 20
5 5 5 5 6 7 7 7 8 9 9 10 12 13 13 14 16 17 17 18 18 17 17 17 18 18 18 18 17 17 17 18 18 18 18 18 18 18 18 19 19 19 19 18
4 4 4 5 6 6 6 6 7 8 8 9 11 12 12 13 15 16 16 16 16 16 17 17 18 17 16 16 16 15 16 16 16 16 16 16 16 16 17 16 16 16 16 16
3 4 4 5 5 5 5 6 6 7 8 9 10 11 12 13 14 15 15 16 16 16 17 17 17 16 15 14 14 14 14 13 13 13 13 13 13 13 13 13 13 13 13 13
3 3 3 4 4 4 4 5 6 7 8 9 10 11 12 13 14 15 15 16 16 16 17 17 16 14 13 12 11 11 11 11 11 11 11 10 10 10 10 10 11 11 11 11
3 3 2 3 3 3 4 5 6 7 8 9 10 10 12 13 14 15 15 16 16 16 16 16 15 13 12 10 10 9 10 10 10 9 8 8 8 9 10 10 10 9 9 9
3 3 3 3 3 3 4 5 5 6 7 8 9 10 11 12 13 14 15 16 16 16 16 15 14 13 11 9 9 9 10 10 9 8 8 8 9 10 10 9 9 8 7 7
2 2 3 3 3 3 4 4 5 7 8 8 9 9 10 12 13 13 14 15 15 15 15 15 14 13 11 10 9 9 10 10 9 9 9 9 10 10 9 9 9 9 8 7
2 1 2 2 2 2 3 4 5 6 8 8 8 9 10 11 13 13 14 15 15 15 15 14 13 13 12 12 11 10 10 11 11 10 10 10 10 9 9 10 10 9 8 7

GEFSCGP_500_meanwind_138.txt.gz
Wind_Speed
13 14 15 17 18 19 20 20 21 22 24 24 23 23 23 23 23 23 23 22 22 22 22 22 22 22 23 23 22 22 21 21 21 21 21 21 22 23 23 24 25 25 25 25
12 13 15 17 18 19 20 20 20 22 23 23 23 23 24 24 22 22 22 22 21 21 21 22 23 24 24 23 23 21 22 21 21 21 22 23 23 24 24 24 24 24 25 25
12 12 13 15 16 17 18 19 20 21 22 23 23 23 22 21 20 21 21 21 20 19 20 22 24 24 24 24 24 22 22 22 22 22 22 23 24 24 24 25 26 26 26 25
11 12 13 14 15 15 16 17 18 19 20 21 21 22 21 21 20 20 19 18 18 20 21 22 24 24 24 24 24 23 23 24 24 23 24 24 24 25 26 26 27 27 26 26
11 12 12 13 13 14 15 15 16 17 18 19 20 20 19 19 19 18 17 17 18 18 19 20 22 23 24 24 23 23 24 25 25 25 25 25 26 26 26 27 27 28 27 27
10 11 12 13 14 15 15 15 16 16 17 18 18 20 19 18 17 17 17 17 17 18 19 20 21 23 24 24 25 26 26 26 26 25 25 26 27 27 27 27 28 28 27 27
10 11 12 14 14 15 15 15 16 17 17 18 17 18 18 17 17 17 17 17 17 18 19 20 21 23 23 25 26 26 25 25 25 25 26 27 27 28 28 28 28 28 27 26
11 12 13 13 14 15 16 16 17 18 18 18 18 19 18 17 18 18 18 18 18 18 19 20 21 22 22 24 25 24 25 26 26 26 26 27 26 27 27 27 27 27 27 26
11 12 13 13 14 15 16 17 18 18 18 19 19 18 18 18 18 18 18 18 19 19 19 19 19 20 21 22 24 24 25 26 25 26 26 26 27 27 27 27 27 27 27 26
10 11 11 12 13 14 15 15 17 18 19 19 19 18 18 17 17 17 18 18 18 18 19 19 19 19 20 22 23 24 24 25 26 26 27 27 28 28 28 28 27 27 27 27
11 11 11 12 13 14 14 15 15 16 17 19 19 17 17 17 16 17 18 19 19 20 20 20 20 20 21 22 22 23 24 25 25 25 26 27 27 28 28 28 28 27 27 27
12 12 12 12 13 14 14 14 15 16 17 17 18 16 15 16 16 17 18 18 19 19 19 19 19 20 21 22 23 23 24 24 24 25 25 25 26 27 27 27 28 28 28 28
12 12 12 12 12 13 13 13 14 15 15 15 15 14 14 15 16 17 18 18 18 18 19 20 20 20 21 22 23 23 23 24 24 25 26 26 26 26 26 27 27 27 27 28
12 12 12 11 11 11 12 13 13 14 14 14 14 14 14 15 16 17 18 18 18 19 19 20 20 20 21 22 22 23 23 24 24 25 26 25 25 25 25 25 26 26 27 27
11 11 11 11 10 11 12 12 12 13 13 14 14 15 15 16 17 17 17 18 18 18 19 19 20 20 20 21 22 23 23 23 23 24 24 24 24 25 24 24 24 24 24 25
11 11 11 10 9 10 11 11 11 12 12 13 14 15 15 15 16 17 17 17 17 18 18 19 19 20 20 20 21 21 22 21 21 22 22 23 23 23 23 23 22 22 23 23
11 11 10 9 8 10 10 10 10 11 12 13 14 14 14 14 15 16 17 17 17 17 17 17 18 18 19 19 20 20 21 21 20 20 21 20 21 20 20 21 21 21 22 22
10 10 10 9 8 9 8 9 10 11 11 12 12 11 12 13 14 15 16 16 16 16 16 16 16 17 17 18 18 19 19 18 18 18 18 18 19 19 19 19 20 20 21 21
9 9 9 8 7 7 6 8 9 10 10 10 10 11 12 13 15 15 15 15 15 15 15 14 15 16 16 17 17 16 15 15 15 16 16 16 17 17 17 17 17 18 18 19
7 7 7 7 7 7 6 7 8 8 8 8 9 10 12 13 14 14 14 14 14 14 14 14 15 15 15 15 14 14 13 13 13 13 14 14 14 14 15 15 15 16 16 17
7 6 6 6 6 5 5 6 7 8 8 8 9 10 12 12 12 13 13 12 13 13 14 14 14 14 14 13 13 12 12 12 12 12 12 12 12 12 12 13 13 14 14 14
6 5 5 5 5 5 5 6 7 7 7 8 9 10 11 12 11 12 12 12 13 13 14 14 14 13 13 12 12 12 12 11 11 11 11 11 11 11 11 11 11 12 12 12
6 6 5 5 5 5 5 5 6 7 7 7 8 9 10 10 11 12 12 12 12 13 13 14 13 13 12 12 12 11 12 11 11 11 10 10 10 10 10 11 11 11 11 10
7 6 6 5 6 6 5 6 6 6 7 7 8 8 9 10 11 12 12 12 12 13 13 14 13 13 12 12 12 12 12 12 12 11 11 10 10 10 11 11 11 10 9 9
8 7 6 5 5 5 5 5 6 6 6 7 7 8 9 9 10 11 12 12 13 13 13 13 13 13 13 13 13 13 12 12 12 12 11 11 10 10 10 10 10 10 9 10
8 7 6 5 5 5 4 4 4 4 5 6 7 7 8 9 10 11 12 12 12 13 13 13 13 13 13 13 13 13 13 13 12 12 12 11 11 10 10 10 10 10 10 10

GEFSCGP_500_meanwind_144.txt.gz
Wind_Speed
8 9 10 11 12 13 13 14 15 17 17 18 19 20 20 20 21 21 22 23 23 24 24 23 24 24 25 25 25 25 26 26 26 27 27 26 26 26 26 26 26 26 27 27
7 9 10 11 11 12 13 14 15 17 17 18 19 21 21 21 21 22 22 22 23 23 23 23 23 24 25 25 25 25 26 27 27 28 27 26 26 26 27 27 26 26 28 29
9 10 10 11 11 12 13 14 15 16 17 18 20 20 21 21 21 21 21 21 22 23 23 24 24 24 26 26 26 27 27 28 29 28 28 27 27 27 27 27 27 27 28 29
9 10 10 10 10 10 12 14 15 16 16 17 18 18 20 21 21 22 22 22 22 23 25 25 25 25 26 27 27 28 28 28 29 29 29 28 28 28 28 28 28 29 30 31
9 9 10 10 11 11 12 13 14 15 15 16 17 17 19 21 21 22 23 23 23 24 24 25 25 25 26 26 27 28 28 28 28 29 29 30 29 29 28 28 28 29 30 31
9 10 11 12 12 12 13 13 14 14 14 15 16 18 18 20 21 21 22 22 22 22 23 24 24 25 26 26 27 27 28 28 28 28 28 28 28 28 28 28 29 30 30 30
9 10 11 12 12 13 14 13 13 14 15 16 18 18 19 20 20 20 20 20 21 21 22 23 24 25 26 27 27 28 27 27 27 27 27 27 28 28 28 29 29 30 30 30
9 11 12 12 13 14 14 14 14 15 15 16 19 20 19 19 19 18 18 19 19 20 21 22 23 24 25 26 26 27 27 27 27 28 27 28 28 28 28 29 29 29 30 31
10 11 12 12 13 14 15 15 16 17 17 17 18 20 19 19 19 19 19 19 19 19 20 21 22 23 23 24 25 25 25 26 26 27 27 28 28 29 29 29 30 30 31 31
11 11 12 13 13 13 14 15 16 16 16 17 16 18 19 18 18 18 18 18 19 19 20 21 21 21 22 23 23 24 25 25 26 26 27 28 28 29 30 30 31 31 31 31
11 11 12 12 12 13 13 14 15 15 16 16 15 16 19 18 18 17 17 17 18 19 19 20 21 21 22 22 22 23 24 24 24 25 26 28 29 29 30 30 30 31 31 32
11 11 11 12 12 13 14 14 14 15 15 15 15 16 17 17 16 17 16 16 17 18 19 20 20 21 21 22 23 23 24 24 24 25 26 27 28 28 28 28 29 30 30 31
11 11 11 11 12 12 13 13 13 13 14 14 14 15 16 16 15 15 16 16 17 18 19 20 20 21 21 22 23 23 23 24 24 24 25 26 26 27 27 26 27 28 28 29
11 11 11 11 12 13 13 13 13 13 13 14 14 14 15 15 15 15 16 17 17 18 19 20 20 21 21 21 21 22 23 24 24 24 24 25 26 26 26 26 26 26 27 27
12 12 12 12 13 13 13 13 13 13 12 12 13 13 14 15 15 15 16 16 18 18 19 20 20 21 21 21 21 22 23 23 24 24 24 24 25 24 24 24 24 24 25 24
13 13 13 13 14 13 13 12 12 12 12 12 13 13 14 14 14 15 15 16 17 18 18 19 19 20 20 20 21 21 22 22 22 22 23 22 21 20 21 21 21 21 22 22
13 13 13 12 13 13 12 11 12 11 11 12 12 12 12 12 13 14 14 15 15 16 17 17 18 18 18 18 19 19 19 19 20 20 19 19 19 19 18 18 18 18 18 19
13 13 12 12 12 12 11 11 10 10 10 10 11 11 11 11 12 13 13 14 14 15 15 15 16 15 15 16 17 17 17 17 17 17 16 16 16 16 16 16 16 16 17 18
13 12 12 12 12 11 10 9 9 10 9 9 9 9 10 11 11 12 12 13 14 13 13 13 14 14 14 14 15 16 15 15 15 15 15 14 14 14 15 15 15 15 16 16
14 12 12 11 11 10 9 9 9 9 8 8 8 8 9 10 10 11 11 12 12 12 13 13 13 13 13 14 14 13 13 14 14 13 13 13 13 13 13 13 13 13 13 12
13 12 11 10 10 9 8 8 7 7 7 7 7 7 8 9 9 10 11 11 11 12 12 12 12 12 12 12 12 12 12 12 12 12 12 12 12 11 12 12 12 12 12 11
13 12 11 10 9 8 7 7 6 6 6 6 6 6 7 8 9 9 10 10 10 10 11 11 11 11 11 11 11 12 12 11 11 11 11 11 11 11 11 11 11 11 11 11
12 12 11 10 9 8 7 7 6 5 5 5 5 6 6 7 8 8 8 9 9 9 10 11 11 11 11 11 11 11 11 11 11 11 10 10 10 10 10 10 10 10 9 10
13 12 11 10 9 8 7 7 6 5 4 5 5 5 6 6 6 7 7 8 8 9 10 11 11 12 12 12 12 11 11 11 12 11 11 10 10 10 10 10 10 10 9 9
13 12 10 9 8 8 7 6 5 4 4 4 4 5 5 5 6 6 7 8 8 8 9 10 11 12 12 12 12 12 12 12 11 11 11 11 10 10 10 10 10 10 10 10
13 12 10 9 8 8 7 6 5 4 4 3 3 4 4 4 5 6 7 7 8 9 10 11 11 11 12 12 12 12 13 12 12 11 11 11 11 11 10 11 11 10 10 10

GEFSCGP_500_meanwind_150.txt.gz
Wind_Speed
4 5 6 6 7 8 10 10 13 14 15 17 17 18 19 17 19 22 23 24 24 25 25 25 25 24 25 26 26 27 27 27 27 28 27 28 28 29 29 29 30 29 29 30
3 6 7 9 9 9 11 12 14 14 15 18 18 18 19 18 20 22 24 25 24 25 26 26 26 26 26 26 27 26 27 28 28 29 29 29 29 29 29 29 30 30 31 31
5 10 11 10 9 10 10 11 14 15 16 17 17 19 19 21 22 23 24 25 25 25 26 27 27 28 28 28 28 28 29 29 30 30 30 31 31 31 31 30 31 31 31 31
8 10 10 10 10 11 11 13 15 16 16 15 16 18 20 21 23 24 24 25 25 26 27 27 28 28 29 29 29 29 30 30 30 31 31 32 32 32 32 31 30 30 30 30
7 10 10 10 11 12 13 15 15 15 15 16 16 19 22 22 23 25 26 25 25 28 29 28 27 28 29 29 28 29 29 30 31 31 31 32 32 32 31 31 31 31 30 31
9 11 12 12 13 13 14 15 14 14 15 18 19 22 22 21 23 25 25 25 26 27 27 26 27 28 28 28 28 29 29 30 31 32 32 32 32 32 32 32 31 31 31 30
10 11 13 13 13 13 14 13 14 15 16 19 19 20 21 21 24 25 26 26 27 26 27 26 26 26 26 26 27 28 29 30 30 31 31 31 31 32 32 32 32 32 31 31
11 12 13 14 14 14 13 12 15 17 16 18 18 19 20 22 22 24 26 27 27 27 26 25 25 25 25 26 26 27 27 28 29 30 30 30 31 31 31 32 32 32 32 31
12 12 12 14 14 14 13 13 15 18 18 18 17 20 23 24 22 23 25 27 27 26 25 25 25 24 24 25 26 26 27 28 29 29 29 29 30 30 31 31 32 31 30 30
14 14 13 13 13 13 14 15 14 16 18 19 18 21 23 24 24 22 23 25 25 24 23 23 23 24 24 25 26 26 27 28 29 29 29 29 29 28 28 29 30 29 28 29
15 15 13 12 12 13 15 15 16 17 18 19 20 21 22 24 24 24 24 23 23 23 23 23 24 24 25 26 26 26 27 28 28 28 28 28 27 27 28 28 28 28 28 29
15 15 14 13 13 14 14 15 16 18 18 19 20 20 19 22 22 23 23 22 23 23 23 22 22 23 24 24 25 25 26 26 26 26 26 26 27 27 28 27 27 28 29 29
15 15 15 13 13 13 14 15 15 17 16 17 19 20 21 21 22 23 22 22 23 23 22 22 22 22 23 24 24 24 24 24 25 25 25 25 26 26 26 26 26 26 27 28
16 15 15 15 15 14 13 13 15 16 16 18 19 20 20 21 21 21 20 21 22 22 21 21 21 22 22 23 23 23 23 24 24 24 24 24 25 25 25 25 25 25 25 24
17 17 16 15 15 14 14 14 15 16 17 18 19 21 20 20 19 20 21 20 20 21 20 21 21 21 22 22 22 22 22 23 23 23 22 23 23 23 22 23 22 22 23 22
18 18 17 17 16 15 16 15 16 17 18 18 19 20 18 18 19 20 20 19 19 19 19 20 20 21 22 22 22 22 22 22 22 22 21 21 21 20 21 21 21 21 20 20
18 18 18 17 17 17 16 15 15 16 16 17 17 18 18 17 18 18 18 17 17 18 19 20 20 20 21 21 21 21 21 21 21 20 20 20 19 19 19 20 20 19 19 19
18 18 18 17 17 17 15 14 15 17 17 17 16 18 17 17 16 16 16 15 16 17 19 20 20 20 20 20 20 20 20 20 19 19 18 18 18 18 18 19 19 17 17 17
18 18 18 18 18 18 16 14 14 17 17 17 16 16 16 16 15 14 14 14 15 16 18 19 19 19 19 19 18 19 19 19 18 18 17 17 17 17 17 17 17 16 16 16
17 18 18 18 18 18 16 15 14 15 15 15 15 14 14 14 14 13 13 14 15 16 17 18 18 18 17 17 17 17 18 18 18 17 16 16 16 16 16 15 15 15 14 14
17 18 18 18 18 17 15 14 14 14 14 14 13 14 14 13 12 13 13 14 14 15 16 17 17 17 16 16 15 15 16 17 17 16 15 15 16 15 15 13 13 13 14 13
18 18 17 17 16 16 14 14 13 13 13 12 13 13 12 12 11 12 12 13 13 14 15 15 15 15 15 15 14 14 15 16 16 16 16 15 15 13 13 12 13 13 13 12
17 17 17 17 16 15 14 13 13 12 12 12 11 11 11 11 10 11 11 12 12 13 13 14 14 14 14 14 14 15 15 15 15 16 15 15 14 13 13 12 13 12 12 12
17 17 17 16 16 14 13 12 12 11 12 11 10 10 10 10 10 10 10 11 12 13 13 14 14 14 14 14 14 15 15 15 15 15 15 14 14 14 13 13 12 12 12 12
17 17 16 15 13 13 13 11 11 11 10 10 10 9 9 9 9 9 10 10 11 12 12 13 13 13 13 14 14 15 15 15 15 14 14 14 15 15 14 13 13 12 13 13
17 17 17 16 13 13 12 11 11 10 10 10 9 8 8 8 8 8 8 8 9 10 10 12 13 13 14 14 14 15 15 14 14 14 14 14 15 15 15 14 13 13 14 14

GEFSCGP_500_meanwind_156.txt.gz
Wind_Speed
9 10 10 11 11 11 11 12 12 13 14 15 15 16 17 18 18 18 19 18 17 18 18 19 21 21 22 23 23 24 24 24 24 24 25 26 27 26 26 26 27 28 28 27
8 8 9 10 11 11 11 11 12 13 15 16 16 18 18 18 19 20 20 18 19 19 20 20 22 22 23 24 25 25 25 26 26 26 26 27 28 27 28 28 29 29 29 29
7 8 9 10 10 11 12 11 12 14 15 17 17 18 18 18 18 19 19 19 20 20 21 22 23 23 24 24 25 25 25 26 26 26 27 27 28 28 29 29 30 30 30 30
5 6 8 9 10 12 12 12 12 13 15 15 17 18 16 18 19 19 19 20 20 21 21 21 23 23 24 24 25 25 26 26 27 27 27 28 28 29 29 30 31 31 31 31
5 6 8 9 10 13 13 13 14 15 15 17 17 19 16 17 19 19 20 20 21 22 22 23 23 23 25 26 25 25 26 26 27 27 28 28 28 29 30 31 31 31 31 31
6 8 8 9 11 13 13 13 14 15 17 17 16 19 18 18 20 20 21 21 22 23 22 23 23 24 24 24 25 26 26 26 26 27 27 28 29 29 30 30 30 30 30 30
8 9 10 11 11 12 13 14 15 15 16 16 17 19 19 19 18 18 20 20 20 21 21 22 23 24 24 24 25 25 25 25 26 27 28 28 28 28 28 28 28 28 29 28
10 10 11 12 12 13 13 14 15 17 17 17 18 19 19 18 18 19 19 20 20 20 20 20 21 23 23 24 24 25 25 26 27 27 28 28 28 28 28 28 28 27 27 27
11 11 12 13 14 15 14 15 16 17 18 18 18 18 18 18 18 19 20 20 19 20 21 21 22 23 24 25 25 25 25 25 26 27 27 28 28 28 28 28 28 27 27 27
14 14 13 14 14 15 16 17 16 16 18 18 17 17 19 18 19 19 18 18 19 20 21 20 21 23 24 25 25 25 25 26 25 25 26 26 27 27 27 27 27 27 26 26
17 17 15 14 15 16 16 17 17 17 18 20 20 18 17 18 16 17 18 19 19 19 20 21 22 23 23 23 23 23 25 25 25 25 25 26 25 26 26 25 25 25 24 24
18 18 17 16 15 15 16 16 17 18 18 19 20 18 16 16 16 17 18 19 19 20 21 21 21 21 22 22 22 23 24 24 24 24 25 25 25 24 23 23 22 23 23 23
18 18 18 16 16 16 16 16 16 17 18 18 18 19 16 16 17 17 19 19 19 20 20 20 21 21 21 22 22 23 23 23 23 24 24 23 22 22 22 21 21 21 21 22
18 18 17 17 17 17 17 17 16 17 18 18 17 17 17 17 18 18 18 19 19 18 18 19 20 20 21 21 22 22 22 22 23 23 22 21 21 21 21 21 21 20 20 20
19 19 18 18 18 18 18 17 17 18 17 17 16 17 17 17 17 16 17 17 17 16 18 18 19 19 19 20 21 21 21 21 21 21 20 20 20 19 20 20 20 19 18 18
20 19 19 19 18 18 18 18 18 18 18 17 17 17 16 16 15 16 16 16 16 15 16 17 18 18 19 20 20 20 20 19 19 19 19 19 19 19 18 18 17 17 17 17
20 20 20 20 19 19 18 17 18 17 17 17 16 15 15 15 15 15 14 14 15 15 16 16 17 17 18 18 19 19 20 19 18 18 18 18 18 18 17 16 16 16 16 16
19 20 20 20 20 20 16 16 16 16 16 16 16 15 14 14 14 13 13 14 15 15 15 16 17 17 17 18 18 18 19 17 16 16 17 17 17 17 16 16 16 15 15 15
18 20 20 20 20 19 15 14 14 15 15 14 14 13 12 12 12 12 13 14 15 15 14 15 16 16 17 17 17 17 17 16 16 16 16 16 16 15 16 15 15 15 14 14
17 18 19 19 19 17 14 13 13 14 13 12 13 12 11 11 11 12 12 13 13 12 13 14 15 16 16 16 17 16 16 15 15 15 15 15 15 15 14 14 14 14 14 14
18 18 18 18 17 15 14 13 13 13 12 12 11 11 10 10 10 11 11 12 11 11 12 13 14 15 15 16 16 15 15 14 14 15 15 16 15 15 14 14 13 13 13 14
18 17 16 16 16 14 13 12 11 12 11 10 11 10 9 9 9 9 10 10 10 10 11 13 13 14 15 15 14 14 14 14 14 14 15 15 15 14 14 13 13 13 13 14
18 17 16 15 14 13 12 11 11 11 11 10 9 8 8 8 8 9 9 8 9 9 11 12 13 13 14 14 14 14 14 14 14 14 14 14 14 14 14 14 14 14 14 14
17 17 16 15 13 13 12 11 11 11 9 8 6 6 7 6 6 7 7 7 7 8 10 11 11 12 13 13 14 14 14 14 14 14 13 14 14 14 14 14 14 15 15 14
15 14 14 14 13 12 11 11 11 10 9 8 6 5 5 4 5 6 6 6 7 8 9 10 11 12 12 13 14 14 14 14 13 13 13 13 14 14 14 14 15 15 15 15
14 14 14 13 12 12 11 11 11 9 9 8 7 6 4 4 4 4 4 5 6 7 8 10 11 11 12 13 14 14 14 13 12 13 13 13 14 15 15 16 16 16 16 15

GEFSCGP_500_meanwind_162.txt.gz
Wind_Speed
9 10 11 12 13 15 17 17 17 18 19 21 21 21 20 19 19 19 20 20 20 21 20 20 20 21 21 20 20 21 22 24 24 24 25 25 26 26 27 28 28 29 30 30
7 9 11 12 13 14 16 16 17 17 18 19 20 20 19 19 20 20 20 20 20 20 20 20 21 20 20 21 21 22 23 23 24 25 26 25 26 27 28 29 30 31 31 30
7 9 10 11 13 15 16 16 17 17 17 19 19 19 18 19 19 20 20 20 20 20 20 20 19 19 19 21 21 23 23 24 25 26 26 27 27 28 29 30 30 31 31 31
8 10 12 12 13 15 16 17 18 18 18 18 18 19 18 18 19 19 19 19 19 20 19 18 18 19 20 21 22 23 24 25 27 27 26 27 28 29 29 30 30 30 31 32
9 10 12 13 14 16 17 17 17 18 19 19 18 20 19 18 18 19 19 20 19 20 19 19 19 20 21 23 23 24 25 26 27 27 26 27 29 29 29 29 29 29 30 30
9 10 10 12 14 16 17 17 17 18 18 18 18 20 19 19 19 20 20 20 20 20 20 19 20 22 23 23 24 24 26 26 27 26 26 27 28 28 29 29 29 29 29 29
9 10 11 13 14 15 16 17 18 19 18 19 19 20 20 19 19 19 20 20 20 20 20 21 22 22 23 24 24 25 26 26 26 26 26 27 28 27 28 28 28 28 28 29
12 12 13 14 15 16 16 17 18 20 20 19 19 20 20 20 20 20 19 19 20 20 20 21 22 23 24 24 24 24 25 25 25 26 26 26 26 26 26 27 28 29 29 29
14 14 14 15 16 17 17 18 19 21 22 21 21 20 19 19 20 20 20 20 20 20 20 21 22 23 23 23 23 23 23 23 24 24 25 25 25 25 25 26 27 27 28 28
17 17 16 17 17 18 20 20 21 22 23 24 22 19 19 19 20 21 20 20 19 20 20 21 21 22 22 22 22 23 23 24 23 23 23 23 24 25 25 25 25 26 26 26
18 19 19 19 19 20 20 20 21 22 23 24 23 20 20 20 20 20 20 20 19 20 20 20 20 19 20 21 22 23 23 23 23 23 23 23 24 24 24 24 24 24 24 24
19 20 21 20 20 21 21 20 21 22 22 23 24 21 20 20 20 19 19 19 19 19 19 18 18 18 20 20 22 23 23 23 23 22 23 23 23 23 23 23 24 24 23 24
21 21 22 21 20 20 21 21 22 23 23 23 23 22 21 21 20 19 19 19 18 18 17 18 18 19 19 20 22 23 23 22 22 22 22 23 23 23 23 23 23 23 22 22
21 22 22 21 21 21 21 21 21 22 24 24 23 23 21 19 19 19 18 18 18 17 17 18 18 18 19 21 22 23 21 21 21 22 22 22 22 22 22 22 22 22 22 21
22 22 22 21 21 21 21 21 22 23 24 25 23 23 21 19 19 19 19 18 17 17 18 18 18 18 19 20 20 20 20 20 20 21 22 22 22 22 21 21 21 21 21 21
23 23 22 21 20 20 20 21 22 22 22 23 23 22 20 19 18 18 18 18 17 18 18 18 18 18 18 19 19 19 19 20 20 21 21 21 21 20 19 19 19 19 19 20
23 23 23 22 20 20 20 20 21 21 20 20 20 20 19 18 18 18 17 17 17 18 18 17 17 16 17 18 18 18 19 19 19 19 19 19 18 18 17 17 17 17 18 17
23 23 24 23 21 21 19 19 19 19 18 19 18 19 19 18 17 17 17 17 17 17 16 15 16 16 16 16 17 18 18 18 18 17 17 17 17 16 16 16 16 16 16 16
22 22 23 23 22 22 20 19 18 18 18 18 17 17 16 15 15 15 16 15 14 14 14 14 14 14 14 15 16 17 16 17 16 16 16 15 15 15 16 15 16 16 16 16
21 21 21 21 22 22 20 19 18 18 16 16 16 15 13 12 12 12 13 13 11 11 11 13 13 13 13 14 15 15 15 15 15 15 14 14 14 15 15 15 16 16 16 16
21 20 20 20 20 20 19 18 17 16 15 15 14 13 12 11 10 10 10 11 10 10 10 11 11 12 12 13 13 14 13 14 14 14 13 14 14 15 15 15 16 16 17 17
21 20 20 20 20 18 18 17 16 15 14 13 13 12 12 11 9 9 8 8 8 9 9 9 10 11 11 11 11 12 12 12 13 14 14 14 14 14 15 16 16 17 17 17
21 21 19 18 17 17 17 17 15 15 14 13 12 10 10 10 8 8 8 7 7 8 8 8 9 9 9 9 10 11 11 12 13 14 14 14 15 15 16 17 17 17 17 18
19 19 18 16 15 16 16 15 15 14 13 12 12 10 9 8 7 8 8 6 6 6 6 6 7 8 8 8 9 11 12 13 13 13 14 15 15 16 17 17 18 18 18 18
17 17 16 14 14 14 14 15 15 13 12 12 11 10 9 7 6 6 6 6 6 5 5 6 7 8 8 8 9 11 12 13 13 14 14 15 16 17 17 18 19 19 19 19
16 16 15 14 14 15 14 15 14 12 11 11 11 10 9 7 6 6 6 6 5 4 4 5 6 7 7 8 10 11 12 12 14 14 15 16 17 18 18 19 19 19 19 19

GEFSCGP_500_meanwind_168.txt.gz
Wind_Speed
4 6 8 10 11 12 13 14 15 16 16 16 17 18 18 18 18 19 20 20 19 20 21 22 23 23 23 24 24 24 25 26 25 25 26 26 27 28 29 30 30 30 30 30
4 7 8 10 11 12 13 13 14 15 16 17 18 19 19 19 19 20 20 20 19 19 20 21 21 21 22 23 24 25 25 26 25 26 26 26 27 27 28 29 30 30 29 29
6 8 9 9 11 11 12 13 14 14 16 17 18 17 18 18 19 19 19 18 18 19 20 21 21 22 22 22 23 24 25 25 26 26 26 27 27 28 28 29 30 30 30 30
7 9 9 10 11 11 12 13 14 15 16 16 16 16 17 18 19 19 18 19 19 20 20 21 21 22 23 23 24 24 25 25 26 27 27 27 28 29 29 29 29 30 30 29
9 9 10 10 11 12 13 14 15 16 16 17 17 17 17 18 18 19 19 20 20 20 20 21 22 22 23 23 24 25 26 26 26 27 28 28 28 29 30 30 29 29 29 29
10 10 11 12 12 13 13 14 15 15 15 16 17 17 18 17 19 20 19 19 19 20 20 21 22 22 23 23 24 25 25 26 26 27 27 27 28 29 29 29 28 28 28 28
10 11 12 12 13 14 14 14 14 14 15 16 18 17 17 18 19 20 20 20 20 20 20 20 21 21 22 23 24 25 25 26 26 26 26 26 27 28 28 28 28 28 28 27
11 11 12 13 14 15 15 15 16 17 17 17 17 17 18 19 20 20 20 19 19 19 19 20 20 21 21 22 23 24 24 25 25 25 26 26 26 27 27 27 27 27 26 26
13 13 13 14 15 15 16 16 17 19 20 20 19 19 19 19 19 20 19 18 18 18 19 19 20 20 20 21 22 22 22 23 24 25 26 26 26 26 25 25 24 24 24 25
15 15 15 15 15 16 16 16 17 18 19 20 20 19 19 19 20 20 19 18 18 19 19 19 19 19 19 19 20 21 21 23 24 25 25 25 25 24 24 23 23 22 23 24
17 17 17 16 15 15 17 17 17 18 19 20 20 20 20 20 19 18 17 18 18 19 19 19 19 18 18 19 20 21 22 22 23 24 24 23 23 23 22 22 22 22 23 23
17 17 17 17 16 16 16 17 17 18 19 20 20 21 20 21 20 19 19 19 19 19 19 19 19 18 18 18 19 20 21 22 22 22 23 22 22 21 21 21 21 22 22 22
17 17 17 17 17 18 18 18 18 18 19 19 20 21 21 21 20 20 20 20 20 19 19 18 19 19 18 18 18 19 20 21 22 22 22 23 22 21 20 20 21 21 21 21
18 17 17 17 17 17 18 19 19 19 19 20 21 21 21 21 21 20 20 20 20 18 18 18 18 18 18 18 18 18 19 21 21 21 21 21 21 20 20 19 19 20 20 20
18 18 18 18 18 18 18 19 19 20 20 21 21 21 21 20 19 19 18 18 19 18 17 18 18 17 17 17 17 18 19 20 19 19 20 20 20 19 19 19 19 19 20 20
18 19 19 19 18 19 19 19 19 19 20 20 20 20 20 18 18 18 18 18 18 17 17 17 16 16 17 17 16 16 17 17 18 18 18 18 17 17 17 18 18 19 19 20
19 20 20 19 19 19 20 20 20 20 19 19 19 19 18 17 17 18 17 17 16 16 15 15 14 14 15 14 14 15 16 16 16 17 17 17 16 16 16 17 18 19 19 19
19 20 20 19 19 19 19 19 19 19 19 19 18 17 17 16 16 17 16 15 14 13 13 13 13 13 13 13 13 14 15 15 15 16 16 15 16 16 16 17 17 18 19 19
20 20 19 19 19 19 19 19 18 18 18 18 17 17 16 15 15 15 14 14 13 12 11 11 11 11 11 11 11 12 13 14 15 15 15 15 15 15 15 17 17 18 19 18
20 19 19 19 18 18 19 18 18 18 17 17 17 16 15 14 14 13 13 13 12 12 10 10 10 9 10 10 10 11 12 13 13 14 15 15 15 15 16 16 17 17 18 17
20 20 19 19 19 19 20 18 18 17 16 16 15 14 13 13 13 13 13 12 10 10 10 10 9 8 9 9 10 10 11 12 13 14 14 14 14 14 15 15 16 17 17 17
20 20 19 19 18 18 18 18 17 16 15 15 14 14 13 12 12 11 11 10 9 8 8 8 7 8 8 9 9 10 10 11 12 13 13 13 13 14 15 15 16 17 17 18
19 19 19 18 17 17 17 17 16 15 14 13 13 12 12 11 10 9 9 8 7 7 7 7 6 7 8 8 8 9 10 11 12 12 12 13 14 14 15 16 16 17 18 18
20 19 19 18 17 16 16 16 15 13 12 12 11 10 9 9 8 8 7 7 6 5 5 5 6 6 6 7 8 9 9 10 11 11 12 12 13 14 15 16 17 17 18 18
19 19 19 18 17 16 15 14 13 12 11 11 10 8 8 8 7 6 5 5 4 4 4 4 5 6 6 7 7 8 10 10 11 11 13 14 15 15 16 16 17 17 18 18
19 19 19 18 17 15 14 13 12 11 11 11 10 9 8 7 6 5 4 4 4 4 3 4 4 5 6 7 8 8 9 10 11 12 13 14 15 15 16 17 17 17 18 19

GEFSCGP_500_meanwind_174.txt.gz
Wind_Speed
3 4 5 9 11 10 10 12 13 14 16 17 17 17 16 17 18 21 21 22 23 23 23 23 25 25 26 26 26 27 27 27 28 28 29 29 29 29 29 29 29 30 30 30
4 6 9 11 10 9 12 13 14 16 16 17 17 17 17 19 20 21 22 22 23 22 23 24 25 25 26 26 26 27 27 28 29 29 29 30 29 29 29 29 29 30 30 30
6 8 10 9 10 11 12 12 13 16 16 15 16 19 18 18 20 22 21 22 23 25 24 25 26 25 25 25 25 26 27 28 27 28 28 29 29 29 30 29 29 29 29 30
9 9 9 10 11 13 12 13 15 17 17 16 16 18 18 18 19 21 21 23 23 24 24 25 26 25 25 24 24 26 27 27 26 27 27 28 28 29 29 29 28 28 29 30
10 11 10 11 12 13 14 15 15 15 16 16 16 18 19 20 20 22 22 24 24 26 26 25 25 25 24 23 24 25 25 26 26 27 27 27 28 28 28 28 28 29 30 30
11 11 11 12 13 14 15 15 14 14 15 15 17 18 20 21 20 23 24 25 26 26 26 24 24 25 24 24 24 24 24 25 25 25 26 26 28 27 26 27 28 28 29 29
12 11 12 13 13 15 16 15 15 15 14 14 16 19 19 20 20 22 24 26 26 25 25 24 25 24 25 25 24 24 24 24 24 24 25 26 26 25 25 27 27 28 28 29
11 11 12 14 15 15 13 14 15 17 16 15 16 18 16 17 19 21 24 25 26 25 24 25 26 25 25 25 24 23 23 24 24 24 24 24 25 26 26 27 27 27 28 28
11 10 11 13 12 14 15 14 15 18 17 17 16 18 16 16 19 22 24 25 26 26 25 25 25 25 25 25 24 24 24 24 24 24 24 24 25 26 27 27 27 28 28 28
14 13 12 12 11 12 14 13 15 15 18 19 17 17 18 20 22 24 24 25 26 26 26 25 25 25 25 24 23 23 23 23 22 23 24 24 24 25 26 26 27 27 27 27
17 16 13 13 12 13 14 14 16 17 17 19 20 19 19 20 22 23 23 24 25 26 25 25 24 24 24 23 22 22 22 22 23 23 23 24 25 25 25 25 26 26 26 26
16 15 14 13 13 14 14 16 17 18 19 19 20 20 19 21 23 23 24 25 26 26 25 24 23 23 23 22 22 21 21 22 22 23 23 24 24 24 24 24 24 24 25 25
16 14 15 13 14 15 16 18 19 20 20 20 20 20 20 22 23 24 24 25 26 25 24 23 23 22 22 21 21 20 20 21 21 22 22 23 23 23 23 23 23 24 24 24
17 16 15 15 17 17 17 18 19 20 20 20 21 22 22 23 24 24 24 25 25 24 24 24 23 21 21 21 20 20 19 20 21 21 22 21 22 22 21 21 22 22 23 23
17 17 17 17 18 18 19 19 20 20 20 21 22 22 23 22 24 24 25 25 26 24 24 23 22 20 20 19 19 19 20 20 20 20 20 20 20 20 20 20 20 21 22 22
18 18 18 18 18 19 19 19 20 20 20 21 22 23 22 23 23 24 25 25 24 23 22 21 20 19 18 19 19 19 19 19 19 19 19 19 19 19 19 19 20 21 21 22
18 18 19 19 19 20 19 19 20 20 20 21 23 22 23 23 24 24 24 24 23 21 20 19 19 18 18 18 17 17 16 16 17 17 18 18 18 17 18 18 19 20 21 22
19 19 20 19 18 19 20 21 21 20 21 22 23 24 24 24 24 23 23 23 22 20 19 18 17 16 16 16 15 15 15 15 15 16 15 16 17 17 17 18 19 19 21 22
20 20 20 19 18 19 19 21 20 20 21 23 23 23 23 23 23 22 21 20 19 17 16 15 14 14 14 13 13 13 13 13 14 14 15 15 16 16 17 18 19 20 21 21
21 21 21 21 20 20 21 22 19 20 22 23 23 22 21 21 20 19 18 17 15 14 14 14 13 13 12 10 11 12 12 12 13 14 15 16 16 16 18 18 19 19 19 20
21 20 20 21 20 20 21 21 20 21 23 23 22 21 20 19 18 16 16 14 14 14 13 12 11 10 10 9 10 11 12 12 12 14 15 15 15 16 18 18 18 18 19 19
22 21 21 20 20 20 21 21 21 22 21 21 20 18 18 17 15 14 14 13 13 14 13 12 10 8 9 9 10 10 11 11 13 14 15 15 16 17 17 18 18 18 18 20
22 22 21 20 20 21 21 22 21 21 20 20 19 17 17 17 14 13 13 13 13 13 12 11 9 8 8 9 9 9 10 12 12 13 14 16 16 17 17 18 18 18 19 19
23 22 22 22 22 22 22 22 22 21 20 19 18 17 16 16 13 12 12 13 12 11 10 9 8 8 8 9 9 9 10 12 13 13 14 15 16 16 17 18 18 18 18 19
23 23 23 23 23 22 21 21 21 20 19 19 17 16 15 14 13 12 12 12 11 10 9 8 8 7 8 8 9 9 11 12 13 13 14 15 16 16 17 17 18 18 19 19
24 23 23 23 23 23 22 21 20 19 18 17 16 15 14 14 13 12 11 10 9 9 8 8 8 8 8 8 9 10 11 12 13 13 14 15 16 17 17 17 18 19 19 19

GEFSCGP_500_meanwind_180.txt.gz
Wind_Speed
4 4 5 6 7 8 9 10 11 12 14 16 17 17 19 19 19 20 21 21 21 21 22 23 24 26 26 26 27 27 27 27 29 28 28 28 28 28 28 27 27 26 26 25
4 4 4 6 8 10 11 12 12 12 13 16 17 17 19 20 19 19 19 20 20 20 21 22 22 24 25 27 27 27 27 27 27 28 28 28 28 27 26 26 25 25 25 25
5 6 7 8 9 9 11 13 13 13 13 15 17 17 17 18 18 18 18 19 20 20 21 22 23 25 25 26 27 27 25 26 26 27 26 27 26 25 24 24 25 25 25 24
4 6 8 9 9 10 11 13 14 15 14 15 16 17 17 19 19 19 19 20 21 21 22 24 25 25 27 27 26 25 24 24 25 26 25 25 24 24 24 25 26 26 25 25
6 7 9 9 10 11 12 13 14 14 15 16 17 18 19 19 20 20 20 20 21 22 23 25 25 25 26 26 25 24 24 23 24 24 24 24 23 23 24 24 25 24 24 24
8 9 10 11 12 13 14 15 16 16 16 15 16 17 18 18 20 20 20 21 21 21 23 23 24 25 25 26 26 26 25 24 23 23 23 22 21 22 22 22 23 23 23 23
9 9 11 12 14 14 15 15 16 16 15 15 15 17 17 17 18 19 19 20 21 22 23 22 23 24 24 24 24 25 24 24 23 23 22 21 21 21 21 21 22 22 22 22
10 10 11 12 14 15 14 16 16 17 16 15 15 17 17 17 18 18 18 20 21 21 22 24 24 23 22 22 23 23 24 24 23 22 22 22 21 21 22 21 21 22 22 23
11 11 11 12 13 14 15 15 16 16 15 16 16 16 17 17 18 19 19 20 21 22 23 23 22 22 22 23 23 23 24 24 23 23 23 23 21 21 21 22 22 22 22 22
14 13 12 12 13 13 14 16 17 17 17 18 18 18 19 18 18 19 19 19 20 22 23 23 23 23 23 23 24 24 24 23 23 23 24 23 21 22 22 21 20 20 21 21
14 13 13 13 14 14 14 15 17 18 19 19 20 20 20 19 20 20 21 21 20 21 21 22 23 25 25 24 24 24 24 23 22 22 23 21 21 20 20 19 19 19 20 20
15 14 14 13 13 14 15 16 17 19 19 19 21 22 21 20 21 22 22 22 23 22 22 23 23 23 24 24 25 24 23 22 22 22 21 20 20 19 19 18 19 20 20 20
15 15 15 13 13 14 15 16 18 20 20 20 21 22 21 21 21 22 23 23 24 23 23 23 23 23 24 24 23 23 22 21 20 20 19 19 19 18 18 19 19 20 20 19
15 14 14 14 14 15 15 16 18 19 19 20 20 21 20 21 21 21 22 23 23 24 23 23 23 23 22 23 22 21 20 19 18 18 17 17 17 18 18 18 19 19 19 18
15 14 14 14 15 16 16 17 18 19 19 19 19 20 20 21 21 21 21 22 23 23 24 23 22 21 20 20 19 17 16 15 16 15 15 15 16 17 16 17 18 18 18 18
15 14 14 15 16 16 16 16 17 17 18 18 18 19 20 21 22 22 22 22 22 22 21 21 21 20 19 18 16 15 13 13 13 13 14 14 14 14 15 16 16 16 17 17
15 15 14 15 16 16 15 17 17 16 18 19 19 20 20 21 21 21 21 21 21 20 20 19 19 18 17 15 14 12 11 11 12 12 13 13 13 13 14 15 16 16 16 17
16 16 17 17 17 16 17 17 17 18 19 19 19 20 21 21 21 21 21 20 20 19 18 17 16 16 14 12 12 11 11 12 11 11 12 12 13 13 14 15 15 15 16 16
17 17 18 18 19 18 18 17 18 18 18 18 19 20 21 21 20 20 19 18 18 17 17 15 14 14 12 11 11 10 10 10 10 11 12 12 13 14 14 14 15 16 16 17
18 18 19 19 19 19 19 18 19 19 18 17 18 19 20 20 19 18 17 17 17 16 15 13 13 12 12 11 10 10 10 10 10 11 11 12 12 13 14 15 16 16 16 17
19 19 20 20 20 20 20 20 20 19 18 18 18 19 19 18 17 17 16 17 16 14 13 13 12 12 11 10 10 10 9 10 10 11 11 11 12 13 13 14 15 16 16 17
20 21 21 21 22 21 21 20 20 19 18 18 19 19 18 16 16 15 15 15 15 13 13 12 11 11 10 10 10 10 9 10 11 10 11 12 12 13 13 15 16 16 17 18
21 21 22 22 22 22 21 21 20 18 17 18 18 17 17 16 15 14 14 14 13 13 12 11 10 9 9 10 9 9 10 10 11 11 11 12 12 13 14 15 16 16 17 18
21 22 22 22 22 22 22 21 20 19 18 17 17 16 16 15 14 14 13 13 12 12 12 11 10 9 9 9 9 10 10 10 11 11 12 12 13 14 15 15 16 16 17 18
21 23 22 22 22 22 21 21 21 20 19 18 17 16 15 14 13 12 12 12 11 11 11 11 9 9 9 9 9 10 10 10 11 11 12 12 13 14 15 15 16 17 18 19
22 23 22 22 21 22 21 21 21 19 18 18 16 15 14 13 12 11 12 11 11 11 11 10 9 8 9 9 9 10 10 11 11 11 12 13 14 15 15 16 17 18 19 20

GEFSCGP_500_meanwind_186.txt.gz
Wind_Speed
7 8 10 11 12 12 13 13 14 15 15 16 16 18 19 20 20 21 22 23 24 24 25 24 22 23 24 25 25 25 26 26 27 28 28 27 29 29 27 26 26 25 25 25
8 9 10 10 11 12 13 13 14 14 16 18 17 17 18 20 21 22 22 22 23 24 24 22 21 22 24 24 25 26 26 28 29 29 28 28 28 29 26 23 23 23 24 24
8 8 9 10 11 12 13 14 15 15 17 19 20 19 20 20 21 22 22 23 22 22 23 22 21 22 23 24 25 25 27 27 28 28 28 27 27 26 25 23 23 23 24 24
9 9 10 11 13 13 14 14 15 16 17 19 20 21 20 20 20 21 22 22 22 22 22 23 23 23 24 25 26 27 27 27 27 27 28 28 26 25 25 23 23 23 23 24
10 11 11 12 13 14 13 14 15 17 18 19 20 21 20 20 20 20 21 21 22 23 24 23 23 23 24 26 27 27 27 27 27 27 27 26 25 25 25 24 23 22 22 23
11 12 12 13 14 14 14 16 16 17 18 19 19 20 20 21 21 20 20 20 21 22 22 22 23 24 25 26 27 27 28 27 26 26 26 25 25 24 24 23 22 21 21 22
11 12 13 12 13 14 15 16 18 18 17 17 18 20 20 20 20 19 20 21 21 21 22 23 24 24 24 25 26 26 26 26 26 25 25 24 25 24 23 22 21 21 20 20
12 12 13 13 13 14 15 16 17 18 18 17 17 19 19 19 18 20 20 20 21 22 23 24 25 24 24 24 24 25 26 25 24 24 24 24 22 21 21 21 21 20 19 19
12 12 13 14 14 15 16 16 16 18 18 18 18 18 17 18 19 20 21 21 22 22 22 23 24 24 24 24 25 25 24 23 23 23 23 22 20 20 19 20 21 21 20 20
13 13 14 14 15 15 15 16 16 17 18 19 18 18 18 18 19 20 20 20 21 21 22 23 23 24 23 24 25 24 23 23 22 22 21 21 20 19 19 20 20 21 21 20
13 13 14 15 15 15 15 15 16 17 18 20 20 18 18 19 19 19 20 21 21 22 22 23 24 23 23 23 24 23 22 21 21 20 19 19 18 17 18 18 19 19 19 19
14 14 14 14 14 14 15 17 18 18 18 19 20 19 19 19 19 19 20 21 22 23 24 23 23 22 21 22 22 21 20 19 18 18 17 17 17 18 17 17 18 17 17 18
15 15 15 14 14 15 15 16 17 18 19 20 20 19 19 19 19 20 20 21 21 22 22 22 21 21 20 20 20 19 19 18 17 16 15 16 17 18 17 17 16 16 16 17
15 15 15 14 14 15 15 15 16 17 19 19 19 18 18 19 20 20 20 21 21 21 21 20 20 19 20 20 18 18 17 16 15 14 14 15 17 18 18 17 15 15 15 17
15 15 15 14 14 15 15 16 16 17 19 19 19 18 18 19 20 20 20 21 21 20 19 19 18 18 19 18 17 16 15 14 14 14 14 15 16 17 17 16 15 15 16 17
15 15 15 15 15 15 16 17 17 18 18 18 18 18 18 19 19 19 19 20 19 19 19 18 17 17 18 17 15 14 13 13 13 13 14 15 15 15 16 16 16 16 16 17
16 16 16 16 16 17 17 18 18 18 17 18 18 17 18 18 18 19 19 19 19 19 19 18 17 17 17 15 14 13 13 13 13 14 14 14 14 15 16 16 15 15 16 17
17 17 18 17 17 17 17 18 19 19 18 18 19 18 18 19 19 20 20 20 18 18 18 18 17 17 16 14 13 13 14 13 14 14 14 14 14 15 15 14 14 15 16 17
18 18 18 18 18 18 18 18 19 19 19 19 19 18 18 18 19 19 20 20 18 18 18 17 17 16 16 14 13 13 14 14 14 14 14 15 14 15 15 14 14 15 16 17
19 19 19 19 19 19 19 19 20 20 20 20 20 19 18 18 18 18 18 18 18 17 17 17 16 15 15 14 13 14 14 13 13 14 14 14 14 14 15 15 15 16 17 18
20 19 19 19 19 19 19 20 20 21 21 21 20 19 18 18 18 17 17 17 17 16 16 15 15 15 15 14 13 13 13 13 13 14 14 14 15 15 15 15 16 17 18 19
20 20 20 20 20 20 20 20 21 21 21 20 19 18 18 18 18 17 17 17 16 16 15 14 14 14 14 15 14 13 13 13 14 14 14 14 14 15 15 16 17 18 19 19
21 20 21 21 21 21 21 21 21 21 20 20 19 18 18 18 18 17 16 16 16 15 13 13 13 14 14 15 13 13 13 13 14 14 14 14 15 16 16 17 18 19 19 20
22 22 22 21 21 22 22 22 22 21 20 20 20 20 18 17 16 16 15 15 15 14 13 13 13 13 14 14 13 13 13 13 14 13 14 14 15 16 17 18 19 20 20 21
23 23 23 22 22 22 22 23 23 22 21 21 22 20 18 16 15 15 15 14 14 13 12 12 12 13 13 13 13 13 13 13 13 13 14 15 16 17 18 19 20 21 21 21
24 24 24 24 23 23 23 23 23 23 22 22 21 19 17 16 16 15 14 14 13 12 12 13 13 13 13 13 12 12 13 13 13 14 14 16 16 18 19 19 20 21 21 21

GEFSCGP_500_meanwind_192.txt.gz
Wind_Speed
5 6 7 7 8 9 9 10 12 14 14 14 15 16 17 17 18 19 20 21 23 23 24 25 26 27 26 25 25 25 25 26 27 27 27 27 27 27 27 27 27 28 27 25
7 8 8 9 9 9 10 11 13 14 14 15 16 17 18 18 19 21 22 23 24 25 26 26 27 27 27 26 25 25 26 27 27 27 27 26 26 26 27 27 27 26 24 24
7 8 9 9 10 10 10 11 12 14 14 15 16 17 18 19 20 21 22 23 24 24 25 27 26 26 26 25 25 25 26 26 27 27 26 26 26 26 26 26 25 24 23 22
8 9 9 9 10 10 11 12 13 13 13 15 16 17 20 19 21 22 23 23 23 24 25 26 26 25 24 24 25 25 26 26 26 26 26 26 25 25 25 25 24 23 23 23
10 10 10 10 11 11 11 12 12 13 13 14 16 17 19 19 21 22 22 22 23 23 24 24 24 23 23 24 25 25 26 26 26 25 25 25 25 25 25 24 23 23 23 23
10 10 11 11 11 11 12 12 13 12 12 14 15 15 18 19 20 20 21 21 22 24 24 23 23 23 23 24 25 25 25 25 25 25 24 25 25 25 24 24 24 24 24 23
11 12 12 12 12 12 12 11 12 12 12 13 16 16 17 19 20 20 20 21 21 22 22 21 22 22 23 24 24 24 24 23 23 23 24 24 24 24 24 24 24 23 23 23
12 12 13 12 12 12 12 11 12 12 12 14 16 16 18 20 20 20 21 21 22 22 21 21 22 23 24 24 23 22 22 22 22 23 23 23 23 23 23 23 22 22 21 22
11 12 13 13 13 13 13 12 11 12 13 14 15 17 17 18 19 19 20 21 21 21 21 21 22 22 22 22 21 20 20 20 21 21 21 21 21 21 21 21 20 20 20 20
12 13 12 13 13 13 12 11 11 12 14 15 16 17 17 18 19 19 20 19 20 20 20 20 20 20 20 20 19 19 18 19 20 19 19 19 19 19 19 19 19 19 18 18
13 13 12 13 12 13 13 11 12 13 14 15 15 17 18 18 19 19 19 20 20 20 19 19 20 19 19 19 19 19 18 19 18 18 17 17 16 16 17 17 17 16 16 17
14 13 13 13 12 12 12 12 12 14 15 15 15 18 19 19 19 19 19 19 18 18 19 19 18 18 18 18 19 19 18 18 17 16 16 16 16 16 15 16 16 16 16 16
14 13 13 13 13 13 13 13 13 14 14 15 15 18 19 19 19 19 19 19 19 19 19 19 18 18 18 18 18 18 18 17 15 15 15 14 14 14 14 15 15 15 15 16
14 13 12 12 12 13 13 14 14 15 15 15 16 18 18 19 18 19 18 18 18 19 19 18 17 17 18 18 18 17 17 16 15 14 14 13 13 13 13 14 15 15 16 16
14 13 13 13 13 13 14 15 15 16 15 16 16 17 18 19 19 19 19 19 18 18 18 18 17 17 18 18 17 17 17 15 14 13 13 12 12 12 13 14 14 15 16 16
15 14 14 14 14 14 15 15 15 16 16 16 17 18 19 20 19 19 19 19 18 17 17 18 17 17 17 17 16 16 15 14 13 13 12 12 12 13 13 14 14 15 15 16
15 15 14 15 15 16 16 16 15 15 16 17 18 19 20 19 19 19 19 19 18 18 18 18 17 16 17 16 16 15 14 12 12 12 12 12 13 13 13 13 14 15 15 16
16 15 15 15 15 15 16 15 15 16 17 18 19 19 19 19 19 19 19 19 18 18 18 17 17 17 17 16 15 14 13 12 11 12 12 12 12 13 14 15 15 15 16 17
16 16 16 16 16 17 16 16 16 17 18 18 19 19 20 19 20 19 19 19 18 17 17 17 17 17 16 15 14 13 13 12 12 12 13 12 12 13 14 15 15 15 16 17
16 16 16 16 17 18 17 17 17 17 18 19 19 19 19 19 19 18 18 18 17 16 16 16 17 17 16 14 13 13 13 13 12 12 12 12 12 13 14 15 15 16 16 17
18 18 17 17 17 18 18 18 17 17 18 19 19 19 18 18 18 18 18 18 17 16 16 16 16 15 14 13 13 13 13 13 12 11 11 11 12 13 14 15 16 16 17 17
19 19 18 18 19 19 19 18 18 18 18 19 19 18 18 18 18 18 18 17 16 15 15 15 15 14 13 12 13 13 12 12 12 11 11 12 13 14 14 15 16 17 18 18
20 19 19 20 20 21 20 20 20 20 20 20 19 18 18 18 18 18 17 16 15 14 15 14 13 12 12 12 13 12 12 12 12 12 12 13 14 15 15 16 17 18 18 18
21 20 21 21 21 21 21 21 21 21 20 20 19 19 18 18 18 17 16 15 14 14 13 13 12 11 11 12 12 11 12 12 12 12 12 13 14 14 15 16 17 17 18 18
22 23 22 22 22 22 22 22 21 21 20 20 19 19 18 18 18 16 15 14 14 14 13 12 11 11 12 13 12 11 12 12 12 12 12 13 13 14 15 16 16 17 18 18
24 24 23 23 24 24 23 22 22 21 20 20 19 19 18 18 17 16 15 14 14 13 13 12 12 12 13 13 12 12 12 12 12 12 12 13 14 14 14 15 16 17 17 18

GEFSCGP_500_meanwind_198.txt.gz
Wind_Speed
7 7 8 8 9 10 11 9 11 13 14 14 16 17 18 19 20 20 21 22 22 23 23 24 25 26 26 26 27 26 27 27 27 27 28 27 27 27 27 27 26 25 25 24
7 9 11 10 10 11 10 10 12 13 14 14 16 18 19 19 20 21 21 22 23 23 24 25 25 26 26 26 27 26 26 27 27 28 28 28 27 28 27 27 26 25 25 25
7 10 12 10 9 10 11 11 12 14 15 16 16 19 20 20 20 22 22 23 25 25 26 26 26 26 26 26 27 26 26 27 28 28 27 27 27 26 26 25 24 23 23 23
7 9 10 10 10 11 12 12 13 14 15 14 14 17 19 21 23 22 24 26 27 27 28 28 27 27 28 27 27 27 27 27 26 26 26 27 26 25 24 23 23 22 22 23
8 10 11 11 12 12 11 12 13 12 12 12 13 16 20 22 23 25 27 27 26 28 28 28 28 28 28 28 27 27 27 26 25 25 26 26 25 24 24 23 22 22 22 22
10 12 12 12 12 13 12 12 12 10 10 12 13 17 20 22 23 25 25 26 26 26 27 28 28 28 27 26 26 26 24 24 24 25 25 25 23 23 23 22 22 22 22 22
10 13 14 14 13 13 12 13 12 10 11 12 13 16 18 20 23 24 25 26 26 27 27 27 26 25 25 25 25 24 24 24 24 24 24 24 22 22 22 21 21 21 21 22
11 12 13 14 13 13 12 12 13 12 12 12 13 15 19 21 22 23 24 25 25 24 25 25 24 24 23 23 23 23 23 24 24 24 23 22 21 20 20 20 20 20 20 21
12 12 13 15 14 14 13 13 13 13 11 11 13 16 19 19 20 22 23 23 23 23 23 23 23 22 22 22 22 22 22 23 23 23 21 20 20 19 19 19 20 20 19 19
13 13 13 14 14 14 13 13 13 12 13 13 14 16 18 19 19 21 22 22 23 22 22 22 21 21 21 21 21 22 22 21 21 20 19 19 19 18 19 18 18 18 18 19
14 14 14 14 13 13 13 14 14 12 12 14 15 16 18 19 21 21 22 22 23 22 21 21 21 21 21 21 21 21 21 21 20 19 18 17 16 16 17 17 17 17 17 17
15 15 14 13 13 13 14 14 15 14 12 12 15 17 19 20 20 21 21 22 22 21 21 20 20 21 20 21 20 20 20 20 19 17 16 15 15 15 16 16 15 16 16 16
15 14 13 12 14 14 15 15 15 15 14 14 15 17 19 20 20 21 22 22 21 21 20 20 20 20 20 20 19 19 19 19 18 16 15 14 13 14 14 14 15 15 15 16
14 14 13 13 13 14 15 15 15 16 15 16 15 17 18 19 20 21 21 22 22 20 20 19 19 19 19 19 20 19 19 19 17 16 16 14 13 13 14 14 14 14 15 15
15 14 14 14 14 14 15 14 15 15 15 16 16 18 19 20 20 21 21 21 21 20 19 18 19 19 19 19 19 19 19 18 17 16 16 15 13 14 14 13 14 15 15 15
16 15 15 14 15 15 15 16 15 15 15 16 17 18 18 19 20 21 20 21 20 20 19 18 19 18 18 19 19 19 18 17 17 16 15 13 12 13 13 13 13 15 15 17
16 17 16 15 14 15 15 16 17 16 15 16 17 18 19 20 21 21 20 20 19 19 18 18 18 19 19 18 19 18 18 17 16 16 13 12 13 13 14 13 14 15 16 17
16 17 16 16 15 15 16 17 17 17 16 16 18 18 19 20 21 21 20 19 18 18 18 18 18 18 18 18 18 18 17 16 15 14 13 12 13 13 13 14 14 16 17 17
16 17 17 16 15 17 17 17 18 18 17 17 19 19 20 20 21 20 19 18 18 18 17 18 19 18 18 18 17 17 17 16 14 14 13 13 13 13 14 15 16 16 17 17
17 17 17 17 17 17 18 18 19 19 19 19 19 20 21 21 21 20 19 18 18 18 17 17 17 17 17 17 17 16 16 15 14 13 13 13 13 13 14 15 16 16 16 17
19 18 18 18 19 19 20 19 19 20 21 20 20 21 21 21 21 20 19 18 18 18 18 17 16 16 16 16 16 15 15 15 14 13 13 14 13 14 15 15 16 17 17 18
20 21 20 20 20 19 22 21 21 22 21 21 21 21 21 21 20 20 19 18 18 17 17 16 16 16 16 15 15 15 15 14 14 13 13 14 14 14 15 16 17 18 18 18
21 21 22 22 21 21 22 22 22 22 22 22 21 20 21 21 20 20 19 18 17 16 15 15 15 15 15 15 14 14 15 14 13 13 13 14 14 15 16 16 17 18 18 19
23 23 23 23 23 23 23 23 22 22 22 22 22 21 22 22 21 20 19 18 17 16 15 14 14 15 14 14 14 14 14 13 13 14 14 14 14 15 16 17 17 18 18 18
24 24 25 25 24 23 23 23 22 22 23 23 23 22 22 22 22 21 20 18 17 16 15 15 14 14 14 14 14 14 14 13 13 14 15 14 14 14 15 16 16 17 17 17
25 25 26 25 25 24 24 24 24 24 24 24 24 23 23 23 23 22 20 19 18 16 15 15 15 14 14 14 14 14 13 13 13 14 14 14 13 14 14 15 15 16 17 17

GEFSCGP_500_meanwind_204.txt.gz
Wind_Speed
1 1 2 4 5 6 8 9 9 9 11 12 13 14 15 17 18 18 18 19 19 20 20 19 19 20 23 23 22 23 24 24 24 24 23 22 22 23 22 21 21 20 20 19
1 1 3 5 6 8 9 10 10 10 11 13 14 14 15 18 18 19 21 21 20 22 23 23 24 23 22 22 23 24 23 23 23 23 23 22 21 22 21 21 20 19 19 19
3 4 5 7 9 9 10 10 10 10 11 13 14 14 15 17 19 20 21 22 23 23 24 24 23 22 23 23 23 23 22 22 22 21 21 20 20 21 20 20 20 19 19 20
3 4 6 8 8 9 10 11 12 12 11 12 14 15 16 17 19 19 21 22 24 24 25 23 23 23 23 23 24 24 24 23 22 21 21 21 21 20 20 20 20 20 20 20
4 5 7 8 9 10 11 12 13 13 13 13 14 16 16 16 17 19 21 22 22 23 23 22 22 23 23 23 23 23 23 22 22 21 21 21 21 20 20 20 20 20 20 20
6 8 9 9 10 12 12 13 13 13 13 14 14 15 15 16 17 17 18 19 20 20 20 20 20 20 21 22 22 22 23 22 21 21 21 20 20 20 19 20 19 19 19 18
7 9 11 12 12 13 14 14 13 13 13 13 14 15 16 16 16 16 18 19 19 19 19 19 19 20 21 21 20 21 21 21 20 20 20 20 19 19 19 18 18 18 18 17
8 10 12 13 14 15 14 14 13 13 14 14 14 15 15 14 16 17 18 17 17 17 19 20 19 20 21 21 20 21 20 20 20 20 19 19 18 18 17 17 16 16 15 16
10 12 13 14 15 15 15 13 13 13 14 15 15 14 14 15 15 16 16 16 17 18 19 19 19 19 20 20 20 20 20 19 19 19 18 18 18 17 15 15 14 14 15 15
12 13 14 14 14 14 14 13 13 14 15 15 14 14 15 16 16 15 16 17 17 18 17 18 19 19 19 19 19 20 19 19 19 18 17 16 15 15 14 13 13 14 15 15
13 14 14 15 14 13 13 13 13 13 14 15 16 15 15 15 16 16 16 17 18 18 18 18 18 19 19 19 19 19 19 18 18 18 16 15 14 13 13 12 13 13 14 14
13 14 15 15 15 14 13 14 12 12 13 15 16 15 14 15 15 16 17 17 16 18 19 19 18 18 19 19 19 18 18 17 17 17 15 14 14 14 13 13 12 12 13 13
14 15 15 15 15 15 14 14 13 12 13 14 14 14 14 14 14 15 16 16 17 18 19 19 19 18 18 18 18 18 18 16 16 15 15 14 14 13 13 12 12 12 12 13
15 15 15 15 15 15 14 13 13 13 12 13 13 13 13 14 15 15 16 17 18 18 18 18 18 17 17 17 18 17 17 16 15 15 14 14 13 13 13 12 11 11 12 13
14 14 14 15 15 15 14 13 12 13 13 13 12 12 13 14 15 16 17 17 18 18 16 16 16 16 15 16 16 17 16 15 15 15 14 14 14 13 13 12 12 12 13 14
14 14 14 14 15 14 13 12 12 13 13 13 13 13 14 15 16 17 17 17 17 17 16 15 15 15 15 16 16 16 16 15 15 15 14 13 13 13 13 12 12 12 13 15
15 14 14 14 14 13 12 12 13 14 14 13 14 14 15 16 17 17 16 17 17 16 15 15 15 15 15 16 16 16 16 15 15 15 14 13 13 13 13 12 12 13 14 14
16 15 14 14 14 13 12 13 14 14 14 14 15 15 16 16 17 17 16 16 16 15 15 16 15 15 16 16 16 16 15 15 16 15 14 13 13 12 13 13 13 13 13 14
16 15 14 14 13 13 13 14 14 15 15 14 14 14 15 16 16 16 16 16 16 16 16 16 16 16 16 16 16 15 15 15 16 15 14 13 13 12 13 13 13 13 14 14
16 15 15 15 15 15 14 14 15 15 15 15 15 16 16 16 16 16 17 17 17 16 16 16 16 16 16 16 16 15 15 16 15 14 13 13 13 13 14 14 13 13 14 14
16 15 15 16 16 15 15 15 15 16 16 16 17 17 17 17 18 18 18 17 17 17 17 17 16 16 16 16 16 15 15 15 14 13 13 13 12 12 13 13 14 14 14 14
18 17 17 17 17 17 16 16 16 17 17 17 17 18 18 19 19 19 19 19 18 18 18 18 17 16 16 16 15 15 15 14 14 13 13 13 13 13 13 13 13 14 14 14
19 19 19 19 19 19 18 18 18 18 18 18 19 19 19 19 20 20 20 20 20 19 19 18 17 16 16 15 15 15 14 13 13 13 13 13 13 13 12 13 13 14 15 15
21 21 21 21 20 20 19 20 20 20 20 20 20 20 19 20 21 21 21 21 21 20 19 18 17 17 16 16 15 15 14 13 13 13 13 13 13 13 13 13 13 14 14 14
22 22 22 22 22 22 22 22 22 22 22 22 22 22 21 21 22 22 22 21 20 19 19 18 17 17 16 16 15 14 13 13 13 13 13 13 13 13 13 14 13 14 15 15
23 24 24 24 24 24 23 23 23 23 23 24 24 23 22 22 23 23 22 21 21 19 18 18 18 18 17 16 15 14 13 14 14 14 13 13 13 13 13 13 14 14 15 16

GEFSCGP_500_meanwind_210.txt.gz
Wind_Speed
6 7 8 8 8 9 9 9 9 9 11 12 12 12 13 14 15 16 17 17 18 19 20 21 22 22 22 22 22 22 23 22 22 22 22 21 20 20 20 20 20 20 19 19
6 7 8 10 9 10 10 10 10 11 11 12 13 13 14 15 17 17 18 18 19 20 20 21 22 22 22 22 22 22 23 22 22 21 21 21 20 20 19 19 18 18 18 19
7 9 10 10 10 10 10 11 11 11 12 13 14 14 15 16 17 18 18 19 20 20 22 22 22 22 22 22 22 22 21 21 21 20 20 19 19 18 18 18 17 17 18 18
8 9 9 9 9 10 11 11 12 13 14 15 15 16 16 17 18 19 19 20 20 21 22 22 22 23 23 22 22 22 20 19 19 19 19 17 17 17 17 17 16 16 17 17
8 9 9 10 10 11 12 12 13 13 15 15 16 17 17 18 19 21 21 21 20 20 21 21 21 21 21 22 22 20 19 17 18 18 19 18 18 17 16 16 16 16 17 17
9 10 10 11 12 13 14 15 15 16 16 16 16 17 17 18 19 20 21 21 21 20 21 20 19 19 20 22 21 20 18 17 17 18 18 18 18 17 16 17 16 16 17 18
10 11 12 12 13 14 15 16 17 17 17 17 17 17 17 18 17 19 19 19 19 19 19 19 18 18 18 18 18 16 16 17 18 18 18 18 18 17 17 17 15 16 17 17
11 11 12 13 14 15 16 16 17 18 18 17 17 17 16 16 17 18 19 18 18 18 17 17 16 16 17 17 16 16 16 16 17 18 17 18 18 18 18 17 15 16 16 16
11 12 13 14 14 15 16 16 17 17 18 18 17 17 16 17 18 18 18 18 17 17 17 16 16 16 17 17 17 16 16 16 17 17 17 17 17 17 17 16 15 16 16 16
12 13 13 14 15 16 16 16 16 17 18 19 18 17 18 17 17 17 17 18 18 18 17 17 17 17 17 17 16 16 16 16 16 16 17 17 16 16 16 15 15 15 16 16
13 13 14 15 15 15 15 16 16 17 18 19 20 19 18 17 16 17 17 17 17 17 17 18 18 19 18 18 17 17 17 17 17 17 17 17 16 16 16 16 15 15 16 17
13 14 15 16 16 16 17 17 17 18 18 19 19 18 17 16 17 18 17 17 17 17 18 18 18 18 18 18 18 18 18 17 17 17 17 16 16 16 16 16 15 16 17 17
15 15 16 16 17 17 17 18 18 18 18 18 17 16 16 16 17 16 17 17 17 18 18 18 18 18 18 18 18 18 18 17 17 17 16 16 16 16 16 16 16 17 17 17
15 15 16 17 17 16 16 16 16 16 16 16 16 16 16 16 16 16 16 17 17 18 18 18 17 17 17 17 16 17 17 18 17 16 15 15 16 17 16 16 16 16 16 15
15 15 15 16 16 16 15 15 15 15 15 16 16 16 16 16 16 16 16 17 17 18 18 17 16 16 16 16 15 16 17 17 16 15 15 15 16 16 15 15 15 15 15 14
16 16 16 16 16 16 16 15 15 14 15 15 16 15 15 16 16 16 17 17 18 18 17 16 16 16 16 16 16 16 16 16 15 15 15 15 15 15 15 14 14 14 14 13
16 17 17 16 17 16 15 14 14 15 15 16 16 16 15 16 17 17 17 17 18 18 18 17 17 16 16 16 16 16 16 16 16 15 15 15 15 15 14 14 14 14 13 13
17 17 17 18 17 16 15 15 15 15 16 16 17 17 16 16 17 17 17 17 18 18 18 18 17 16 16 16 16 16 16 16 16 16 16 15 15 14 14 14 14 13 13 13
17 18 18 18 17 17 16 16 16 16 15 16 17 17 17 17 18 18 17 17 18 18 18 18 17 16 17 16 16 17 17 16 16 17 16 15 14 14 13 13 13 13 13 13
18 19 19 19 19 18 17 16 17 17 16 17 17 18 18 18 18 18 18 18 18 18 18 18 18 18 17 17 17 18 17 17 17 16 15 15 15 14 13 13 13 13 13 13
20 20 20 19 19 18 18 17 18 18 18 18 18 18 18 19 19 19 20 19 19 19 20 20 19 19 18 18 18 18 17 16 16 16 16 15 15 14 14 13 13 13 13 14
21 21 20 20 20 19 19 18 19 19 19 19 20 20 19 20 20 21 21 21 21 20 20 20 20 20 20 19 19 18 17 17 17 16 16 15 14 14 13 13 13 14 13 14
22 22 22 22 22 21 21 20 21 21 20 20 21 21 21 21 22 22 22 22 22 21 21 21 21 21 20 20 19 18 17 17 17 16 15 14 13 13 13 12 13 13 13 14
24 24 24 24 24 23 22 22 22 22 23 22 22 22 23 23 23 23 23 24 23 23 23 22 22 22 21 20 19 18 18 17 17 16 15 14 14 14 13 13 13 13 14 14
26 26 26 26 26 25 24 24 24 24 25 25 25 24 24 24 24 24 25 25 24 23 23 22 22 22 21 19 19 18 17 17 17 16 15 15 14 14 14 14 14 14 14 14
27 28 28 27 27 27 27 26 26 26 26 26 26 25 25 25 25 25 25 25 24 23 23 22 22 21 20 19 18 17 17 17 16 15 15 15 15 15 15 14 14 14 15 15

GEFSCGP_500_meanwind_216.txt.gz
Wind_Speed
5 5 6 7 8 9 9 10 10 10 9 10 10 12 13 13 14 14 15 16 18 19 20 19 20 20 20 21 21 21 20 19 20 20 20 20 19 18 18 18 18 17 17 17
5 6 7 8 9 9 10 11 11 11 10 11 11 12 13 14 14 15 16 17 18 20 20 19 19 19 20 20 21 21 19 18 20 20 20 19 17 17 16 16 16 17 16 16
6 7 8 8 9 10 10 10 11 11 11 12 13 13 14 15 15 16 17 17 18 19 18 18 19 19 20 20 20 20 19 19 19 19 18 17 16 15 16 16 16 17 17 16
7 7 7 8 10 10 11 11 11 11 12 13 13 14 15 16 16 17 17 18 18 19 18 18 19 19 20 19 19 19 18 18 18 18 17 16 15 16 16 16 16 16 16 16
8 8 8 9 10 11 11 11 12 12 12 13 14 14 16 16 17 17 18 19 18 18 18 19 19 18 18 18 18 17 17 18 18 17 16 15 14 14 15 16 15 16 15 15
9 9 9 10 10 11 11 11 13 13 13 14 14 14 16 16 17 17 18 19 19 18 18 18 17 18 18 18 18 18 17 18 17 16 15 14 13 14 14 15 15 15 15 14
9 10 10 10 11 11 11 11 11 12 12 13 15 15 16 16 17 17 18 18 18 19 19 19 18 19 19 18 18 18 18 18 17 15 13 13 13 14 14 14 14 14 14 15
10 11 12 11 11 12 11 10 11 11 11 14 15 15 16 16 17 17 18 19 19 19 19 19 18 18 18 17 17 16 16 16 16 14 12 12 12 13 13 13 14 13 14 15
10 12 12 12 12 12 11 11 12 13 13 14 15 16 16 16 17 17 18 18 18 18 18 18 18 18 18 17 17 16 16 15 14 13 13 13 13 13 13 14 14 14 14 15
11 12 12 13 12 12 12 12 13 13 14 14 16 16 16 16 16 17 18 18 18 18 17 17 17 17 17 17 17 17 16 15 14 14 13 13 13 13 13 13 14 14 14 14
11 12 13 13 13 13 13 14 14 14 14 14 14 16 16 17 17 17 17 17 17 17 17 17 17 17 17 16 15 16 15 14 13 14 14 14 14 13 13 13 14 14 13 14
12 12 13 14 14 14 14 15 14 15 15 15 15 16 17 17 17 17 17 16 16 17 17 17 17 17 16 16 15 15 14 14 14 14 14 13 13 13 13 13 13 13 13 14
12 13 14 14 15 14 14 14 14 15 15 15 15 16 16 17 17 16 16 16 16 17 17 18 17 17 16 16 16 16 15 14 14 14 14 13 12 13 13 13 13 13 13 13
13 14 14 14 14 15 15 14 14 14 15 15 15 15 16 17 16 16 15 16 16 17 17 18 18 17 17 16 16 15 14 14 13 14 13 13 13 13 13 13 13 13 13 13
14 15 15 15 16 16 16 15 15 15 14 14 15 16 16 17 16 16 15 16 16 16 17 17 17 17 16 15 15 14 13 14 14 14 13 13 13 13 13 12 12 12 12 12
15 15 15 15 15 16 16 15 15 15 15 15 16 16 16 16 16 16 16 16 16 17 17 17 17 16 15 15 14 13 14 14 14 14 13 13 13 12 12 12 12 12 13 13
16 15 15 15 15 16 16 15 15 15 15 15 15 16 16 15 16 16 16 16 16 17 17 16 16 16 15 15 14 14 14 14 14 13 13 12 12 12 12 12 12 13 13 13
17 16 16 15 16 17 16 16 15 15 15 15 15 15 16 16 16 16 16 16 17 18 17 17 16 15 15 15 15 15 14 14 13 13 13 13 12 12 12 13 13 13 13 13
17 17 17 16 17 17 17 16 15 15 15 14 15 15 15 15 16 17 17 17 17 17 17 16 16 16 15 15 15 15 14 13 13 13 13 14 13 13 13 14 13 13 13 13
18 18 18 18 17 17 17 16 15 15 15 15 15 16 16 16 16 17 17 18 18 18 17 16 16 16 16 16 16 15 15 15 14 14 13 14 14 14 14 14 14 14 13 14
19 18 18 18 18 18 17 16 15 16 16 16 16 16 17 17 17 18 18 18 18 19 18 18 18 17 17 17 17 16 16 15 15 14 14 15 15 15 15 14 14 14 13 14
20 19 18 18 19 19 18 18 17 17 17 17 17 17 17 18 18 19 19 19 19 19 19 19 18 18 17 17 17 17 16 16 15 15 15 16 15 15 14 14 13 13 14 14
21 21 21 20 20 20 19 19 19 19 19 18 19 19 19 19 19 20 20 20 20 20 20 19 19 18 18 18 18 17 17 16 16 16 16 16 16 15 14 14 13 13 14 14
23 22 22 22 22 21 21 21 21 20 20 20 20 20 20 20 20 20 21 21 21 21 20 20 20 19 18 18 18 18 17 17 17 17 16 15 15 14 14 14 14 14 15 15
24 24 24 24 24 23 22 23 23 22 22 22 22 22 22 22 21 22 22 22 22 21 21 21 20 20 19 18 18 18 18 18 18 17 16 15 14 14 14 13 13 13 14 15
25 26 25 25 25 24 24 25 25 25 24 23 24 24 24 24 23 23 23 23 23 22 22 21 21 20 19 19 18 18 18 18 17 17 16 16 15 15 14 14 13 14 14 14

GEFSCGP_500_meanwind_222.txt.gz
Wind_Speed
3 5 7 8 10 11 11 11 12 14 16 16 17 18 18 18 18 18 19 19 20 21 21 22 22 22 22 21 22 22 23 23 23 23 22 23 23 22 21 21 22 21 20 19
7 9 9 8 11 12 11 12 13 15 18 18 18 18 18 18 16 18 19 20 21 22 22 22 22 22 22 22 22 22 22 22 22 21 22 22 21 21 21 21 21 21 19 18
9 9 9 10 11 12 11 11 13 16 18 18 18 18 18 18 17 17 19 19 21 23 22 22 22 22 22 22 21 21 20 20 20 20 21 20 20 20 19 20 20 19 19 18
9 8 8 10 10 11 11 11 14 15 15 15 16 16 18 19 19 20 20 19 21 23 23 23 23 22 21 21 21 20 18 18 18 19 19 19 19 18 18 18 18 17 18 17
9 10 10 10 10 11 11 11 13 13 14 13 15 16 18 21 20 19 20 21 21 22 22 22 23 22 21 20 20 20 18 18 18 18 18 18 18 17 16 17 16 16 16 16
9 8 9 10 11 10 10 10 11 11 13 14 14 17 20 20 21 20 21 22 21 22 22 22 22 22 21 20 20 18 18 17 17 18 17 16 16 15 15 16 16 16 15 15
9 7 10 11 11 10 10 10 10 11 13 14 15 16 19 19 20 20 20 21 21 21 22 22 21 22 22 21 20 18 18 18 18 17 16 15 15 16 15 15 16 15 14 13
10 10 11 11 10 11 11 10 11 12 12 13 14 17 20 21 22 20 20 20 20 20 20 20 22 23 22 21 20 19 18 18 18 17 16 16 16 16 16 15 15 14 13 13
11 11 11 12 11 11 11 10 12 13 12 14 15 17 18 20 21 19 19 19 19 21 20 21 22 23 22 22 21 19 18 17 17 17 17 16 15 15 14 14 14 14 14 14
11 11 11 13 11 10 10 11 11 12 12 13 14 17 20 19 19 21 21 20 19 20 21 21 21 22 23 22 20 19 17 17 17 17 15 14 14 14 14 14 14 14 14 14
12 12 11 11 11 10 10 11 12 12 12 13 15 19 19 21 21 22 21 20 20 20 21 23 22 22 22 21 19 17 16 16 16 15 14 14 14 14 14 14 14 14 14 14
12 12 13 12 12 11 12 12 13 15 14 15 16 19 19 20 21 22 22 21 21 21 21 22 21 21 20 19 17 16 15 15 15 15 14 14 14 14 14 15 15 15 15 15
14 13 13 12 12 12 12 14 15 15 16 16 16 19 20 20 20 20 21 21 21 21 21 21 21 20 19 17 16 15 15 15 15 15 14 14 15 15 15 16 15 15 16 16
15 14 14 13 12 12 13 14 15 16 16 16 15 18 20 20 19 20 20 21 21 21 21 21 20 19 18 17 16 15 15 15 15 15 15 15 15 16 16 16 16 16 16 16
16 16 16 15 15 15 16 16 15 15 16 15 16 17 19 20 20 20 20 21 21 21 21 21 20 19 18 17 17 16 16 16 16 16 15 15 15 16 15 16 16 15 16 16
17 17 18 18 16 17 17 17 16 16 16 16 17 18 20 20 20 19 20 21 21 20 20 20 19 18 18 17 17 16 16 16 16 16 15 15 15 15 14 15 15 16 16 17
18 18 18 18 17 17 17 16 16 17 17 17 18 18 19 20 20 20 20 20 20 20 19 19 19 18 18 17 17 16 16 16 16 15 15 14 14 14 14 15 16 16 16 17
21 20 20 18 18 20 18 17 17 19 19 19 19 18 19 20 20 20 21 20 20 19 19 19 18 18 17 17 16 16 16 16 15 15 15 15 15 15 15 16 16 15 16 16
21 20 20 19 19 19 18 18 18 19 20 19 19 19 19 19 20 21 20 20 20 20 19 18 18 18 17 17 16 17 17 16 16 15 15 16 16 16 16 16 16 16 17 17
21 22 21 21 20 19 20 19 18 19 20 19 18 18 18 20 18 20 20 20 20 19 18 17 17 18 18 17 17 17 17 17 17 17 17 16 16 16 16 17 17 17 18 18
22 22 23 22 21 21 22 21 20 20 21 20 19 19 20 19 19 19 20 20 19 19 18 18 18 18 18 18 17 17 17 17 18 18 17 16 17 17 17 17 17 17 17 17
24 24 24 23 23 22 22 22 22 21 21 21 20 20 20 19 20 20 21 21 20 20 19 19 19 19 19 19 18 18 18 18 18 18 18 17 17 18 18 18 18 17 17 17
25 24 24 25 25 25 25 24 24 23 23 22 21 21 21 22 22 22 22 22 23 22 21 21 20 20 20 20 20 19 19 19 19 19 18 18 18 18 19 19 18 18 18 18
27 26 27 27 27 26 26 25 25 25 24 24 22 21 22 23 23 23 24 24 23 23 23 23 22 21 21 20 20 20 20 19 19 19 19 19 19 19 18 18 19 19 18 18
31 29 29 29 29 28 28 27 26 26 26 26 25 24 25 25 25 25 25 25 25 25 24 23 22 22 21 21 20 20 20 20 20 20 20 20 19 19 19 19 20 19 18 18
31 31 31 31 31 30 29 28 27 27 27 27 27 26 26 26 26 26 26 26 26 26 25 23 23 23 22 21 21 20 21 20 20 19 19 19 18 19 19 19 19 18 18 18

GEFSCGP_500_meanwind_228.txt.gz
Wind_Speed
11 12 12 11 11 11 11 12 11 11 12 14 15 15 15 16 16 16 16 15 16 16 16 17 17 16 16 17 19 19 19 19 19 20 19 18 18 18 19 19 19 19 19 17
11 11 10 10 12 12 11 11 11 11 13 15 16 17 17 17 17 17 16 16 17 17 17 17 16 16 17 17 19 20 19 20 20 20 19 19 18 18 18 18 19 18 18 18
10 9 9 11 11 11 9 11 12 13 14 15 16 17 18 18 18 17 16 16 18 18 18 17 18 18 18 19 20 20 19 19 20 19 19 18 18 18 18 18 18 17 18 17
9 9 9 10 10 10 10 10 13 15 16 17 17 18 17 17 17 17 17 18 19 18 18 18 18 18 20 20 21 21 20 20 20 19 19 18 18 17 17 16 16 16 15 15
8 8 9 10 9 10 10 11 12 14 16 17 18 18 17 16 16 16 17 18 18 18 18 19 19 20 20 21 20 20 20 20 19 18 18 18 17 17 17 16 15 14 14 15
8 8 10 10 9 10 11 12 13 14 15 15 15 16 17 16 16 16 16 17 18 18 19 19 20 20 20 20 19 19 20 19 18 18 17 17 16 16 16 16 14 14 14 14
10 9 10 11 10 11 12 12 13 14 15 15 15 16 15 15 15 16 15 16 18 19 19 18 20 20 19 19 19 19 20 19 17 17 16 16 15 16 16 15 14 14 13 13
9 9 10 11 12 12 13 13 14 15 15 16 17 17 16 15 15 13 13 15 17 18 17 16 18 20 20 19 18 19 19 17 17 16 15 15 15 14 14 14 14 13 13 13
10 10 11 11 11 12 13 14 14 16 16 17 18 17 16 15 15 14 14 15 16 16 15 15 17 18 18 19 19 18 16 15 15 14 13 13 14 13 13 13 13 13 13 13
12 12 12 12 12 12 13 14 15 15 17 18 18 16 15 15 15 14 14 14 16 16 16 16 17 17 18 18 18 17 16 14 13 13 13 13 13 13 13 14 14 14 13 13
12 12 11 12 12 13 13 14 15 16 17 17 18 17 16 16 15 14 15 16 16 16 17 17 16 16 17 17 17 16 14 13 12 12 12 12 13 13 13 13 13 13 13 13
13 13 12 12 12 13 14 14 15 17 17 17 18 18 16 16 16 16 16 16 16 16 16 17 17 17 17 16 16 15 13 12 12 12 12 13 13 14 14 14 13 13 13 13
15 15 14 14 14 14 14 15 16 17 17 17 18 19 17 16 17 16 17 17 16 17 17 18 18 17 17 17 16 15 14 13 13 13 13 13 14 14 15 15 14 14 14 14
15 16 16 16 16 16 16 16 18 18 18 18 18 18 18 17 17 18 18 18 17 18 18 18 17 17 16 16 15 13 14 14 13 13 14 14 15 15 15 15 15 14 14 14
16 16 16 16 18 18 17 16 17 19 19 19 18 19 18 18 18 18 18 18 17 17 17 18 17 17 16 15 14 14 14 14 14 14 14 14 15 15 15 15 15 15 14 14
19 18 18 17 17 18 18 18 19 20 21 21 20 20 19 18 18 18 18 17 18 17 17 18 17 17 16 15 14 14 14 15 15 15 15 15 15 15 15 15 15 15 15 14
20 20 20 19 19 20 20 19 19 21 21 21 21 20 19 19 19 19 19 19 19 17 17 17 17 17 17 16 15 15 15 15 16 16 15 14 14 15 15 15 14 14 14 14
22 22 22 22 22 22 20 19 20 21 21 21 21 20 20 20 19 19 19 20 19 18 17 18 18 18 17 17 17 17 17 17 16 16 15 15 15 14 14 14 14 14 14 14
23 23 24 24 23 22 20 19 20 20 20 21 21 19 19 19 19 18 18 19 19 18 18 19 20 18 18 18 18 17 17 17 17 16 16 16 16 15 15 15 15 14 14 14
25 25 25 25 25 23 20 20 20 19 20 20 20 19 19 19 18 18 19 19 19 19 19 19 19 18 19 18 18 18 18 18 17 17 17 16 16 16 15 15 15 15 15 15
26 26 26 26 26 25 22 21 20 20 19 19 19 19 19 19 19 19 18 19 19 19 19 19 19 19 18 18 19 19 19 18 18 17 17 16 16 16 16 16 16 16 16 16
26 26 27 27 27 26 24 23 22 21 21 19 18 19 21 20 19 19 19 19 19 19 20 21 20 19 19 19 20 20 19 19 18 18 17 17 17 16 16 17 17 17 17 17
27 27 26 27 26 26 24 23 23 22 22 21 21 21 22 21 21 21 22 22 21 21 21 21 20 20 20 20 20 20 19 19 20 19 18 17 17 17 18 18 18 19 19 19
26 27 28 27 27 27 26 25 25 25 24 24 24 23 24 23 22 23 23 23 23 23 22 22 22 21 20 20 21 21 20 20 20 19 18 18 18 18 18 18 19 20 20 19
28 27 28 28 28 29 28 27 26 26 25 24 25 26 25 25 25 25 25 24 24 24 23 23 23 23 22 22 22 21 20 19 19 19 18 19 19 19 18 19 19 20 20 20
28 28 28 28 28 28 28 28 27 27 26 26 26 26 26 26 26 25 25 25 25 24 23 23 23 23 23 23 23 23 21 20 20 19 19 20 20 20 20 20 20 20 20 19

GEFSCGP_500_meanwind_234.txt.gz
Wind_Speed
16 16 16 16 15 15 15 16 16 15 14 15 15 13 13 13 12 13 13 13 14 14 14 15 16 17 17 18 18 17 17 18 18 18 18 19 18 18 18 18 18 18 17 17
17 16 15 15 16 16 16 17 16 16 16 17 16 14 14 13 13 13 14 15 15 15 16 16 17 18 17 18 19 18 17 18 19 19 19 18 18 17 18 18 18 18 17 17
15 14 15 15 15 15 16 17 16 16 17 18 18 16 14 14 14 14 15 16 17 17 17 18 18 18 18 18 18 18 17 18 19 19 18 18 18 18 18 17 17 17 17 17
15 15 15 16 15 15 14 15 16 17 18 18 17 16 15 15 15 16 17 18 18 18 19 19 19 18 17 17 17 17 18 19 19 19 17 17 18 18 17 17 17 17 17 17
15 15 16 16 15 15 14 15 16 17 18 17 17 18 16 14 15 16 17 18 18 18 18 18 18 18 17 18 18 18 19 20 19 18 17 16 17 17 16 16 16 17 17 17
15 16 16 15 15 15 15 16 17 18 18 17 16 17 15 15 15 17 17 18 18 17 17 17 17 17 17 17 18 18 19 20 19 18 17 16 17 17 16 16 15 16 16 17
15 16 16 16 17 17 17 17 18 19 19 18 17 17 16 16 16 17 18 18 18 17 17 16 16 17 17 18 18 19 19 19 19 18 17 16 16 16 16 16 16 16 16 16
16 17 16 16 17 17 17 17 17 17 17 16 16 17 16 16 17 17 17 18 18 17 16 16 16 17 18 18 18 18 18 18 17 17 16 16 15 14 14 15 15 16 15 15
16 16 16 16 17 17 16 16 16 17 17 17 17 16 16 16 17 17 17 17 16 16 16 16 17 18 18 19 18 17 17 15 14 14 14 14 14 14 14 14 14 14 14 14
15 14 15 16 17 17 17 16 16 16 18 18 18 16 17 16 17 17 17 16 16 15 16 16 17 18 18 18 16 15 15 14 14 14 14 14 14 14 13 13 14 14 15 15
16 16 16 16 18 18 17 16 17 18 19 19 19 17 17 17 17 16 16 16 16 16 16 17 17 17 16 16 16 15 14 14 14 14 13 13 13 13 13 13 14 14 14 14
17 16 16 16 16 16 16 16 17 18 19 19 19 18 17 16 16 16 17 17 17 16 16 16 16 16 16 16 16 14 13 13 13 13 14 13 13 14 14 14 14 14 14 14
16 16 16 16 16 17 17 17 18 18 19 19 20 18 17 17 17 16 16 16 17 16 16 17 17 17 17 16 15 15 14 14 14 14 13 13 14 14 14 14 14 14 14 13
19 18 17 17 16 17 18 18 20 21 22 21 20 18 17 17 17 17 17 17 17 17 17 17 17 17 17 16 15 15 14 14 14 14 14 14 14 14 14 14 15 14 14 13
20 19 18 18 19 19 20 21 21 22 22 22 21 20 19 19 18 18 18 18 17 17 17 17 17 17 16 16 15 15 15 15 15 15 15 15 15 15 15 15 15 14 14 14
21 21 20 21 21 21 21 22 22 22 22 21 21 20 19 19 19 18 18 18 18 17 16 16 16 16 16 15 14 15 15 15 15 15 15 15 15 15 15 15 15 14 14 14
22 22 23 23 23 23 22 22 22 22 22 22 22 20 19 20 19 19 19 18 18 18 17 17 17 17 16 16 16 16 17 15 15 16 16 16 15 15 15 15 15 15 15 15
25 25 25 25 25 26 23 23 23 24 23 22 22 21 21 20 20 19 19 18 18 17 17 17 18 17 16 16 17 17 17 17 16 16 16 16 16 15 15 15 15 15 15 15
25 26 26 26 26 27 25 24 24 24 23 22 22 21 21 20 20 18 18 17 17 16 17 17 17 17 17 17 17 18 18 17 17 16 17 17 17 16 16 15 15 16 16 16
27 26 26 26 26 26 24 23 23 23 23 21 21 21 20 20 19 18 18 17 16 17 17 18 18 18 18 19 19 19 18 17 17 17 17 17 17 17 16 16 16 17 17 17
27 27 26 26 25 24 23 22 22 23 22 22 22 22 21 21 20 19 18 18 17 17 18 18 19 19 19 19 19 18 18 18 18 18 18 17 17 17 17 17 17 17 17 17
28 27 27 26 26 25 24 24 24 23 23 22 22 22 22 21 21 19 18 18 18 18 18 19 19 20 20 20 20 19 19 19 19 18 18 18 18 18 17 17 18 18 18 18
29 28 27 27 27 26 26 26 25 25 24 23 23 23 23 22 22 21 20 20 20 20 20 20 20 21 21 21 21 20 20 20 20 19 19 18 18 18 18 18 18 19 19 19
28 28 28 29 28 27 27 27 26 26 26 25 24 24 24 24 23 22 21 21 21 21 22 21 22 22 22 22 21 21 21 21 21 20 20 19 19 19 19 19 19 19 20 20
28 28 29 29 29 28 28 28 28 27 26 26 25 25 26 25 24 23 22 23 23 23 23 22 22 22 22 22 22 22 22 21 21 20 20 20 20 20 20 20 19 20 20 21
29 29 28 28 28 28 28 28 28 28 28 27 27 27 26 25 25 25 25 24 24 24 23 23 23 23 23 23 24 24 24 23 22 21 22 21 21 21 20 20 20 21 21 21